[[{"header":{"parameterUnit":"m.s-1","parameterCategory":1,"la1":31.0,"la2":29.5877,"lo1":-88.7671,"lo2":-86.6584,"dy":0.0162,"dx":0.0185,"nx":115,"ny":88,"refTime":"2023-06-08T18:00:00:Z","depth":0,"parameterNumber":2,"parameterNumberName":"U-component_of_WINDS"},"data":[0.0,0.0,0.0,0.0,0.0,0.0,0.0,0.0,0.0,0.0,0.0,0.0,0.0,0.0,0.0,0.0,0.0,0.0,0.0,0.0,0.0,0.0,0.0,0.0,0.0,0.0,0.0,0.0,0.0,0.0,0.0,0.0,0.0,0.0,0.0,0.0,0.0,0.0,0.0,0.0,0.0,0.0,0.0,0.0,0.0,0.0,0.0,0.0,0.0,0.0,0.0,0.0,0.0,0.0,0.0,0.0,0.0,0.0,0.0,0.0,0.0,0.0,0.0,0.0,0.0,0.0,0.0,0.0,0.0,0.0,0.0,0.0,0.0,0.0,0.0,0.0,0.0,0.0,0.0,0.0,0.0,0.0,0.0,0.0,0.0,0.0,0.0,0.0,0.0,0.0,0.0,0.0,0.0,0.0,0.0,0.0,0.0,0.0,0.0,0.0,0.0,0.0,0.0,0.0,0.0,0.0,0.0,0.0,0.0,0.0,0.0,0.0,0.0,0.0,0.0,0.0,0.0,0.0,0.0,0.0,0.0,0.0,0.0,0.0,0.0,0.0,0.0,0.0,0.0,0.0,0.0,0.0,0.0,0.0,0.0,0.0,0.0,0.0,0.0,0.0,0.0,0.0,0.0,0.0,0.0,0.0,0.0,0.0,0.0,0.0,0.0,0.0,0.0,0.0,0.0,0.0,0.0,0.0,0.0,0.0,0.0,0.0,0.0,0.0,0.0,0.0,0.0,0.0,0.0,0.0,0.0,0.0,0.0,0.0,0.0,0.0,0.0,0.0,0.0,0.0,0.0,0.0,0.0,0.0,0.0,0.0,0.0,0.0,0.0,0.0,0.0,0.0,0.0,0.0,0.0,0.0,0.0,0.0,0.0,0.0,0.0,0.0,0.0,0.0,0.0,0.0,0.0,0.0,0.0,0.0,0.0,0.0,0.0,0.0,0.0,0.0,0.0,0.0,0.0,0.0,0.0,0.0,0.0,0.0,0.0,0.0,0.0,0.0,0.0,0.0,0.0,0.0,0.0,0.0,0.0,0.0,0.0,0.0,0.0,0.0,0.0,0.0,0.0,0.0,0.0,0.0,0.0,0.0,0.0,0.0,0.0,0.0,0.0,0.0,0.0,0.0,0.0,0.0,0.0,0.0,0.0,0.0,0.0,0.0,0.0,0.0,0.0,0.0,0.0,0.0,0.0,0.0,0.0,0.0,0.0,0.0,0.0,0.0,0.0,0.0,0.0,0.0,0.0,0.0,0.0,0.0,0.0,0.0,0.0,0.0,0.0,0.0,0.0,0.0,0.0,0.0,0.0,0.0,0.0,0.0,0.0,0.0,0.0,0.0,0.0,0.0,0.0,0.0,0.0,0.0,0.0,0.0,0.0,0.0,0.0,0.0,0.0,0.0,0.0,0.0,0.0,0.0,0.0,0.0,0.0,0.0,0.0,0.0,0.0,0.0,0.0,0.0,0.0,0.0,0.0,0.0,0.0,0.0,0.0,0.0,0.0,0.0,0.0,0.0,0.0,0.0,0.0,0.0,0.0,0.0,0.0,0.0,0.0,0.0,0.0,0.0,0.0,0.0,0.0,0.0,0.0,0.0,0.0,0.0,0.0,0.0,0.0,0.0,0.0,0.0,0.0,0.0,0.0,0.0,0.0,0.0,0.0,0.0,0.0,0.0,0.0,0.0,0.0,0.0,0.0,0.0,0.0,0.0,0.0,0.0,0.0,0.0,0.0,0.0,0.0,0.0,0.0,0.0,0.0,0.0,0.0,0.0,0.0,0.0,0.0,0.0,0.0,0.0,0.0,0.0,0.0,0.0,0.0,0.0,0.0,0.0,0.0,0.0,0.0,0.0,0.0,0.0,0.0,0.0,0.0,0.0,0.0,0.0,0.0,0.0,0.0,0.0,0.0,0.0,0.0,0.0,0.0,0.0,0.0,0.0,0.0,0.0,0.0,0.0,0.0,0.0,0.0,0.0,0.0,0.0,0.0,0.0,0.0,0.0,0.0,0.0,0.0,0.0,0.0,0.0,0.0,0.0,0.0,0.0,0.0,0.0,0.0,0.0,0.0,0.0,0.0,0.0,0.0,0.0,0.0,0.0,0.0,0.0,0.0,0.0,0.0,0.0,0.0,0.0,0.0,0.0,0.0,0.0,0.0,0.0,0.0,0.0,0.0,0.0,0.0,0.0,0.0,0.0,0.0,0.0,0.0,0.0,0.0,0.0,0.0,0.0,0.0,0.0,0.0,0.0,0.0,0.0,0.0,0.0,0.0,0.0,0.0,0.0,0.0,0.0,0.0,0.0,0.0,0.0,0.0,0.0,0.0,0.0,0.0,0.0,0.0,0.0,0.0,0.0,0.0,0.0,0.0,0.0,0.0,0.0,0.0,0.0,0.0,0.0,0.0,0.0,0.0,0.0,0.0,0.0,0.0,0.0,0.0,0.0,0.0,0.0,0.0,0.0,0.0,0.0,0.0,0.0,0.0,0.0,0.0,0.0,0.0,0.0,0.0,0.0,0.0,0.0,0.0,0.0,0.0,0.0,0.0,0.0,0.0,0.0,0.0,0.0,0.0,0.0,0.0,0.0,0.0,0.0,0.0,0.0,0.0,0.0,0.0,0.0,0.0,0.0,0.0,0.0,0.0,0.0,0.0,0.0,0.0,0.0,0.0,0.0,0.0,0.0,0.0,0.0,0.0,0.0,0.0,0.0,0.0,0.0,0.0,0.0,0.0,0.0,0.0,0.0,0.0,0.0,0.0,0.0,0.0,0.0,0.0,0.0,0.0,0.0,0.0,0.0,0.0,0.0,0.0,0.0,0.0,0.0,0.0,0.0,0.0,0.0,0.0,0.0,0.0,0.0,0.0,0.0,0.0,0.0,0.0,0.0,0.0,0.0,0.0,0.0,0.0,0.0,0.0,0.0,0.0,0.0,0.0,0.0,0.0,0.0,0.0,0.0,0.0,0.0,0.0,0.0,0.0,0.0,0.0,0.0,0.0,0.0,0.0,0.0,0.0,0.0,0.0,0.0,0.0,0.0,0.0,0.0,0.0,0.0,0.0,0.0,0.0,0.0,0.0,0.0,0.0,0.0,0.0,0.0,0.0,0.0,0.0,0.0,0.0,0.0,0.0,0.0,0.0,0.0,0.0,0.0,0.0,0.0,0.0,0.0,0.0,0.0,0.0,0.0,0.0,0.0,0.0,0.0,0.0,0.0,0.0,0.0,0.0,0.0,0.0,0.0,0.0,0.0,0.0,0.0,0.0,0.0,0.0,0.0,0.0,0.0,0.0,0.0,0.0,0.0,0.0,0.0,0.0,0.0,0.0,0.0,0.0,0.0,0.0,0.0,0.0,0.0,0.0,0.0,0.0,0.0,0.0,0.0,0.0,0.0,0.0,0.0,0.0,0.0,0.0,0.0,0.0,0.0,0.0,0.0,0.0,0.0,0.0,0.0,0.0,0.0,0.0,0.0,0.0,0.0,0.0,0.0,0.0,0.0,0.0,0.0,0.0,0.0,0.0,0.0,0.0,0.0,0.0,0.0,0.0,0.0,0.0,0.0,0.0,0.0,0.0,0.0,0.0,0.0,0.0,0.0,0.0,0.0,0.0,0.0,0.0,0.0,0.0,0.0,0.0,0.0,0.0,0.0,0.0,0.0,0.0,0.0,0.0,0.0,0.0,0.0,0.0,0.0,0.0,0.0,0.0,0.0,0.0,0.0,0.0,0.0,0.0,0.0,0.0,0.0,0.0,0.0,0.0,0.0,0.0,0.0,0.0,0.0,0.0,0.0,0.0,0.0,0.0,0.0,0.0,0.0,0.0,0.0,0.0,0.0,0.0,0.0,0.0,0.0,0.0,0.0,0.0,0.0,0.0,0.0,0.0,0.0,0.0,0.0,0.0,0.0,0.0,0.0,0.0,0.0,0.0,0.0,0.0,0.0,0.0,0.0,0.0,0.0,0.0,0.0,0.0,0.0,0.0,0.0,0.0,0.0,0.0,0.0,0.0,0.0,0.0,0.0,0.0,0.0,0.0,0.0,0.0,0.0,0.0,0.0,0.0,0.0,0.0,0.0,0.0,0.0,0.0,0.0,0.0,0.0,0.0,0.0,0.0,0.0,0.0,0.0,0.0,0.0,0.0,0.0,0.0,0.0,0.0,0.0,0.0,0.0,0.0,0.0,0.0,0.0,0.0,0.0,0.0,0.0,0.0,0.0,0.0,0.0,0.0,0.0,0.0,0.0,0.0,0.0,0.0,0.0,0.0,0.0,-4.2323,0.0,0.0,0.0,0.0,0.0,0.0,0.0,0.0,0.0,0.0,0.0,0.0,0.0,0.0,0.0,0.0,0.0,0.0,0.0,0.0,0.0,0.0,0.0,0.0,0.0,0.0,0.0,0.0,0.0,0.0,0.0,0.0,0.0,0.0,0.0,0.0,0.0,0.0,0.0,0.0,0.0,0.0,0.0,0.0,0.0,0.0,0.0,0.0,0.0,0.0,0.0,0.0,0.0,0.0,0.0,0.0,0.0,0.0,0.0,0.0,0.0,0.0,0.0,0.0,0.0,0.0,0.0,0.0,0.0,0.0,0.0,0.0,0.0,0.0,0.0,0.0,0.0,0.0,0.0,0.0,0.0,0.0,0.0,0.0,0.0,0.0,0.0,0.0,0.0,0.0,0.0,0.0,0.0,0.0,0.0,0.0,0.0,0.0,0.0,0.0,0.0,0.0,0.0,0.0,0.0,0.0,0.0,0.0,0.0,0.0,-4.3667,-4.3617,-4.3583,-4.3331,-4.2896,0.0,0.0,0.0,0.0,0.0,0.0,0.0,0.0,0.0,0.0,0.0,0.0,0.0,0.0,0.0,0.0,0.0,0.0,0.0,0.0,0.0,0.0,0.0,0.0,0.0,0.0,0.0,0.0,0.0,0.0,0.0,0.0,0.0,0.0,0.0,0.0,0.0,0.0,0.0,0.0,0.0,0.0,0.0,0.0,0.0,0.0,0.0,0.0,0.0,0.0,0.0,0.0,0.0,0.0,0.0,0.0,0.0,0.0,0.0,0.0,0.0,0.0,0.0,0.0,0.0,0.0,0.0,0.0,0.0,0.0,0.0,0.0,0.0,0.0,0.0,0.0,0.0,0.0,0.0,0.0,0.0,0.0,0.0,0.0,0.0,0.0,0.0,0.0,0.0,0.0,0.0,0.0,0.0,0.0,0.0,0.0,0.0,0.0,0.0,0.0,0.0,0.0,0.0,0.0,0.0,0.0,0.0,0.0,0.0,0.0,0.0,0.0,-4.3515,-4.3245,-4.2774,0.0,0.0,0.0,0.0,0.0,0.0,0.0,0.0,0.0,0.0,0.0,0.0,0.0,0.0,0.0,0.0,0.0,0.0,0.0,0.0,0.0,0.0,0.0,0.0,0.0,0.0,0.0,0.0,0.0,0.0,0.0,0.0,0.0,0.0,0.0,0.0,0.0,0.0,0.0,0.0,0.0,0.0,0.0,0.0,0.0,0.0,0.0,0.0,0.0,0.0,0.0,0.0,0.0,0.0,0.0,0.0,0.0,0.0,0.0,0.0,0.0,0.0,0.0,0.0,0.0,0.0,0.0,0.0,0.0,0.0,0.0,0.0,0.0,0.0,0.0,0.0,0.0,0.0,0.0,0.0,0.0,0.0,0.0,0.0,0.0,0.0,0.0,0.0,0.0,0.0,0.0,0.0,0.0,0.0,0.0,0.0,0.0,0.0,0.0,0.0,0.0,0.0,0.0,0.0,0.0,0.0,0.0,0.0,0.0,0.0,-4.3515,-4.3496,-4.3446,0.0,-4.1067,0.0,0.0,0.0,0.0,0.0,0.0,0.0,0.0,0.0,0.0,0.0,0.0,0.0,0.0,0.0,0.0,0.0,0.0,0.0,0.0,0.0,0.0,0.0,0.0,0.0,0.0,0.0,0.0,0.0,0.0,0.0,0.0,0.0,0.0,0.0,0.0,0.0,0.0,0.0,0.0,0.0,0.0,0.0,0.0,0.0,0.0,0.0,0.0,0.0,0.0,0.0,0.0,0.0,0.0,0.0,0.0,0.0,0.0,0.0,0.0,0.0,0.0,0.0,0.0,0.0,0.0,0.0,0.0,0.0,0.0,0.0,0.0,0.0,0.0,0.0,0.0,0.0,0.0,0.0,0.0,0.0,0.0,0.0,0.0,0.0,0.0,0.0,0.0,0.0,0.0,0.0,0.0,0.0,0.0,0.0,0.0,0.0,0.0,0.0,0.0,0.0,0.0,0.0,0.0,0.0,0.0,0.0,0.0,0.0,0.0,-4.348,-4.3446,-4.3287,-4.265,0.0,0.0,0.0,0.0,0.0,0.0,0.0,0.0,0.0,0.0,0.0,0.0,0.0,0.0,0.0,0.0,0.0,0.0,0.0,0.0,0.0,0.0,0.0,0.0,0.0,0.0,0.0,0.0,0.0,0.0,0.0,0.0,0.0,0.0,0.0,0.0,0.0,0.0,0.0,0.0,0.0,0.0,0.0,0.0,0.0,0.0,0.0,0.0,0.0,0.0,0.0,0.0,0.0,0.0,0.0,0.0,0.0,0.0,0.0,0.0,0.0,0.0,0.0,0.0,0.0,0.0,0.0,0.0,0.0,0.0,0.0,0.0,0.0,0.0,0.0,0.0,0.0,0.0,0.0,0.0,0.0,0.0,0.0,0.0,0.0,0.0,0.0,0.0,0.0,0.0,0.0,0.0,0.0,0.0,0.0,0.0,0.0,0.0,0.0,0.0,0.0,0.0,0.0,0.0,0.0,0.0,0.0,0.0,0.0,0.0,-4.3445,-4.3375,-4.3341,-4.3397,-4.2922,-4.1887,0.0,0.0,0.0,0.0,0.0,0.0,0.0,0.0,0.0,0.0,0.0,0.0,0.0,0.0,0.0,0.0,0.0,0.0,0.0,0.0,0.0,0.0,0.0,0.0,0.0,0.0,0.0,0.0,0.0,0.0,0.0,0.0,0.0,0.0,0.0,0.0,0.0,0.0,0.0,0.0,0.0,0.0,0.0,0.0,0.0,0.0,0.0,0.0,0.0,0.0,0.0,0.0,0.0,0.0,0.0,0.0,0.0,0.0,0.0,0.0,0.0,0.0,0.0,0.0,0.0,0.0,0.0,0.0,0.0,0.0,0.0,0.0,0.0,0.0,0.0,0.0,0.0,0.0,0.0,0.0,0.0,0.0,0.0,0.0,0.0,0.0,0.0,0.0,0.0,0.0,0.0,0.0,0.0,0.0,0.0,0.0,0.0,0.0,0.0,0.0,0.0,0.0,0.0,0.0,0.0,0.0,0.0,0.0,-4.343,-4.3305,-4.3196,-4.3196,-4.3831,-4.3467,0.0,0.0,0.0,0.0,0.0,0.0,0.0,0.0,0.0,0.0,0.0,0.0,0.0,0.0,0.0,0.0,0.0,0.0,0.0,0.0,0.0,0.0,0.0,0.0,0.0,0.0,0.0,0.0,0.0,0.0,0.0,0.0,0.0,0.0,0.0,0.0,0.0,0.0,0.0,0.0,0.0,0.0,0.0,0.0,0.0,0.0,0.0,0.0,0.0,0.0,0.0,0.0,0.0,0.0,0.0,0.0,0.0,0.0,0.0,0.0,0.0,0.0,0.0,0.0,0.0,0.0,0.0,0.0,0.0,0.0,0.0,0.0,0.0,0.0,0.0,0.0,0.0,0.0,0.0,0.0,0.0,0.0,0.0,0.0,0.0,0.0,0.0,0.0,0.0,0.0,0.0,0.0,0.0,0.0,0.0,0.0,0.0,0.0,0.0,0.0,0.0,0.0,0.0,0.0,0.0,0.0,0.0,0.0,0.0,-4.4181,-4.449,-4.4574,-4.4381,-4.426,-4.3689,0.0,0.0,0.0,0.0,0.0,0.0,0.0,0.0,0.0,0.0,0.0,0.0,0.0,0.0,0.0,0.0,0.0,0.0,0.0,0.0,0.0,0.0,0.0,0.0,0.0,0.0,0.0,0.0,0.0,0.0,0.0,0.0,0.0,0.0,0.0,0.0,0.0,0.0,0.0,0.0,0.0,0.0,0.0,0.0,0.0,0.0,0.0,0.0,0.0,0.0,0.0,0.0,0.0,0.0,0.0,0.0,0.0,0.0,0.0,0.0,0.0,0.0,0.0,0.0,0.0,0.0,0.0,0.0,0.0,0.0,0.0,0.0,0.0,0.0,0.0,0.0,0.0,0.0,0.0,0.0,0.0,0.0,0.0,0.0,0.0,0.0,0.0,0.0,0.0,0.0,0.0,0.0,0.0,0.0,0.0,0.0,0.0,0.0,0.0,0.0,0.0,0.0,0.0,0.0,0.0,0.0,0.0,0.0,0.0,-4.4763,0.0,-4.5482,-4.5024,-4.4736,-4.4157,0.0,0.0,0.0,0.0,0.0,0.0,0.0,0.0,0.0,0.0,0.0,0.0,0.0,0.0,0.0,0.0,0.0,0.0,0.0,0.0,0.0,0.0,0.0,0.0,0.0,0.0,0.0,0.0,0.0,0.0,0.0,0.0,0.0,0.0,0.0,0.0,0.0,0.0,0.0,0.0,0.0,0.0,0.0,0.0,0.0,0.0,0.0,0.0,0.0,0.0,0.0,0.0,0.0,0.0,0.0,0.0,0.0,0.0,0.0,0.0,0.0,0.0,0.0,0.0,0.0,0.0,0.0,0.0,0.0,0.0,0.0,0.0,0.0,0.0,0.0,0.0,0.0,0.0,0.0,0.0,0.0,0.0,0.0,0.0,0.0,0.0,0.0,0.0,0.0,0.0,0.0,0.0,0.0,0.0,0.0,0.0,0.0,0.0,0.0,0.0,0.0,0.0,0.0,0.0,0.0,0.0,0.0,0.0,-4.4625,-4.5147,-4.5801,-4.571,-4.4864,-4.5276,-4.4805,0.0,0.0,0.0,0.0,0.0,0.0,0.0,0.0,0.0,0.0,0.0,0.0,0.0,0.0,0.0,0.0,0.0,0.0,0.0,0.0,0.0,0.0,0.0,0.0,0.0,0.0,0.0,0.0,0.0,0.0,0.0,0.0,0.0,0.0,0.0,0.0,0.0,0.0,0.0,0.0,0.0,0.0,0.0,0.0,0.0,0.0,0.0,0.0,0.0,0.0,0.0,0.0,0.0,0.0,0.0,0.0,0.0,0.0,0.0,0.0,0.0,0.0,0.0,0.0,0.0,0.0,0.0,0.0,0.0,0.0,0.0,0.0,0.0,0.0,0.0,0.0,0.0,0.0,0.0,0.0,0.0,0.0,0.0,0.0,0.0,0.0,0.0,0.0,0.0,0.0,0.0,0.0,0.0,0.0,0.0,0.0,0.0,0.0,0.0,0.0,0.0,0.0,0.0,0.0,0.0,0.0,0.0,0.0,0.0,-4.6625,-4.6769,-4.6297,-4.5194,-4.4902,-4.4067,0.0,0.0,0.0,0.0,0.0,0.0,0.0,0.0,0.0,0.0,0.0,0.0,0.0,0.0,0.0,0.0,0.0,0.0,0.0,0.0,0.0,0.0,0.0,0.0,0.0,0.0,0.0,0.0,0.0,0.0,0.0,0.0,0.0,0.0,0.0,0.0,0.0,0.0,0.0,0.0,0.0,0.0,0.0,0.0,0.0,0.0,0.0,0.0,0.0,0.0,0.0,0.0,0.0,0.0,0.0,0.0,0.0,0.0,0.0,0.0,0.0,0.0,0.0,0.0,0.0,0.0,0.0,0.0,0.0,0.0,0.0,0.0,0.0,0.0,0.0,0.0,0.0,0.0,0.0,0.0,0.0,0.0,0.0,0.0,0.0,0.0,0.0,0.0,0.0,0.0,0.0,0.0,0.0,0.0,0.0,0.0,0.0,0.0,0.0,0.0,0.0,0.0,0.0,0.0,0.0,0.0,0.0,0.0,0.0,-4.7145,-4.7204,-4.6732,-4.5687,-4.507,-4.3979,-4.2285,0.0,0.0,0.0,0.0,0.0,0.0,0.0,0.0,0.0,0.0,0.0,0.0,0.0,0.0,0.0,0.0,0.0,0.0,0.0,0.0,0.0,0.0,0.0,0.0,0.0,0.0,0.0,0.0,0.0,0.0,0.0,0.0,0.0,0.0,0.0,0.0,0.0,0.0,0.0,0.0,0.0,0.0,0.0,0.0,0.0,0.0,0.0,0.0,0.0,0.0,0.0,0.0,0.0,0.0,0.0,0.0,0.0,0.0,0.0,0.0,0.0,0.0,0.0,0.0,0.0,0.0,0.0,0.0,0.0,0.0,0.0,0.0,0.0,0.0,0.0,0.0,0.0,0.0,0.0,0.0,0.0,0.0,0.0,0.0,0.0,0.0,0.0,0.0,0.0,0.0,0.0,0.0,0.0,0.0,0.0,0.0,0.0,0.0,0.0,0.0,0.0,0.0,0.0,0.0,0.0,0.0,0.0,0.0,-4.6969,-4.722,-4.6981,-4.62,-4.5667,-4.4423,0.0,0.0,0.0,0.0,0.0,0.0,0.0,0.0,0.0,0.0,0.0,0.0,0.0,0.0,0.0,0.0,0.0,0.0,0.0,0.0,0.0,0.0,0.0,0.0,0.0,0.0,0.0,0.0,0.0,0.0,0.0,0.0,0.0,0.0,0.0,0.0,0.0,0.0,0.0,0.0,0.0,0.0,0.0,0.0,0.0,0.0,0.0,0.0,0.0,0.0,0.0,0.0,0.0,0.0,0.0,0.0,0.0,0.0,0.0,0.0,0.0,0.0,0.0,0.0,0.0,0.0,0.0,0.0,0.0,0.0,0.0,0.0,0.0,0.0,0.0,0.0,0.0,0.0,0.0,0.0,0.0,0.0,0.0,0.0,0.0,0.0,0.0,0.0,0.0,0.0,0.0,0.0,0.0,0.0,0.0,0.0,0.0,0.0,0.0,0.0,0.0,0.0,0.0,0.0,0.0,0.0,0.0,0.0,0.0,-4.7617,-4.7879,-4.7479,-4.6312,-4.5699,-4.4578,0.0,0.0,0.0,0.0,0.0,0.0,0.0,0.0,0.0,0.0,0.0,0.0,0.0,0.0,0.0,0.0,0.0,0.0,0.0,0.0,0.0,0.0,0.0,0.0,0.0,0.0,0.0,0.0,0.0,0.0,0.0,0.0,0.0,0.0,0.0,0.0,0.0,0.0,0.0,0.0,0.0,0.0,0.0,0.0,0.0,0.0,0.0,0.0,0.0,0.0,0.0,0.0,0.0,0.0,0.0,0.0,0.0,0.0,0.0,0.0,0.0,0.0,0.0,0.0,0.0,0.0,0.0,0.0,0.0,0.0,0.0,0.0,0.0,0.0,0.0,0.0,0.0,0.0,0.0,0.0,0.0,0.0,0.0,0.0,0.0,0.0,0.0,0.0,0.0,0.0,0.0,0.0,0.0,0.0,0.0,0.0,0.0,0.0,0.0,0.0,0.0,0.0,0.0,0.0,0.0,0.0,0.0,0.0,-4.7152,-4.7599,-4.8246,-4.8218,-4.7471,-4.6246,-4.4908,0.0,0.0,0.0,0.0,0.0,0.0,0.0,0.0,0.0,0.0,0.0,0.0,0.0,0.0,0.0,0.0,0.0,0.0,0.0,0.0,0.0,0.0,0.0,0.0,0.0,0.0,0.0,0.0,0.0,0.0,0.0,0.0,0.0,0.0,0.0,0.0,0.0,0.0,0.0,0.0,0.0,0.0,0.0,0.0,0.0,0.0,0.0,0.0,0.0,0.0,0.0,0.0,0.0,0.0,0.0,0.0,0.0,0.0,0.0,0.0,0.0,0.0,0.0,0.0,0.0,0.0,0.0,0.0,0.0,0.0,0.0,0.0,0.0,0.0,0.0,0.0,0.0,0.0,0.0,0.0,0.0,0.0,0.0,0.0,0.0,0.0,0.0,0.0,0.0,0.0,0.0,0.0,0.0,0.0,0.0,0.0,0.0,0.0,0.0,0.0,0.0,0.0,0.0,0.0,0.0,0.0,0.0,0.0,-4.7238,-4.7278,-4.8408,-4.9001,-4.8951,-4.7068,-4.5382,0.0,0.0,0.0,0.0,0.0,0.0,0.0,0.0,0.0,0.0,0.0,0.0,0.0,0.0,0.0,0.0,0.0,0.0,0.0,0.0,0.0,0.0,0.0,0.0,0.0,0.0,0.0,0.0,0.0,0.0,0.0,0.0,0.0,0.0,0.0,0.0,0.0,0.0,0.0,0.0,0.0,0.0,0.0,0.0,0.0,0.0,0.0,0.0,0.0,0.0,0.0,0.0,0.0,0.0,0.0,0.0,0.0,0.0,0.0,0.0,0.0,0.0,0.0,0.0,0.0,0.0,0.0,0.0,0.0,0.0,0.0,0.0,0.0,0.0,0.0,0.0,0.0,0.0,0.0,0.0,0.0,0.0,0.0,0.0,0.0,0.0,0.0,0.0,0.0,0.0,0.0,0.0,0.0,0.0,0.0,0.0,0.0,0.0,0.0,0.0,0.0,0.0,0.0,0.0,0.0,0.0,0.0,0.0,-4.742,-4.7886,-4.8619,-4.9018,-4.9001,-4.756,-4.6357,0.0,0.0,0.0,0.0,0.0,0.0,0.0,0.0,0.0,0.0,0.0,0.0,0.0,0.0,0.0,0.0,0.0,0.0,0.0,0.0,0.0,0.0,0.0,0.0,0.0,0.0,0.0,0.0,0.0,0.0,0.0,0.0,0.0,0.0,0.0,0.0,0.0,0.0,0.0,0.0,0.0,0.0,0.0,0.0,0.0,0.0,0.0,0.0,-4.2104,0.0,0.0,0.0,0.0,0.0,0.0,0.0,0.0,0.0,0.0,0.0,0.0,0.0,0.0,0.0,0.0,0.0,0.0,0.0,0.0,0.0,0.0,0.0,0.0,0.0,0.0,0.0,0.0,0.0,0.0,0.0,0.0,0.0,0.0,0.0,0.0,0.0,0.0,0.0,0.0,0.0,0.0,0.0,0.0,0.0,0.0,0.0,0.0,0.0,0.0,0.0,0.0,0.0,0.0,0.0,0.0,0.0,0.0,0.0,-4.7418,-4.8095,-4.8673,-4.9018,-4.8968,-4.7962,-4.7073,0.0,0.0,0.0,0.0,0.0,0.0,0.0,0.0,0.0,0.0,0.0,0.0,0.0,0.0,0.0,0.0,0.0,0.0,0.0,0.0,0.0,0.0,0.0,0.0,0.0,0.0,0.0,0.0,0.0,0.0,0.0,0.0,0.0,0.0,0.0,0.0,0.0,0.0,0.0,0.0,0.0,0.0,0.0,0.0,0.0,0.0,0.0,0.0,0.0,0.0,0.0,0.0,0.0,0.0,0.0,0.0,0.0,0.0,0.0,0.0,0.0,0.0,0.0,0.0,0.0,0.0,0.0,0.0,0.0,0.0,0.0,0.0,0.0,0.0,0.0,0.0,0.0,0.0,0.0,0.0,0.0,0.0,0.0,0.0,0.0,0.0,0.0,0.0,0.0,0.0,0.0,0.0,0.0,0.0,0.0,0.0,0.0,0.0,0.0,0.0,0.0,0.0,0.0,0.0,0.0,0.0,0.0,-4.6823,-4.7398,-4.8235,-4.8741,-4.9018,-4.8984,-4.8291,-4.7581,-4.6802,0.0,0.0,0.0,0.0,0.0,0.0,0.0,0.0,0.0,0.0,0.0,0.0,0.0,0.0,0.0,0.0,0.0,0.0,0.0,0.0,0.0,0.0,0.0,0.0,0.0,0.0,0.0,0.0,0.0,0.0,0.0,0.0,0.0,0.0,0.0,0.0,0.0,0.0,-4.1959,-4.2251,0.0,0.0,0.0,0.0,0.0,0.0,0.0,0.0,-4.329,0.0,0.0,0.0,0.0,0.0,0.0,0.0,0.0,0.0,0.0,0.0,0.0,0.0,0.0,0.0,0.0,0.0,0.0,0.0,0.0,0.0,0.0,0.0,0.0,0.0,0.0,0.0,0.0,0.0,0.0,0.0,0.0,0.0,0.0,0.0,0.0,0.0,0.0,0.0,0.0,0.0,0.0,0.0,0.0,0.0,0.0,0.0,0.0,0.0,0.0,0.0,0.0,0.0,0.0,0.0,0.0,-4.7039,-4.7021,-4.7623,-4.8812,-4.8934,-4.9018,-4.9001,-4.8308,-4.7564,-4.6819,0.0,0.0,0.0,0.0,0.0,0.0,0.0,0.0,0.0,0.0,0.0,0.0,0.0,0.0,0.0,0.0,0.0,0.0,0.0,0.0,0.0,0.0,0.0,0.0,0.0,0.0,0.0,0.0,0.0,0.0,0.0,0.0,0.0,0.0,0.0,0.0,0.0,0.0,0.0,-4.329,-4.3637,0.0,0.0,0.0,0.0,0.0,0.0,0.0,0.0,-4.2961,0.0,0.0,0.0,0.0,0.0,0.0,0.0,0.0,0.0,0.0,0.0,0.0,0.0,0.0,0.0,0.0,0.0,0.0,0.0,0.0,0.0,0.0,0.0,0.0,0.0,0.0,0.0,0.0,0.0,0.0,0.0,0.0,0.0,0.0,0.0,0.0,0.0,0.0,0.0,0.0,0.0,0.0,0.0,0.0,0.0,0.0,0.0,0.0,0.0,0.0,0.0,0.0,0.0,0.0,0.0,-4.7136,-4.7364,-4.7962,-4.8968,-4.9018,-4.9018,-4.8984,-4.8199,-4.7426,0.0,0.0,0.0,0.0,0.0,0.0,0.0,0.0,0.0,0.0,0.0,0.0,0.0,0.0,0.0,0.0,0.0,0.0,0.0,0.0,0.0,0.0,0.0,0.0,0.0,0.0,0.0,0.0,0.0,0.0,0.0,0.0,0.0,0.0,0.0,0.0,0.0,0.0,0.0,0.0,-4.341,-4.3527,-4.3329,0.0,0.0,0.0,0.0,0.0,0.0,-4.3076,-4.2915,0.0,0.0,0.0,0.0,0.0,0.0,0.0,0.0,0.0,0.0,0.0,0.0,0.0,0.0,0.0,0.0,0.0,0.0,0.0,0.0,0.0,0.0,0.0,0.0,0.0,0.0,0.0,0.0,0.0,0.0,0.0,0.0,0.0,0.0,0.0,0.0,0.0,0.0,0.0,0.0,0.0,0.0,0.0,0.0,0.0,0.0,0.0,0.0,0.0,0.0,0.0,0.0,0.0,0.0,0.0,-4.7351,-4.7853,-4.8562,-4.939,-4.9441,-4.9441,-4.9424,-4.8351,-4.7417,0.0,0.0,0.0,0.0,0.0,0.0,0.0,0.0,0.0,0.0,0.0,0.0,0.0,0.0,0.0,0.0,0.0,0.0,0.0,0.0,0.0,0.0,0.0,0.0,0.0,0.0,0.0,0.0,0.0,0.0,0.0,0.0,0.0,0.0,0.0,0.0,0.0,0.0,0.0,0.0,0.0,-4.3305,-4.3305,-4.3305,0.0,0.0,0.0,0.0,-4.3076,-4.3021,0.0,0.0,0.0,0.0,0.0,0.0,0.0,0.0,0.0,0.0,0.0,0.0,0.0,0.0,0.0,0.0,0.0,0.0,0.0,0.0,0.0,0.0,0.0,0.0,0.0,0.0,0.0,0.0,0.0,0.0,0.0,0.0,0.0,0.0,0.0,0.0,0.0,0.0,0.0,0.0,0.0,0.0,0.0,0.0,0.0,0.0,0.0,0.0,0.0,0.0,0.0,0.0,0.0,0.0,0.0,0.0,-4.7971,-4.8555,-4.956,-5.0879,-5.0963,-5.0931,-5.0898,-4.897,-4.7794,0.0,0.0,0.0,0.0,0.0,0.0,0.0,0.0,0.0,0.0,0.0,0.0,0.0,0.0,0.0,0.0,0.0,0.0,0.0,0.0,0.0,0.0,0.0,0.0,0.0,0.0,0.0,0.0,0.0,0.0,0.0,0.0,0.0,0.0,0.0,0.0,0.0,0.0,0.0,0.0,0.0,-4.3305,-4.3305,-4.3305,-4.3305,0.0,0.0,-4.3305,-4.325,-4.313,0.0,0.0,0.0,0.0,0.0,0.0,0.0,0.0,0.0,0.0,0.0,0.0,0.0,0.0,0.0,0.0,0.0,0.0,0.0,0.0,0.0,0.0,0.0,0.0,0.0,0.0,0.0,0.0,0.0,0.0,0.0,0.0,0.0,0.0,0.0,0.0,0.0,0.0,0.0,0.0,0.0,0.0,0.0,0.0,0.0,0.0,0.0,0.0,0.0,0.0,0.0,0.0,0.0,0.0,0.0,-4.7581,-4.8723,-4.9723,-5.0557,-5.1151,-5.1234,-5.1234,-5.1185,-4.9287,-4.8202,0.0,0.0,0.0,0.0,0.0,0.0,0.0,0.0,0.0,0.0,0.0,0.0,0.0,0.0,0.0,0.0,0.0,0.0,0.0,0.0,0.0,0.0,0.0,0.0,0.0,0.0,0.0,0.0,0.0,0.0,0.0,0.0,0.0,0.0,0.0,0.0,0.0,0.0,0.0,0.0,0.0,0.0,-4.3305,-4.3305,0.0,0.0,0.0,-4.321,-4.297,0.0,0.0,0.0,0.0,0.0,0.0,0.0,0.0,0.0,0.0,0.0,0.0,0.0,0.0,0.0,0.0,0.0,0.0,0.0,0.0,0.0,0.0,0.0,0.0,0.0,0.0,0.0,0.0,0.0,0.0,0.0,0.0,0.0,0.0,0.0,0.0,0.0,0.0,0.0,0.0,0.0,0.0,0.0,0.0,0.0,0.0,0.0,0.0,0.0,0.0,0.0,0.0,0.0,0.0,0.0,0.0,0.0,-4.9382,-5.0598,-5.1426,-5.1743,-5.1775,-5.1792,-5.1726,-5.0114,0.0,0.0,0.0,0.0,0.0,0.0,0.0,0.0,0.0,0.0,0.0,0.0,0.0,0.0,0.0,0.0,0.0,0.0,0.0,0.0,0.0,0.0,0.0,0.0,0.0,0.0,0.0,-3.9355,0.0,0.0,0.0,0.0,0.0,0.0,0.0,0.0,0.0,0.0,0.0,0.0,0.0,0.0,-4.3544,-4.3529,-4.3504,-4.3404,0.0,0.0,-4.3324,-4.2934,-4.297,-4.2975,0.0,0.0,0.0,0.0,0.0,0.0,0.0,0.0,0.0,0.0,0.0,0.0,0.0,0.0,0.0,0.0,0.0,0.0,0.0,0.0,0.0,0.0,0.0,0.0,0.0,0.0,0.0,0.0,0.0,0.0,0.0,0.0,0.0,0.0,0.0,0.0,0.0,0.0,0.0,0.0,0.0,0.0,0.0,0.0,0.0,0.0,0.0,0.0,0.0,0.0,0.0,0.0,0.0,0.0,0.0,-4.983,-5.0928,-5.21,-5.3264,-5.3348,-5.3348,-5.3331,-5.1827,-5.0486,0.0,0.0,0.0,0.0,0.0,0.0,0.0,0.0,0.0,0.0,0.0,0.0,0.0,0.0,0.0,0.0,0.0,0.0,0.0,0.0,0.0,0.0,0.0,0.0,0.0,0.0,0.0,0.0,0.0,0.0,0.0,0.0,0.0,0.0,0.0,0.0,0.0,0.0,0.0,0.0,0.0,-4.4242,-4.4257,-4.4094,-4.3805,0.0,0.0,-4.3805,-4.3354,-4.325,-4.3354,-4.3584,0.0,0.0,0.0,0.0,0.0,0.0,0.0,0.0,0.0,0.0,0.0,0.0,0.0,0.0,0.0,0.0,0.0,0.0,0.0,0.0,0.0,0.0,0.0,0.0,0.0,0.0,0.0,0.0,0.0,0.0,0.0,0.0,0.0,0.0,0.0,0.0,0.0,0.0,0.0,0.0,0.0,0.0,0.0,0.0,0.0,0.0,0.0,0.0,0.0,0.0,0.0,0.0,0.0,-4.9128,-5.0009,-5.1078,-5.1883,-5.2362,-5.2747,-5.2782,-5.2378,-5.195,-5.091,0.0,0.0,0.0,0.0,0.0,0.0,0.0,0.0,0.0,0.0,0.0,0.0,0.0,0.0,0.0,0.0,0.0,0.0,0.0,0.0,0.0,0.0,0.0,0.0,0.0,0.0,0.0,0.0,-4.1723,-4.1968,-4.2865,0.0,0.0,0.0,0.0,0.0,0.0,0.0,0.0,0.0,0.0,-4.4167,-4.3738,-4.3638,0.0,0.0,-4.3379,-4.3577,-4.3538,-4.3634,-4.3816,-4.4051,-4.3723,0.0,0.0,0.0,0.0,0.0,0.0,0.0,0.0,0.0,0.0,0.0,0.0,0.0,0.0,0.0,0.0,0.0,0.0,0.0,0.0,0.0,0.0,0.0,0.0,0.0,0.0,0.0,0.0,0.0,0.0,0.0,0.0,0.0,0.0,0.0,0.0,0.0,0.0,0.0,0.0,0.0,0.0,0.0,0.0,0.0,0.0,0.0,0.0,0.0,0.0,0.0,0.0,-4.9369,-5.0,-5.0939,-5.1529,-5.1712,-5.2291,-5.2307,-5.1733,-5.2039,-5.1276,0.0,0.0,0.0,0.0,0.0,0.0,0.0,0.0,0.0,0.0,0.0,0.0,0.0,0.0,0.0,0.0,0.0,0.0,0.0,0.0,0.0,0.0,0.0,0.0,0.0,0.0,0.0,0.0,-4.2276,-4.2611,-4.323,0.0,0.0,0.0,0.0,0.0,0.0,0.0,0.0,0.0,0.0,-4.4212,-4.3958,-4.3847,-4.3767,-4.363,-4.3794,-4.3991,-4.3983,-4.4081,-4.4261,-4.4627,0.0,0.0,0.0,0.0,0.0,0.0,0.0,0.0,0.0,0.0,0.0,0.0,0.0,0.0,0.0,0.0,0.0,0.0,0.0,0.0,0.0,0.0,0.0,0.0,0.0,0.0,0.0,0.0,0.0,0.0,-4.7951,0.0,0.0,0.0,0.0,0.0,0.0,0.0,0.0,0.0,0.0,0.0,0.0,0.0,0.0,0.0,0.0,0.0,0.0,0.0,0.0,0.0,0.0,-4.9377,-4.9776,-5.0485,-5.1102,-5.1676,-5.2291,-5.2291,-5.1712,-5.2274,-5.1768,-5.0123,0.0,0.0,0.0,0.0,0.0,0.0,0.0,0.0,0.0,0.0,0.0,0.0,0.0,0.0,0.0,0.0,0.0,0.0,0.0,0.0,0.0,0.0,0.0,0.0,0.0,0.0,-4.1474,-4.2036,-4.268,0.0,0.0,0.0,0.0,0.0,0.0,0.0,0.0,0.0,0.0,-4.5155,-4.4556,-4.514,-4.5093,-4.4882,-4.4897,-4.5248,-4.5284,-4.4665,-4.4577,-4.4826,0.0,0.0,0.0,0.0,0.0,0.0,0.0,0.0,0.0,0.0,0.0,0.0,0.0,0.0,0.0,0.0,0.0,0.0,0.0,0.0,0.0,0.0,0.0,0.0,0.0,0.0,0.0,-4.9953,-4.9581,0.0,0.0,0.0,0.0,0.0,0.0,0.0,0.0,0.0,0.0,0.0,-5.1014,-5.0769,0.0,0.0,0.0,0.0,0.0,0.0,0.0,0.0,0.0,0.0,0.0,0.0,-4.9157,-4.9278,-4.9881,-5.0292,-5.0509,-5.1102,-5.1118,-5.0509,-5.1878,-5.2049,-5.0843,0.0,0.0,0.0,0.0,0.0,0.0,0.0,0.0,0.0,0.0,0.0,0.0,0.0,0.0,0.0,0.0,0.0,0.0,0.0,0.0,0.0,0.0,0.0,0.0,0.0,-4.2671,0.0,0.0,0.0,0.0,0.0,0.0,0.0,0.0,0.0,0.0,0.0,-4.5888,-4.5663,-4.5648,-4.549,-4.5141,-4.5028,-4.4803,0.0,0.0,0.0,0.0,0.0,0.0,0.0,0.0,0.0,0.0,0.0,0.0,0.0,0.0,-4.2157,-4.1798,-4.1359,-4.0881,-4.034,0.0,0.0,0.0,0.0,0.0,0.0,0.0,0.0,0.0,0.0,0.0,0.0,0.0,0.0,-5.1307,0.0,-5.07,0.0,0.0,0.0,0.0,0.0,0.0,0.0,0.0,-5.0439,-5.1389,-5.2445,-5.2082,-5.2132,0.0,-5.1953,-5.0771,0.0,0.0,0.0,0.0,0.0,0.0,0.0,0.0,-4.905,-4.9042,-4.9592,-4.9916,-4.9916,-5.0509,-5.0509,-4.9955,-5.0914,-5.1284,-5.0863,-4.8067,-4.7004,0.0,0.0,0.0,0.0,0.0,0.0,0.0,0.0,0.0,0.0,0.0,0.0,0.0,0.0,0.0,0.0,0.0,0.0,0.0,0.0,0.0,0.0,0.0,-4.3633,0.0,0.0,0.0,0.0,0.0,0.0,0.0,0.0,0.0,-4.4632,-4.5543,-4.5945,-4.5272,-4.5348,-4.5454,-4.5413,0.0,0.0,0.0,0.0,0.0,0.0,0.0,-4.6113,-4.6081,-4.5473,-4.4766,-4.4152,-4.3757,-4.3428,-4.2915,0.0,0.0,-4.203,-4.1755,-4.1328,-4.0649,-4.0368,-4.005,-3.9175,-3.8946,-3.891,0.0,0.0,0.0,0.0,0.0,0.0,0.0,0.0,-5.378,-5.2963,0.0,-5.2945,0.0,0.0,0.0,0.0,0.0,-5.1659,0.0,0.0,-5.3934,-5.4369,-5.3373,-5.3183,-5.2966,-5.2645,-5.2043,-5.1414,-5.0726,-5.1056,0.0,0.0,0.0,0.0,0.0,0.0,-4.9141,-4.9038,-4.9608,-4.9916,-4.9916,-5.047,-5.0493,-4.9955,-4.9517,-4.9622,-5.0088,-4.8509,-4.7831,-4.8404,-4.6827,0.0,0.0,0.0,0.0,0.0,0.0,0.0,0.0,0.0,0.0,0.0,0.0,0.0,0.0,0.0,0.0,0.0,0.0,0.0,0.0,-4.3888,0.0,0.0,0.0,0.0,0.0,0.0,0.0,0.0,0.0,0.0,-4.5098,-4.565,-4.5723,-4.5011,0.0,0.0,0.0,0.0,-4.5815,-4.6961,-4.719,-4.7128,-4.6871,-4.6225,-4.5732,-4.5926,0.0,0.0,-4.3355,-4.3485,-4.3553,-4.3553,-4.3362,-4.289,-4.1693,-4.1404,-4.1031,-4.0501,-4.0372,-3.9986,-3.9133,-3.9028,-3.9061,-5.7978,0.0,0.0,0.0,0.0,-5.5356,-5.4848,-5.4292,-5.4292,-5.4045,-5.3639,-5.3488,0.0,0.0,0.0,0.0,0.0,0.0,-5.1858,-5.2857,-5.3438,-5.3987,-5.4491,-5.4229,-5.3913,-5.3574,-5.3174,-5.2874,-5.2657,-5.2774,-5.1581,-4.9078,0.0,0.0,0.0,0.0,-4.9164,-4.9379,-4.9691,-4.9916,-4.9916,-5.0073,-5.0292,-5.0531,-4.9405,-4.9259,-5.0143,-4.8363,-4.7532,-4.7806,-4.7073,0.0,0.0,0.0,0.0,0.0,0.0,0.0,0.0,0.0,0.0,0.0,0.0,0.0,0.0,0.0,0.0,0.0,0.0,0.0,-4.3305,-4.3888,-4.4317,0.0,0.0,0.0,0.0,0.0,0.0,0.0,0.0,0.0,-4.4829,-4.5361,-4.5578,0.0,0.0,-4.6203,-4.6307,-4.6074,-4.5755,-4.5574,0.0,0.0,0.0,-4.5316,-4.5442,-4.5044,-4.4076,-4.3355,-4.3321,-4.3211,-4.3115,-4.3115,-4.3067,-4.2909,-4.2562,-4.2419,-4.207,-4.128,-4.1035,-4.0689,-3.9715,-3.9512,-3.95,-5.7978,-5.7955,-5.7601,-5.6949,-5.6142,-5.5768,-5.534,-5.4904,-5.4904,-5.4757,-5.4514,-5.4317,-5.3732,-5.2864,-5.2801,0.0,0.0,0.0,-5.2983,-5.4103,-5.397,-5.4117,-5.4408,-5.4091,-5.3766,-5.345,-5.3247,-5.3127,-5.3161,-5.3062,-5.1781,-4.9423,0.0,0.0,-4.8838,-4.9114,-4.9351,-4.9495,-4.9764,-4.9916,-4.9916,-4.9916,-4.9979,-5.0143,-4.9147,-4.8852,-4.9284,-4.8034,-4.7357,-4.7456,-4.7016,-4.6516,0.0,0.0,0.0,0.0,0.0,0.0,0.0,0.0,0.0,0.0,0.0,-4.4328,0.0,0.0,0.0,0.0,-4.4107,-4.4107,-4.4122,-4.4665,0.0,0.0,0.0,0.0,0.0,0.0,0.0,-4.5375,-4.5017,-4.4695,-4.4606,-4.4901,-4.5017,-4.4629,-4.5227,-4.5752,-4.5775,0.0,-4.5236,-4.5136,-4.5115,-4.5031,-4.4765,-4.4861,-4.4751,-4.4049,-4.3519,-4.3142,-4.3115,-4.2984,-4.2887,-4.29,-4.29,-4.29,-4.29,-4.29,-4.2582,-4.1521,-4.1322,-4.0933,-3.9878,-3.9697,-3.9697,-5.7978,-5.795,-5.7388,-5.6974,-5.6652,-5.6136,-5.5764,-5.5525,-5.5525,-5.5162,-5.4644,-5.5203,-5.4845,-5.3767,-5.3767,0.0,-5.4384,-5.4517,-5.4904,-5.546,-5.5161,-5.4537,-5.3664,-5.3349,-5.2991,-5.2696,-5.2661,-5.2661,-5.2662,-5.2505,-5.173,-5.0497,-5.1208,-5.081,-4.9323,-4.9558,-4.9668,-4.9559,-4.9795,-4.9916,-4.9916,-4.9916,-4.9701,-4.9316,-4.8867,-4.8396,-4.8007,-4.7553,-4.7309,-4.7294,-4.6896,-4.6662,-4.6572,0.0,0.0,0.0,0.0,0.0,0.0,0.0,0.0,0.0,0.0,0.0,0.0,0.0,0.0,0.0,-4.5289,0.0,-4.5289,-4.5918,0.0,0.0,0.0,-4.6269,-4.621,-4.5338,-4.4727,-4.4694,0.0,0.0,-4.4364,0.0,-4.4162,-4.3614,-4.3655,-4.3972,-4.4767,-4.4526,-4.4502,-4.523,-4.5313,-4.5285,-4.5007,-4.4529,-4.3881,-4.3133,-4.29,-4.2949,-4.2949,-4.2935,-4.29,-4.29,-4.29,-4.29,-4.29,-4.29,-4.2582,-4.1558,-4.1309,-4.0971,-4.0044,-3.9749,-3.9697,-5.7978,-5.795,-5.7152,-5.6775,-5.667,-5.6247,-5.5833,-5.5525,-5.5525,-5.5402,-5.5273,-5.542,-5.5326,-5.5051,-5.5033,-5.5109,-5.5227,-5.5256,-5.5332,-5.5478,-5.5161,-5.4728,-5.4286,-5.3931,-5.3617,-5.3314,-5.328,-5.3264,-5.3298,-5.323,-5.2739,-5.1848,-5.2007,-5.1303,-4.9741,-4.9737,-4.9887,-5.014,-5.0182,-5.0089,-4.9916,-4.9916,-4.9701,-4.9316,-4.8867,-4.8412,-4.8007,-4.7568,-4.7309,-4.7309,-4.7188,-4.6974,-4.6617,-4.6066,0.0,0.0,0.0,0.0,0.0,0.0,0.0,0.0,0.0,-4.4191,-4.4594,0.0,-4.4751,0.0,-4.5289,-4.5289,-4.5289,-4.5918,0.0,0.0,-4.6733,-4.68,-4.624,-4.5506,-4.4957,-4.4741,-4.4167,-4.3804,-4.3804,-4.3804,-4.3614,-4.3163,-4.3966,-4.4587,-4.4657,-4.4407,-4.4253,-4.4398,-4.3963,-4.3551,-4.3579,-4.3345,-4.316,-4.2914,-4.29,-4.29,-4.29,-4.29,-4.29,-4.29,-4.29,-4.29,-4.29,-4.29,-4.2693,-4.2079,-4.1571,-4.1121,-4.0453,-4.0006,-3.9697,-5.7978,-5.7932,-5.7277,-5.6897,-5.6652,-5.6098,-5.5706,-5.5525,-5.5525,-5.5525,-5.5525,-5.5525,-5.5525,-5.5525,-5.5525,-5.5525,-5.5525,-5.5525,-5.5525,-5.5478,-5.5161,-5.4679,-5.4091,-5.3732,-5.3433,-5.3093,-5.3076,-5.323,-5.3501,-5.3518,-5.3127,-5.2449,-5.2414,-5.1894,-5.079,-5.0451,-5.0358,-5.0418,-5.034,-5.0184,-4.9916,-4.9916,-4.9757,-4.9437,-4.8761,-4.8296,-4.7952,-4.7194,-4.686,-4.6959,-4.6792,-4.6626,-4.6563,-4.5966,-4.5569,0.0,0.0,0.0,0.0,0.0,0.0,0.0,0.0,0.0,0.0,0.0,-4.5484,-4.6127,-4.6187,-4.6187,-4.6187,-4.6531,-4.6728,-4.677,-4.6767,-4.6535,-4.5792,-4.5081,-4.4434,-4.3946,-4.3533,-4.3293,-4.3293,-4.3293,-4.3197,-4.2935,-4.3533,-4.3994,-4.3849,-4.3717,-4.362,-4.3606,-4.3188,-4.29,-4.29,-4.29,-4.29,-4.29,-4.29,-4.29,-4.29,-4.29,-4.29,-4.29,-4.29,-4.29,-4.29,-4.29,-4.279,-4.2471,-4.1819,-4.1185,-4.0593,-4.0044,-3.9697,-5.7978,-5.7973,-5.7577,-5.7145,-5.6643,-5.5872,-5.5566,-5.5525,-5.5525,-5.5525,-5.5525,-5.5525,-5.5525,-5.5525,-5.5525,-5.5525,-5.5525,-5.5525,-5.5478,-5.5419,-5.5101,-5.4491,-5.3631,-5.3315,-5.2957,-5.2626,-5.2626,-5.2834,-5.3264,-5.3264,-5.3007,-5.2485,-5.2433,-5.2255,-5.1858,-5.1205,-5.082,-5.0628,-5.0434,-5.0168,-4.9971,-4.9971,-4.9836,-4.9566,-4.8762,-4.8211,-4.7995,-4.7037,-4.6609,-4.6714,-4.6331,-4.629,-4.6659,-4.5889,-4.5498,0.0,-4.5747,0.0,0.0,0.0,0.0,0.0,0.0,0.0,0.0,-4.6052,-4.6696,-4.7249,-4.7309,-4.7309,-4.7309,-4.7309,-4.7266,-4.7164,-4.658,-4.5882,-4.5081,-4.4387,-4.3709,-4.2984,-4.29,-4.29,-4.2935,-4.29,-4.29,-4.29,-4.2962,-4.3038,-4.2962,-4.2976,-4.299,-4.29,-4.29,-4.29,-4.29,-4.29,-4.29,-4.29,-4.29,-4.29,-4.29,-4.29,-4.29,-4.29,-4.29,-4.29,-4.29,-4.29,-4.29,-4.2728,-4.1918,-4.1172,-4.0694,-4.0147,-3.9749,-5.7978,-5.7973,-5.7577,-5.7145,-5.6652,-5.6192,-5.5822,-5.5525,-5.5525,-5.5525,-5.5525,-5.5525,-5.5525,-5.5525,-5.5525,-5.5525,-5.5525,-5.5525,-5.5341,-5.5101,-5.4762,-5.435,-5.3931,-5.3551,-5.3144,-5.2626,-5.2626,-5.2414,-5.2056,-5.2056,-5.1895,-5.1623,-5.1623,-5.1455,-5.1108,0.0,0.0,0.0,-5.0457,-5.0262,-5.0207,-5.0223,-5.001,-4.9597,-4.9271,0.0,-4.8502,-4.8255,-4.8152,-4.8163,-4.7589,0.0,0.0,0.0,0.0,0.0,0.0,0.0,0.0,0.0,0.0,0.0,-4.5335,-4.5421,-4.6067,-4.6741,-4.7189,-4.7309,-4.7309,-4.7309,-4.7309,-4.7309,-4.7077,-4.6491,-4.6314,-4.5656,-4.4401,-4.4073,-4.3709,-4.2984,-4.29,-4.29,-4.29,-4.29,-4.29,-4.29,-4.29,-4.29,-4.29,-4.29,-4.29,-4.29,-4.29,-4.29,-4.29,-4.29,-4.29,-4.29,-4.29,-4.29,-4.29,-4.29,-4.29,-4.29,-4.29,-4.29,-4.2887,-4.29,-4.2728,-4.2324,-4.172,-4.1272,-4.1121,-4.0389,-3.9697,-5.7978,0.0,-5.7577,-5.7145,0.0,-5.6274,-5.5844,-5.5525,-5.5525,-5.5525,-5.5525,-5.5525,-5.5525,-5.5525,-5.5525,-5.5525,-5.5525,-5.5525,-5.5312,-5.4992,-5.4652,-5.4175,-5.355,-5.3196,-5.2747,-5.2148,-5.2148,-5.2004,-5.1712,-5.1712,-5.1639,-5.1549,-5.1549,-5.1455,-5.1301,-5.1016,-5.0749,-5.0612,-5.0672,-5.0425,-4.9836,-4.9812,-4.9637,-4.9228,0.0,0.0,0.0,0.0,0.0,0.0,0.0,0.0,0.0,0.0,0.0,-4.6405,-4.6769,-4.6773,-4.6316,-4.6792,-4.6918,-4.6476,-4.6319,-4.6292,-4.6294,-4.692,-4.7309,-4.7309,-4.7309,-4.7309,-4.7309,-4.7309,-4.7164,-4.6756,-4.6403,-4.5747,-4.4712,-4.4214,-4.3709,-4.308,-4.29,-4.29,-4.29,-4.29,-4.29,-4.29,-4.29,-4.29,-4.29,-4.29,-4.29,-4.29,-4.29,-4.29,-4.29,-4.29,-4.29,-4.29,-4.29,-4.29,-4.29,-4.29,-4.29,-4.29,-4.29,-4.2838,-4.2568,-4.2484,-4.2324,-4.1819,-4.1285,-4.0933,-4.0883,-4.0236,-3.9697,-5.7978,-5.7973,-5.7559,-5.7102,-5.667,-5.6284,-5.5872,-5.5525,0.0,0.0,0.0,-5.5525,-5.5525,-5.5525,-5.5525,-5.5525,-5.5525,-5.5525,-5.5299,-5.49,-5.4637,-5.4028,-5.3162,-5.2904,-5.2449,-5.1895,-5.1858,-5.1822,-5.1712,-5.1602,-5.1565,-5.1529,-5.1455,-5.1397,-5.1327,-5.0989,-5.0624,-5.0262,-5.064,-5.0354,-4.9381,-4.9275,-4.9122,-4.8887,-4.8188,-4.7854,-4.8016,-4.7129,-4.6716,-4.6862,-4.6432,-4.6351,-4.6726,-4.6311,-4.6188,-4.6407,-4.683,-4.6981,-4.6756,-4.7237,-4.7467,-4.7309,-4.7309,-4.7085,-4.6531,-4.6995,-4.7309,-4.7309,-4.7309,-4.7309,-4.7309,-4.7309,-4.7164,-4.6931,-4.6403,-4.5642,-4.4805,-4.42,-4.3519,-4.3018,-4.29,-4.29,-4.29,-4.29,-4.29,-4.29,-4.29,-4.29,-4.29,-4.29,-4.29,-4.29,-4.29,-4.29,-4.29,-4.29,-4.29,-4.29,-4.29,-4.29,-4.29,-4.29,-4.29,-4.29,-4.29,-4.2728,-4.2324,-4.2338,-4.2029,-4.1421,-4.0984,-4.0593,-4.0338,-4.0006,-3.9697,-5.7978,-5.7973,-5.7577,-5.7145,-5.6652,-5.6257,-5.5844,-5.5525,-5.5525,-5.5525,-5.5525,-5.5525,-5.5525,-5.5525,-5.5525,-5.5525,-5.5525,-5.5525,-5.5179,0.0,-5.4512,-5.4127,-5.345,-5.3382,-5.3041,-5.252,-5.2485,-5.2219,-5.1712,-5.1177,-5.0951,-5.0876,-5.0409,-5.0191,-5.0175,-5.057,-5.0509,-4.9971,-4.9876,-4.9701,-4.9573,-4.9163,-4.8928,-4.8887,-4.8579,-4.8481,-4.8507,-4.8317,-4.8286,-4.8271,-4.7691,-4.7482,-4.7741,-4.713,-4.6875,-4.7137,-4.7201,-4.7261,-4.7203,-4.7307,-4.7337,-4.7309,-4.7309,-4.7264,-4.7189,-4.7264,-4.7309,-4.7309,-4.7309,-4.7309,-4.7309,-4.7309,-4.6829,-4.5673,-4.5341,-4.4712,-4.3485,-4.3197,-4.308,-4.2935,-4.29,-4.29,-4.29,-4.29,-4.29,-4.29,-4.29,-4.29,-4.29,-4.29,-4.29,-4.29,-4.29,-4.29,-4.29,-4.29,-4.29,-4.29,-4.29,-4.29,-4.29,-4.29,-4.29,-4.29,-4.29,-4.2838,-4.2741,-4.2776,-4.2275,-4.1471,-4.1121,-4.0833,-4.0083,-3.98,-3.9697,-5.7978,-5.7909,-5.7295,-5.6905,-5.6652,-5.6042,-5.5677,-5.5525,-5.5525,-5.5525,-5.5525,-5.5525,-5.5525,-5.5525,-5.5525,-5.5525,-5.5525,-5.5525,-5.5131,-5.4543,-5.4512,-5.3963,-5.3076,-5.3024,-5.2712,-5.2148,-5.2112,-5.1984,-5.1676,-5.1401,-5.129,-5.1252,-5.0685,-5.0393,-5.0393,-5.0315,-5.0175,-4.9916,-4.99,-4.9661,-4.9072,-4.8836,-4.8521,-4.8061,-4.816,-4.816,-4.7922,-4.788,-4.7864,-4.788,-4.7592,-4.7492,-4.7609,-4.731,-4.7152,-4.7279,-4.7309,-4.7309,-4.7309,-4.7309,-4.7309,-4.7309,-4.7309,-4.7309,-4.7309,-4.7309,-4.7309,-4.7309,-4.7309,-4.7309,-4.7309,-4.7309,-4.6887,-4.5837,-4.5355,-4.4666,-4.3709,-4.3115,-4.29,-4.29,-4.29,-4.29,-4.29,-4.29,-4.29,-4.29,-4.29,-4.29,-4.29,-4.29,-4.29,-4.29,-4.29,-4.29,-4.29,-4.29,-4.29,-4.29,-4.29,-4.29,-4.29,-4.29,-4.29,-4.29,-4.29,-4.279,-4.2582,-4.2484,-4.198,-4.1185,-4.0883,-4.0542,-3.989,-3.9697,-3.9697,-5.7978,-5.7909,-5.7058,-5.6617,-5.6393,-5.5746,-5.5525,-5.5525,-5.5525,-5.5525,-5.5525,-5.5525,-5.5525,-5.5525,-5.5525,-5.5525,-5.5525,-5.5525,-5.5131,-5.4526,-5.4512,-5.3915,-5.2886,-5.2817,-5.2555,-5.2164,-5.2076,-5.2076,-5.2092,-5.1967,-5.1822,-5.1639,-5.1102,-5.0816,-5.0783,-5.0214,-4.9916,-4.9916,-4.9844,-4.9461,-4.8661,-4.8412,-4.7949,-4.7381,-4.7639,-4.7666,-4.7309,-4.7309,-4.7309,-4.7309,-4.7309,-4.7309,-4.7309,-4.7309,-4.7309,-4.7309,-4.7309,-4.7309,-4.7309,-4.7309,-4.7309,-4.7309,-4.7309,-4.7309,-4.7309,-4.7309,-4.7309,-4.7309,-4.7309,-4.7266,-4.7077,-4.7033,-4.6712,-4.5837,-4.5233,-4.448,-4.3837,-4.3245,-4.29,-4.29,-4.29,-4.29,-4.29,-4.29,-4.29,-4.29,-4.29,-4.29,-4.29,-4.29,-4.29,-4.29,-4.29,-4.29,-4.29,-4.29,-4.29,-4.29,-4.29,-4.29,-4.29,-4.29,-4.29,-4.29,-4.29,-4.279,-4.2387,-4.219,-4.1782,-4.0984,-4.0694,-4.0364,-3.9839,-3.9697,-3.9697,-5.7978,-5.7862,-5.704,-5.6257,-5.5666,-5.5537,-5.5525,-5.5525,-5.5525,-5.5525,-5.5525,-5.5525,-5.5525,-5.5525,-5.5525,-5.5525,-5.5525,-5.5525,-5.5131,-5.4575,-5.4512,-5.4095,-5.345,-5.3382,-5.3382,-5.328,-5.328,-5.3212,-5.3195,-5.2747,-5.2255,-5.1676,-5.1102,-5.0838,-5.0761,-5.0214,-4.9916,-4.9876,-4.9153,-4.8687,-4.8563,-4.7837,-4.7396,-4.7309,-4.7352,-4.7337,-4.7352,-4.7309,-4.7309,-4.7309,-4.7309,-4.7309,-4.7309,-4.7309,-4.7309,-4.7309,-4.7309,-4.7309,-4.7309,-4.7309,-4.7309,-4.7309,-4.7309,-4.7309,-4.7309,-4.7309,-4.7309,-4.7309,-4.7309,-4.7033,-4.6388,-4.6343,-4.5837,-4.4587,-4.4261,-4.3804,-4.3211,-4.2935,-4.29,-4.29,-4.29,-4.29,-4.29,-4.29,-4.29,-4.29,-4.29,-4.29,-4.29,-4.29,-4.29,-4.29,-4.29,-4.29,-4.29,-4.29,-4.29,-4.29,-4.29,-4.29,-4.29,-4.29,-4.29,-4.29,-4.29,-4.2838,-4.2728,-4.2484,-4.1931,-4.1272,-4.0782,-4.03,-3.9852,-3.9697,-3.9697,-5.7978,-5.7927,-5.7058,-5.6229,-5.5566,-5.5525,-5.5525,-5.5525,-5.5525,-5.5525,-5.5525,-5.5525,-5.5525,-5.5525,-5.5525,-5.5525,-5.5525,-5.5525,-5.5252,-5.4824,-5.4606,-5.4257,-5.38,-5.3601,-5.3518,-5.3518,-5.3518,-5.3518,-5.3467,-5.323,-5.3024,-5.2712,-5.2183,-5.1696,-5.1327,-5.0739,-5.0432,-5.0393,-4.9501,-4.9163,-4.9405,-4.8604,-4.7949,-4.7752,-4.7964,-4.7964,-4.7724,-4.7482,-4.7309,-4.7309,-4.7309,-4.7309,-4.7309,-4.7309,-4.7309,-4.7309,-4.7309,-4.7309,-4.7309,-4.7309,-4.7309,-4.7309,-4.7309,-4.7309,-4.7309,-4.7309,-4.7309,-4.7309,-4.7309,-4.699,-4.6299,-4.621,-4.5597,-4.4322,-4.3993,-4.3709,-4.2984,-4.29,-4.29,-4.29,-4.29,-4.29,-4.29,-4.29,-4.29,-4.29,-4.29,-4.29,-4.29,-4.29,-4.29,-4.29,-4.29,-4.29,-4.29,-4.29,-4.29,-4.29,-4.29,-4.29,-4.29,-4.29,-4.29,-4.29,-4.29,-4.29,-4.2887,-4.2741,-4.2338,-4.1571,-4.058,-3.9942,-3.9749,-3.9697,-3.9697,-5.818,-5.7881,-5.7058,-5.6229,-5.5507,-5.5525,-5.5525,-5.5525,-5.5525,-5.5525,-5.5525,-5.5525,-5.5525,-5.5525,-5.5525,-5.5525,-5.5525,-5.5525,-5.5329,-5.4992,-5.4669,-5.4303,-5.3997,-5.3651,-5.3518,-5.3518,-5.3518,-5.3518,-5.3518,-5.3518,-5.3518,-5.3399,-5.2886,-5.2397,-5.1915,-5.1364,-5.0951,-5.0707,-4.9947,-4.9686,-4.9821,-4.9178,-4.8578,-4.8202,-4.8453,-4.8412,-4.8007,-4.7666,-4.7424,-4.7309,-4.7309,-4.7309,-4.7309,-4.7309,-4.7309,-4.7309,-4.7309,-4.7309,-4.7309,-4.7309,-4.7309,-4.7309,-4.7309,-4.7309,-4.7309,-4.7309,-4.7309,-4.7266,-4.7121,-4.6668,-4.6016,-4.5882,-4.5233,-4.3946,-4.3695,-4.3437,-4.2984,-4.29,-4.29,-4.29,-4.29,-4.29,-4.29,-4.29,-4.29,-4.29,-4.29,-4.29,-4.29,-4.29,-4.29,-4.29,-4.29,-4.29,-4.29,-4.29,-4.29,-4.29,-4.29,-4.29,-4.29,-4.29,-4.29,-4.29,-4.29,-4.2887,-4.2838,-4.279,-4.2484,-4.1484,-4.058,-4.0044,-4.0287,-3.9993,-3.9852,-5.8712,-5.7899,-5.704,-5.6229,-5.5507,-5.5525,-5.5525,-5.5525,-5.5525,-5.5525,-5.5525,-5.5525,-5.5525,-5.5525,-5.5525,-5.5525,-5.5525,-5.5525,-5.5312,-5.4992,-5.4669,-5.4303,-5.3997,-5.3668,-5.3518,-5.3518,-5.3518,-5.3518,-5.3518,-5.3518,-5.3518,-5.3467,-5.2921,-5.2626,-5.2449,-5.1931,-5.1401,-5.0935,-5.0416,-4.9924,-4.9517,-4.9356,-4.9072,-4.8661,-4.862,-4.8453,-4.8091,-4.7964,-4.7752,-4.7309,-4.7309,-4.7309,-4.7309,-4.7309,-4.7309,-4.7309,-4.7309,-4.7309,-4.7309,-4.7309,-4.7309,-4.7309,-4.7309,-4.7309,-4.7309,-4.7309,-4.7266,-4.7266,-4.6668,-4.6016,-4.5264,-4.5127,-4.4573,-4.3259,-4.2984,-4.2935,-4.2935,-4.29,-4.29,-4.29,-4.29,-4.29,-4.29,-4.29,-4.29,-4.29,-4.29,-4.29,-4.29,-4.29,-4.29,-4.29,-4.29,-4.29,-4.29,-4.29,-4.29,-4.29,-4.29,-4.29,-4.29,-4.29,-4.29,-4.29,-4.29,-4.2887,-4.279,-4.2533,-4.2079,-4.1421,-4.0933,-4.0643,-4.0769,-4.0185,-3.9993,-5.8385,-5.7134,-5.6853,-5.6229,-5.5537,-5.5525,-5.5525,-5.5525,-5.5525,-5.5525,-5.5525,-5.5525,-5.5525,-5.5525,-5.5525,-5.5525,-5.5525,-5.5525,-5.5329,-5.4992,-5.4669,-5.4321,-5.398,-5.3668,-5.3518,-5.3518,-5.3518,-5.3518,-5.3518,-5.3518,-5.3518,-5.3467,-5.3314,-5.3007,-5.2626,-5.2397,-5.2148,-5.1878,-5.1086,-5.0647,-5.0701,-5.0097,-4.9597,-4.9421,-4.9194,-4.8826,-4.8412,-4.8133,-4.781,-4.7309,-4.7309,-4.7309,-4.7309,-4.7309,-4.7309,-4.7309,-4.7309,-4.7309,-4.7309,-4.7309,-4.7309,-4.7309,-4.7309,-4.7264,-4.7309,-4.7309,-4.7121,-4.6638,-4.6388,-4.5702,-4.4712,-4.4387,-4.3965,-4.3163,-4.29,-4.29,-4.29,-4.29,-4.29,-4.29,-4.29,-4.29,-4.29,-4.29,-4.29,-4.29,-4.29,-4.29,-4.29,-4.29,-4.29,-4.29,-4.29,-4.29,-4.29,-4.29,-4.29,-4.29,-4.29,-4.29,-4.29,-4.29,-4.29,-4.29,-4.29,-4.29,-4.2838,-4.2582,-4.2079,-4.1881,-4.1385,-4.1134,-4.1272,-4.063,-4.0402,-5.822,-5.6829,-5.6696,-5.6229,-5.5554,-5.5525,-5.5525,-5.5525,-5.5525,-5.5525,-5.5525,-5.5525,-5.5525,-5.5525,-5.5525,-5.5525,-5.5525,-5.5525,-5.5389,-5.5113,-5.47,-5.4367,-5.411,-5.3718,-5.3518,-5.3518,-5.3518,-5.3518,-5.3518,-5.3518,-5.3518,-5.3518,-5.3518,-5.3314,-5.2956,-5.2886,-5.2731,-5.2255,-5.1475,-5.114,-5.1043,-5.0331,-4.9916,-4.9876,-4.9637,-4.9194,-4.8604,-4.8328,-4.7922,-4.7381,-4.7309,-4.7204,-4.701,-4.677,-4.6666,-4.6651,-4.6651,-4.6651,-4.6666,-4.6651,-4.6651,-4.6651,-4.6651,-4.6651,-4.6651,-4.6651,-4.6293,-4.5756,-4.5316,-4.4719,-4.3971,-4.3499,-4.3217,-4.2929,-4.29,-4.29,-4.29,-4.29,-4.29,-4.29,-4.29,-4.29,-4.29,-4.29,-4.29,-4.29,-4.29,-4.29,-4.29,-4.29,-4.29,-4.29,-4.29,-4.29,-4.29,-4.29,-4.29,-4.29,-4.29,-4.29,-4.29,-4.29,-4.29,-4.29,-4.29,-4.29,-4.279,-4.2582,-4.2435,-4.2275,-4.198,-4.1683,-4.1435,-4.1034,-4.0795,-5.8239,-5.6785,-5.6696,-5.6229,-5.5566,-5.5525,-5.5525,-5.5525,-5.5525,-5.5525,-5.5525,-5.5525,-5.5525,-5.5525,-5.5525,-5.5525,-5.5495,-5.5495,-5.5419,-5.5299,-5.4762,-5.448,-5.4321,-5.3751,-5.3518,-5.3518,-5.3518,-5.3518,-5.3518,-5.3518,-5.3518,-5.3518,-5.3518,-5.3467,-5.3467,-5.3365,-5.2903,-5.204,-5.1712,-5.1102,-5.0097,-4.9876,-4.9773,-4.9773,-4.9718,-4.9289,-4.8522,-4.8527,-4.8122,-4.7375,-4.7218,-4.6965,-4.6322,-4.5798,-4.5379,-4.5469,-4.5394,-4.5364,-4.5379,-4.5439,-4.5514,-4.5514,-4.5394,-4.5514,-4.5559,-4.5457,-4.5107,-4.4441,-4.3776,-4.3168,-4.2976,-4.2496,-4.2331,-4.2765,-4.29,-4.29,-4.29,-4.29,-4.29,-4.29,-4.29,-4.29,-4.29,-4.29,-4.29,-4.29,-4.29,-4.29,-4.29,-4.29,-4.29,-4.29,-4.29,-4.29,-4.29,-4.29,-4.29,-4.29,-4.29,-4.29,-4.29,-4.29,-4.29,-4.29,-4.29,-4.29,-4.29,-4.2693,-4.2631,-4.2471,-4.2275,-4.198,-4.1634,-4.1235,-4.0933,-5.8712,-5.6785,-5.6696,-5.6247,-5.5537,-5.5525,-5.5525,-5.5525,-5.5525,-5.5525,-5.5525,-5.5525,-5.5525,-5.5525,-5.5525,-5.5525,-5.5478,-5.5252,-5.504,-5.4807,-5.4606,-5.4239,-5.385,-5.3601,-5.3518,-5.3518,-5.3518,-5.3518,-5.3518,-5.3518,-5.3518,-5.3518,-5.3518,-5.3518,-5.3467,-5.3467,-5.3093,-5.2378,-5.1895,-5.1094,-4.9907,-4.9437,-4.8999,-4.8573,-4.8525,-4.8239,-4.7713,-4.8069,-4.7787,-4.6793,-4.6486,-4.609,-4.5687,-4.5424,-4.5289,-4.5289,-4.5289,-4.5289,-4.5289,-4.5259,-4.5229,-4.5274,-4.5259,-4.5289,-4.5248,-4.4855,-4.4291,-4.3618,-4.2901,-4.2325,-4.1823,-4.1521,-4.1802,-4.2765,-4.29,-4.2873,-4.29,-4.29,-4.29,-4.29,-4.29,-4.29,-4.29,-4.29,-4.29,-4.29,-4.29,-4.29,-4.29,-4.29,-4.29,-4.29,-4.29,-4.29,-4.29,-4.29,-4.29,-4.29,-4.29,-4.29,-4.29,-4.29,-4.29,-4.29,-4.29,-4.29,-4.29,-4.2887,-4.2776,-4.2533,-4.2226,-4.198,-4.1782,-4.1435,-4.1084,-5.8931,-5.6785,-5.6696,-5.6247,-5.5537,-5.5525,-5.5525,-5.5525,-5.5525,-5.5525,-5.5525,-5.5525,-5.5525,-5.5525,-5.5525,-5.5525,-5.5478,-5.5161,-5.4807,-5.4512,-5.4335,-5.4045,-5.3685,-5.3534,-5.3518,-5.3518,-5.3518,-5.3518,-5.3518,-5.3518,-5.3518,-5.3518,-5.3518,-5.3331,-5.3095,-5.301,-5.2589,-5.1564,-5.104,-5.0282,-4.9272,-4.8701,-4.8335,-4.7972,-4.7909,-4.7637,-4.7134,-4.7456,-4.7325,-4.6557,-4.5904,-4.5364,-4.4941,-4.4706,-4.4571,-4.4556,-4.4556,-4.4541,-4.4556,-4.4481,-4.4556,-4.4571,-4.4571,-4.4541,-4.4434,-4.3924,-4.3238,-4.2539,-4.1857,-4.1301,-4.0886,-4.077,-4.1245,-4.2114,-4.2412,-4.2643,-4.2806,-4.29,-4.29,-4.29,-4.29,-4.29,-4.29,-4.29,-4.29,-4.29,-4.29,-4.29,-4.29,-4.29,-4.29,-4.29,-4.29,-4.29,-4.29,-4.29,-4.29,-4.29,-4.29,-4.29,-4.29,-4.29,-4.29,-4.29,-4.29,-4.29,-4.29,-4.2887,-4.2825,-4.2484,-4.2177,-4.2079,-4.1819,-4.1372,-4.0984,-5.8869,-5.6803,-5.667,-5.6201,-5.5537,-5.5525,-5.5525,-5.5525,-5.5525,-5.5525,-5.5525,-5.5525,-5.5525,-5.5525,-5.5525,-5.5525,-5.5448,-5.5101,-5.4776,-5.4463,-5.4175,-5.3899,-5.3833,-5.3584,-5.3518,-5.3518,-5.3518,-5.3518,-5.3518,-5.3518,-5.3518,-5.3518,-5.3382,-5.3078,-5.252,-5.23,-5.1464,-5.0144,-4.97,-4.9131,-4.8056,-4.7884,-4.7751,-4.7672,-4.7609,-4.7302,-4.6776,-4.6744,-4.6635,-4.6265,-4.5379,-4.4749,-4.4233,-4.3633,-4.3439,-4.3469,-4.3334,-4.3424,-4.3364,-4.3514,-4.3484,-4.3514,-4.3514,-4.3305,-4.3404,-4.2842,-4.2154,-4.1566,-4.0771,-4.0242,-4.016,-4.0133,-4.0472,-4.1015,-4.1612,-4.2141,-4.2724,-4.2792,-4.2778,-4.286,-4.29,-4.29,-4.29,-4.29,-4.29,-4.29,-4.29,-4.29,-4.29,-4.29,-4.29,-4.29,-4.29,-4.29,-4.29,-4.29,-4.29,-4.29,-4.29,-4.29,-4.29,-4.29,-4.29,-4.29,-4.29,-4.29,-4.2887,-4.2887,-4.2679,-4.2338,-4.2128,-4.2128,-4.1769,-4.1272,-4.1034,-5.8152,-5.6714,-5.6393,-5.5957,-5.5537,-5.5525,-5.5525,-5.5525,-5.5525,-5.5525,-5.5525,-5.5525,-5.5525,-5.5525,-5.5525,-5.5525,-5.5389,-5.4917,-5.4589,-5.4416,-5.3866,-5.3668,-5.3635,-5.3568,-5.3518,-5.3518,-5.3518,-5.3518,-5.3518,-5.3518,-5.3484,-5.3484,-5.2926,-5.2536,-5.2266,-5.1742,-5.1077,-5.0222,-4.9657,-4.8855,-4.7766,-4.7273,-4.6834,-4.6392,-4.6408,-4.6313,-4.6076,-4.6076,-4.5739,-4.5141,-4.488,-4.4332,-4.3733,-4.3434,-4.3344,-4.3344,-4.3344,-4.3305,-4.329,-4.3305,-4.3305,-4.3305,-4.3305,-4.3305,-4.325,-4.2222,-4.1603,-4.1085,-4.0301,-3.9567,-3.9553,-3.9563,-3.9848,-4.0377,-4.0947,-4.1544,-4.2073,-4.2236,-4.2385,-4.2778,-4.286,-4.286,-4.2887,-4.29,-4.29,-4.29,-4.29,-4.29,-4.29,-4.29,-4.29,-4.29,-4.29,-4.29,-4.29,-4.29,-4.29,-4.29,-4.29,-4.29,-4.29,-4.29,-4.29,-4.29,-4.29,-4.29,-4.29,-4.2887,-4.2533,-4.2239,-4.2239,-4.2177,-4.1584,-4.1034,-4.1071,-5.7851,-5.6652,-5.6257,-5.5861,-5.5525,-5.5525,-5.5525,-5.5525,-5.5525,-5.5525,-5.5525,-5.5525,-5.5525,-5.5525,-5.5525,-5.5525,-5.5419,-5.4793,-5.4512,-5.4385,-5.3817,-5.3534,-5.3518,-5.3518,-5.3518,-5.3518,-5.3518,-5.3518,-5.3518,-5.3518,-5.3331,-5.2959,-5.2536,-5.2012,-5.1285,-5.0965,-5.0301,-4.951,-4.8907,-4.8127,-4.7226,-4.6653,-4.6271,-4.5871,-4.5807,-4.5807,-4.5807,-4.5823,-4.5499,-4.498,-4.4701,-4.4358,-4.3918,-4.366,-4.3621,-4.3581,-4.3581,-4.3542,-4.3329,-4.3305,-4.3305,-4.3305,-4.3305,-4.3305,-4.3076,-4.2099,-4.1296,-4.1169,-4.0055,-3.9438,-3.9305,-3.9305,-3.9468,-3.978,-4.0146,-4.0703,-4.1517,-4.1639,-4.1924,-4.2304,-4.2521,-4.2643,-4.2819,-4.2873,-4.2887,-4.29,-4.29,-4.29,-4.29,-4.29,-4.29,-4.29,-4.29,-4.29,-4.29,-4.29,-4.29,-4.29,-4.29,-4.29,-4.29,-4.29,-4.29,-4.29,-4.29,-4.29,-4.29,-4.2838,-4.2582,-4.2387,-4.2387,-4.2141,-4.1584,-4.1285,-4.1285,-5.7735,-5.667,-5.6219,-5.5833,-5.5537,-5.5525,-5.5525,-5.5525,-5.5525,-5.5525,-5.5525,-5.5525,-5.5525,-5.5525,-5.5525,-5.5478,-5.5389,-5.4762,-5.4463,-5.4192,-5.3801,-5.3518,-5.3518,-5.3518,-5.3518,-5.3518,-5.3518,-5.3518,-5.3518,-5.3518,-5.3061,-5.252,-5.2249,-5.1437,-5.0541,-5.0084,-4.9373,-4.8606,-4.7952,-4.7481,-4.6867,-4.6299,-4.5886,-4.5855,-4.5807,-4.5807,-4.5807,-4.5771,-4.5625,-4.53,-4.4889,-4.4648,-4.4534,-4.4205,-4.4026,-4.3934,-4.391,-4.3738,-4.3423,-4.3305,-4.3305,-4.3305,-4.3305,-4.3305,-4.3036,-4.2099,-4.1296,-4.1296,-4.0085,-3.9438,-3.9305,-3.9305,-3.9332,-3.9427,-3.94,-3.9875,-4.0621,-4.0987,-4.1245,-4.1802,-4.191,-4.2181,-4.2507,-4.2765,-4.2778,-4.2602,-4.2711,-4.29,-4.29,-4.29,-4.29,-4.29,-4.29,-4.29,-4.29,-4.29,-4.29,-4.29,-4.29,-4.29,-4.29,-4.29,-4.29,-4.29,-4.29,-4.29,-4.29,-4.279,-4.2631,-4.2582,-4.2582,-4.2226,-4.1819,-4.1782,-4.1782,-5.6945,-5.6625,-5.5947,-5.5596,-5.5525,-5.5525,-5.5525,-5.5525,-5.5525,-5.5525,-5.5525,-5.5525,-5.5525,-5.5525,-5.5495,-5.5371,-5.5131,-5.47,-5.4257,-5.3685,-5.3601,-5.3501,-5.3518,-5.3518,-5.3518,-5.3518,-5.3518,-5.3518,-5.3518,-5.3382,-5.3078,-5.2317,-5.1623,-5.0997,-5.0152,-4.9526,-4.9173,-4.8673,-4.7902,-4.7371,-4.7032,-4.6278,-4.5807,-4.5807,-4.5807,-4.5807,-4.5807,-4.5807,-4.5771,-4.5625,-4.53,-4.4949,-4.4723,-4.4534,-4.4358,-4.4104,-4.4026,-4.3817,-4.3423,-4.3305,-4.3305,-4.3305,-4.3305,-4.3305,-4.321,-4.2099,-4.1421,-4.1085,-4.0142,-3.9438,-3.9305,-3.9305,-3.9305,-3.9305,-3.9319,-3.9414,-3.9712,-4.0119,-4.0621,-4.111,-4.1313,-4.1381,-4.153,-4.2019,-4.2141,-4.2249,-4.248,-4.2806,-4.2846,-4.2806,-4.2846,-4.2833,-4.29,-4.29,-4.29,-4.29,-4.29,-4.29,-4.29,-4.29,-4.29,-4.29,-4.29,-4.29,-4.29,-4.29,-4.29,-4.29,-4.279,-4.279,-4.279,-4.2582,-4.2387,-4.2338,-4.2239,-5.6696,-5.6617,-5.5833,-5.5525,-5.5525,-5.5525,-5.5525,-5.5525,-5.5525,-5.5525,-5.5525,-5.5525,-5.5525,-5.5525,-5.5495,-5.5389,-5.5161,-5.4731,-5.4127,-5.3635,-5.3501,-5.3501,-5.3518,-5.3518,-5.3518,-5.3501,-5.3518,-5.3518,-5.345,-5.3078,-5.2503,-5.1792,-5.1065,-5.0304,-4.9678,-4.9204,-4.9052,-4.8784,-4.7967,-4.7404,-4.7236,-4.6369,-4.5807,-4.5807,-4.5807,-4.5807,-4.5807,-4.5807,-4.5807,-4.5771,-4.5609,-4.541,-4.5151,-4.4986,-4.4685,-4.4358,-4.4281,-4.3934,-4.3503,-4.3305,-4.3305,-4.3305,-4.3305,-4.3305,-4.313,-4.2319,-4.1686,-4.1169,-4.0431,-3.9675,-3.9349,-3.9305,-3.9305,-3.9305,-3.9305,-3.9305,-3.9346,-3.959,-3.9997,-4.0499,-4.0675,-4.0879,-4.1123,-4.1381,-4.1517,-4.1625,-4.1679,-4.1991,-4.2385,-4.2398,-4.2656,-4.2738,-4.2846,-4.29,-4.29,-4.29,-4.29,-4.29,-4.29,-4.29,-4.29,-4.29,-4.29,-4.29,-4.29,-4.29,-4.29,-4.29,-4.29,-4.2887,-4.2838,-4.2887,-4.2838,-4.2644,-4.2595,-5.6696,-5.6625,-5.5833,-5.5525,-5.5525,-5.5525,-5.5525,-5.5525,-5.5525,-5.5525,-5.5525,-5.5525,-5.5525,-5.5525,-5.5525,-5.5478,-5.5131,-5.4589,-5.3916,-5.3568,-5.3518,-5.3518,-5.3518,-5.3518,-5.3382,-5.3348,-5.323,-5.3247,-5.3044,-5.2536,-5.1775,-5.1065,-5.0473,-4.9847,-4.9204,-4.9018,-4.894,-4.8673,-4.7869,-4.7303,-4.71,-4.6314,-4.5844,-4.5807,-4.5807,-4.5807,-4.5807,-4.5807,-4.5807,-4.5807,-4.5807,-4.5807,-4.5735,-4.5484,-4.5061,-4.4663,-4.4534,-4.4112,-4.3503,-4.3305,-4.3305,-4.3305,-4.3305,-4.3305,-4.313,-4.2659,-4.2073,-4.1436,-4.076,-3.9968,-3.9438,-3.9305,-3.9305,-3.9305,-3.9305,-3.9305,-3.9305,-3.9319,-3.9617,-3.9902,-4.0065,-4.0214,-4.0513,-4.0798,-4.0892,-4.1001,-4.1069,-4.1232,-4.1639,-4.191,-4.2114,-4.2181,-4.2181,-4.2439,-4.2493,-4.2819,-4.2833,-4.2778,-4.2806,-4.2792,-4.2819,-4.29,-4.29,-4.29,-4.29,-4.29,-4.29,-4.29,-4.29,-4.29,-4.29,-4.29,-4.29,-4.29,-4.29,-5.6696,-5.6643,-5.5833,-5.5525,-5.5525,-5.5525,-5.5525,-5.5525,-5.5525,-5.5525,-5.5525,-5.5525,-5.5525,-5.5525,-5.5525,-5.5209,-5.47,-5.416,-5.3718,-5.3501,-5.3501,-5.3484,-5.3365,-5.3331,-5.3095,-5.2638,-5.2452,-5.2418,-5.2334,-5.1758,-5.1082,-5.0422,-5.0118,-4.9644,-4.9187,-4.897,-4.8798,-4.8498,-4.777,-4.727,-4.6825,-4.6207,-4.5807,-4.5807,-4.5807,-4.5807,-4.5807,-4.5807,-4.5807,-4.5807,-4.5807,-4.5807,-4.5771,-4.5698,-4.5315,-4.4836,-4.4648,-4.4305,-4.3606,-4.3384,-4.3344,-4.3305,-4.3369,-4.3384,-4.321,-4.278,-4.2441,-4.1825,-4.0972,-4.0055,-3.9394,-3.9305,-3.9305,-3.9305,-3.9305,-3.9305,-3.9305,-3.9319,-3.9332,-3.9549,-3.9549,-3.9563,-3.9916,-4.0187,-4.0296,-4.0431,-4.0567,-4.0757,-4.111,-4.1272,-4.1354,-4.1367,-4.134,-4.1693,-4.2019,-4.2466,-4.2711,-4.2602,-4.2575,-4.2561,-4.2629,-4.2833,-4.2887,-4.2724,-4.2792,-4.29,-4.29,-4.29,-4.29,-4.29,-4.29,-4.29,-4.29,-4.29,-4.29,-5.6696,-5.6617,-5.5833,-5.5525,-5.5525,-5.5525,-5.5525,-5.5525,-5.5525,-5.5525,-5.5525,-5.5525,-5.5525,-5.5525,-5.5525,-5.5148,-5.4512,-5.4224,-5.3817,-5.3601,-5.3501,-5.323,-5.2942,-5.2892,-5.2418,-5.1809,-5.1403,-5.1437,-5.1623,-5.098,-5.0456,-5.0118,-4.9763,-4.9323,-4.9086,-4.9001,-4.8861,-4.8467,-4.7836,-4.727,-4.6929,-4.6243,-4.5844,-4.5807,-4.5807,-4.5807,-4.5807,-4.5807,-4.5807,-4.5807,-4.5807,-4.5807,-4.5807,-4.5735,-4.5536,-4.5039,-4.4911,-4.4648,-4.4112,-4.3957,-4.3996,-4.3996,-4.3957,-4.3996,-4.3918,-4.3669,-4.3006,-4.2044,-4.1057,-4.0012,-3.9394,-3.9305,-3.9305,-3.9305,-3.9305,-3.9305,-3.9305,-3.9305,-3.9305,-3.9305,-3.9373,-3.9414,-3.94,-3.9604,-3.9685,-3.9848,-4.0038,-4.0296,-4.0594,-4.0648,-4.0689,-4.0892,-4.0933,-4.1164,-4.1517,-4.1883,-4.2249,-4.2236,-4.2195,-4.2195,-4.2127,-4.2181,-4.2304,-4.2317,-4.2493,-4.2656,-4.29,-4.29,-4.29,-4.29,-4.29,-4.29,-4.29,-4.29,-4.29,-5.6652,-5.651,-5.5775,-5.5525,-5.5525,-5.5525,-5.5525,-5.5525,-5.5525,-5.5525,-5.5525,-5.5525,-5.5525,-5.5495,-5.5359,-5.507,-5.4512,-5.4416,-5.3912,-5.3279,-5.3179,-5.2824,-5.2266,-5.1995,-5.1708,-5.0997,-5.0574,-5.0388,-5.0744,-5.0236,-4.9932,-4.9695,-4.9221,-4.9018,-4.9018,-4.9018,-4.8987,-4.8578,-4.7951,-4.7371,-4.6911,-4.6278,-4.5807,-4.5807,-4.5807,-4.5807,-4.5807,-4.5807,-4.5807,-4.5807,-4.5807,-4.5807,-4.5807,-4.5807,-4.5662,-4.5373,-4.5247,-4.4986,-4.4685,-4.4534,-4.4458,-4.4458,-4.4534,-4.4572,-4.4419,-4.4004,-4.3412,-4.2097,-4.0944,-4.0055,-3.9424,-3.9305,-3.9305,-3.9305,-3.9305,-3.9305,-3.9305,-3.9305,-3.9305,-3.9305,-3.9305,-3.9319,-3.9332,-3.9346,-3.9495,-3.9509,-3.9699,-3.9726,-3.9983,-4.0011,-4.0119,-4.0472,-4.0662,-4.077,-4.0987,-4.1177,-4.1476,-4.1571,-4.1571,-4.1557,-4.1435,-4.1327,-4.153,-4.1788,-4.1978,-4.2168,-4.2521,-4.2873,-4.29,-4.29,-4.29,-4.2887,-4.2887,-4.2887,-4.29,-5.6465,-5.6136,-5.5677,-5.5525,-5.5525,-5.5525,-5.5525,-5.5525,-5.5525,-5.5525,-5.5525,-5.5525,-5.5525,-5.5448,-5.5191,-5.4855,-5.4491,-5.4087,-5.3439,-5.257,-5.2435,-5.2063,-5.1405,-5.1352,-5.0913,-5.0321,-5.0084,-5.0118,-5.0084,-4.9526,-4.9204,-4.9154,-4.9154,-4.9018,-4.9018,-4.9018,-4.8736,-4.829,-4.7704,-4.6929,-4.6207,-4.588,-4.5807,-4.5807,-4.5807,-4.5807,-4.5807,-4.5807,-4.5807,-4.5807,-4.5807,-4.5807,-4.5807,-4.5807,-4.5771,-4.5609,-4.541,-4.5024,-4.4761,-4.4723,-4.4723,-4.4776,-4.4739,-4.461,-4.4518,-4.3873,-4.3096,-4.2015,-4.0944,-4.0041,-3.9513,-3.9305,-3.9305,-3.9305,-3.9305,-3.9305,-3.9305,-3.9305,-3.9305,-3.9305,-3.9305,-3.9305,-3.9319,-3.9319,-3.9319,-3.9319,-3.9319,-3.9386,-3.9441,-3.9549,-3.959,-3.9943,-4.016,-4.0268,-4.0336,-4.054,-4.0675,-4.0852,-4.0852,-4.0852,-4.0743,-4.0662,-4.0974,-4.1218,-4.1408,-4.1747,-4.2209,-4.2534,-4.2778,-4.2697,-4.2439,-4.2602,-4.2873,-4.2846,-4.2656,-5.6257,-5.607,-5.5648,-5.5525,-5.5525,-5.5525,-5.5525,-5.5525,-5.5525,-5.5525,-5.5525,-5.5525,-5.5525,-5.5401,-5.5161,-5.4595,-5.396,-5.3558,-5.2745,-5.1891,-5.1623,-5.1285,-5.0727,-5.0541,-5.0185,-4.9695,-4.9475,-4.9424,-4.934,-4.9238,-4.9018,-4.9018,-4.9018,-4.9018,-4.9018,-4.9018,-4.8704,-4.8129,-4.7388,-4.658,-4.6008,-4.5807,-4.5807,-4.5807,-4.5807,-4.5807,-4.5807,-4.5807,-4.5807,-4.5807,-4.5807,-4.5807,-4.5807,-4.5807,-4.5807,-4.5755,-4.5646,-4.5447,-4.5352,-4.5278,-4.5241,-4.5278,-4.5278,-4.5315,-4.5061,-4.4351,-4.3294,-4.2312,-4.1393,-4.0417,-3.9557,-3.9305,-3.9305,-3.9305,-3.9305,-3.9305,-3.9305,-3.9305,-3.9305,-3.9305,-3.9305,-3.9305,-3.9305,-3.9305,-3.9305,-3.9305,-3.9305,-3.9346,-3.9359,-3.9386,-3.94,-3.9427,-3.9576,-3.9685,-3.9712,-3.9821,-3.9861,-3.9983,-3.997,-3.997,-3.9983,-4.0065,-4.035,-4.054,-4.0648,-4.1123,-4.1774,-4.1964,-4.1964,-4.1924,-4.1883,-4.2032,-4.2154,-4.1951,-4.1788,-5.5947,-5.5918,-5.5637,-5.5525,-5.5525,-5.5525,-5.5525,-5.5525,-5.5525,-5.5525,-5.5525,-5.5507,-5.542,-5.5168,-5.482,-5.4166,-5.308,-5.2832,-5.1992,-5.1295,-5.0845,-5.0507,-5.0016,-4.9763,-4.956,-4.9018,-4.912,-4.9103,-4.9069,-4.9018,-4.9018,-4.9018,-4.9018,-4.9018,-4.9018,-4.894,-4.8704,-4.7885,-4.7084,-4.6404,-4.59,-4.5807,-4.5807,-4.5807,-4.5807,-4.5807,-4.5807,-4.5807,-4.5807,-4.5807,-4.5807,-4.5807,-4.5807,-4.5807,-4.5807,-4.5807,-4.5735,-4.5735,-4.5698,-4.5698,-4.5807,-4.5807,-4.5807,-4.5698,-4.5573,-4.4858,-4.3804,-4.2486,-4.1183,-4.0258,-3.9601,-3.9305,-3.9305,-3.9305,-3.9305,-3.9305,-3.9305,-3.9305,-3.9305,-3.9305,-3.9305,-3.9305,-3.9305,-3.9305,-3.9305,-3.9305,-3.9305,-3.9305,-3.9305,-3.9305,-3.9305,-3.9305,-3.9359,-3.9441,-3.9427,-3.94,-3.9332,-3.9305,-3.9305,-3.9359,-3.9522,-3.9563,-3.9699,-3.9848,-3.9997,-4.0187,-4.0635,-4.0879,-4.1137,-4.1354,-4.1476,-4.1313,-4.1259,-4.1082,-4.1096,-5.5537,-5.5537,-5.5507,-5.5525,-5.5525,-5.5525,-5.5525,-5.5525,-5.5525,-5.549,-5.5402,-5.5437,-5.5016,-5.4513,-5.4168,-5.3525,-5.2304,-5.2257,-5.1346,-5.0546,-5.0101,-4.9779,-4.9407,-4.9204,-4.9137,-4.9035,-4.9018,-4.9018,-4.9018,-4.9018,-4.9018,-4.9018,-4.9018,-4.9018,-4.894,-4.8798,-4.8339,-4.7588,-4.6825,-4.6298,-4.5936,-4.5807,-4.5807,-4.5807,-4.5807,-4.5807,-4.5807,-4.5807,-4.5807,-4.5807,-4.5807,-4.5807,-4.5807,-4.5807,-4.5807,-4.5807,-4.5807,-4.5807,-4.5807,-4.5807,-4.5807,-4.5807,-4.5807,-4.5807,-4.5735,-4.3836,-4.2767,-4.2486,-4.1225,-3.9998,-3.9513,-3.9305,-3.9305,-3.9305,-3.9305,-3.9305,-3.9305,-3.9305,-3.9305,-3.9305,-3.9305,-3.9305,-3.9305,-3.9305,-3.9305,-3.9305,-3.9305,-3.9305,-3.9305,-3.9305,-3.9305,-3.9305,-3.9305,-3.9346,-3.9332,-3.9305,-3.9305,-3.9305,-3.9305,-3.9305,-3.9359,-3.9346,-3.9386,-3.9427,-3.9617,-3.9536,-3.9576,-4.0119,-4.0608,-4.0974,-4.1042,-4.0716,-4.0648,-4.0621,-4.0716,-5.5525,-5.5525,-5.5525,-5.5525,-5.5525,-5.5525,-5.5525,-5.5525,-5.5507,-5.5209,-5.477,-5.4717,-5.4331,-5.3758,-5.3346,-5.27,-5.1627,-5.1287,-5.0455,-4.9783,-4.9357,-4.9238,-4.9018,-4.9018,-4.9018,-4.9018,-4.9018,-4.9018,-4.9018,-4.9018,-4.9018,-4.9018,-4.9018,-4.9018,-4.8909,-4.8435,-4.7803,-4.7337,-4.6598,-4.5972,-4.5916,-4.5807,-4.5807,-4.5807,-4.5807,-4.5807,-4.5807,-4.5807,-4.5807,-4.5807,-4.5807,-4.5807,-4.5807,-4.5807,-4.5807,-4.5807,-4.5807,-4.5807,-4.5807,-4.5807,-4.5807,-4.5807,-4.5807,-4.5807,-4.5771,-4.4434,-4.3633,-4.2826,-4.156,-4.0417,-3.9968,-3.9601,-3.9305,-3.9305,-3.9305,-3.9305,-3.9305,-3.9305,-3.9305,-3.9305,-3.9305,-3.9305,-3.9305,-3.9305,-3.9305,-3.9305,-3.9305,-3.9305,-3.9305,-3.9305,-3.9305,-3.9305,-3.9305,-3.9305,-3.9305,-3.9305,-3.9305,-3.9305,-3.9305,-3.9305,-3.9305,-3.9319,-3.9332,-3.9319,-3.9305,-3.9373,-3.9509,-3.9739,-4.0011,-4.0241,-4.016,-3.9916,-3.9943,-4.0119,-4.0214,-5.5367,-5.5156,-5.5156,-5.5297,-5.549,-5.5525,-5.5367,-5.5174,-5.5121,-5.4717,-5.398,-5.3945,-5.3541,-5.293,-5.2509,-5.1801,-5.0925,-5.039,-4.9797,-4.9345,-4.9069,-4.9018,-4.9018,-4.9018,-4.9018,-4.9018,-4.9018,-4.9018,-4.9018,-4.9018,-4.9018,-4.9018,-4.9018,-4.9018,-4.8767,-4.8,-4.7337,-4.6963,-4.6369,-4.5807,-4.5807,-4.5807,-4.5807,-4.5807,-4.5807,-4.5807,-4.5807,-4.5807,-4.5807,-4.5807,-4.5807,-4.5807,-4.5807,-4.5807,-4.5807,-4.5807,-4.5807,-4.5807,-4.5807,-4.5807,-4.5807,-4.5807,-4.5807,-4.5807,-4.5609,-4.5008,-4.4036,-4.3491,-4.226,-4.1239,-4.0631,-4.0099,-3.9763,-3.9763,-3.9394,-3.9305,-3.9305,-3.9305,-3.9305,-3.9305,-3.9305,-3.9305,-3.9305,-3.9305,-3.9305,-3.9305,-3.9305,-3.9305,-3.9305,-3.9305,-3.9305,-3.9305,-3.9305,-3.9305,-3.9305,-3.9305,-3.9305,-3.9305,-3.9305,-3.9305,-3.9305,-3.9305,-3.9305,-3.9305,-3.9305,-3.9305,-3.94,-3.9563,-3.9495,-3.9414,-3.9427,-3.9522,-3.9522,-3.9685,-3.9576,-5.4998,-5.4349,-5.4331,-5.4753,-5.5332,-5.5472,-5.5016,-5.4384,-5.4331,-5.391,-5.3289,-5.319,-5.2769,-5.2089,-5.1741,-5.1043,-5.0257,-4.9791,-4.9358,-4.9097,-4.9018,-4.9018,-4.9018,-4.9018,-4.9018,-4.9018,-4.9018,-4.9018,-4.9018,-4.9018,-4.9018,-4.9018,-4.9018,-4.894,-4.8909,-4.7951,-4.7168,-4.6633,-4.61,-4.588,-4.5807,-4.5807,-4.5807,-4.5807,-4.5807,-4.5807,-4.5807,-4.5807,-4.5807,-4.5807,-4.5807,-4.5807,-4.5807,-4.5807,-4.5807,-4.5807,-4.5807,-4.5807,-4.5807,-4.5807,-4.5807,-4.5807,-4.5807,-4.5807,-4.5609,-4.4918,-4.4282,-4.392,-4.2746,-4.1891,-4.1239,-4.076,-4.0503,-4.0128,-3.9807,-3.9526,-3.9513,-3.9305,-3.9305,-3.9305,-3.9305,-3.9305,-3.9305,-3.9305,-3.9305,-3.9305,-3.9305,-3.9305,-3.9305,-3.9305,-3.9305,-3.9305,-3.9305,-3.9305,-3.9305,-3.9305,-3.9305,-3.9305,-3.9305,-3.9305,-3.9305,-3.9305,-3.9305,-3.9305,-3.9305,-3.9305,-3.9305,-3.9332,-3.9305,-3.9305,-3.9305,-3.9359,-3.9319,-3.9305,-3.9305,-5.3805,-5.3559,-5.3559,-5.3717,-5.3963,-5.3963,-5.3787,-5.3594,-5.3506,-5.312,-5.2506,-5.2418,-5.1979,-5.137,-5.0945,-5.0477,-4.9982,-4.9619,-4.9307,-4.9032,-4.9018,-4.9018,-4.9018,-4.9018,-4.9018,-4.9018,-4.9018,-4.9018,-4.9018,-4.9018,-4.9018,-4.9018,-4.897,-4.8798,-4.8403,-4.7737,-4.7134,-4.6582,-4.6136,-4.5807,-4.5807,-4.5807,-4.5807,-4.5807,-4.5807,-4.5807,-4.5807,-4.5807,-4.5807,-4.5807,-4.5807,-4.5807,-4.5807,-4.5807,-4.5807,-4.5807,-4.5807,-4.5807,-4.5807,-4.5807,-4.5807,-4.5807,-4.5807,-4.5807,-4.5698,-4.5247,-4.4843,-4.4472,-4.3609,-4.2881,-4.2397,-4.174,-4.1365,-4.0873,-4.0503,-4.0142,-3.9982,-3.9513,-3.9305,-3.9305,-3.9305,-3.9305,-3.9305,-3.9305,-3.9305,-3.9305,-3.9305,-3.9305,-3.9305,-3.9305,-3.9305,-3.9305,-3.9305,-3.9305,-3.9305,-3.9305,-3.9305,-3.9305,-3.9305,-3.9305,-3.9305,-3.9305,-3.9305,-3.9305,-3.9305,-3.9305,-3.9305,-3.9305,-3.9305,-3.9305,-3.9305,-3.9305,-3.9305,-3.9305,-3.9305,-5.3043,-5.2786,-5.2786,-5.2611,-5.2534,-5.2973,-5.305,-5.2769,-5.2534,-5.2084,-5.1698,-5.1628,-5.1317,-5.0759,-5.0387,-5.0057,-4.975,-4.9441,-4.926,-4.9001,-4.9018,-4.9018,-4.9018,-4.9018,-4.9018,-4.9018,-4.9018,-4.9018,-4.9018,-4.9018,-4.9018,-4.9018,-4.897,-4.8562,-4.8065,-4.7505,-4.7014,-4.6439,-4.59,-4.5807,-4.5807,-4.5807,-4.5807,-4.5807,-4.5807,-4.5807,-4.5807,-4.5807,-4.5807,-4.5807,-4.5807,-4.5807,-4.5807,-4.5807,-4.5807,-4.5807,-4.5807,-4.5807,-4.5807,-4.5807,-4.5807,-4.5807,-4.5807,-4.5807,-4.5771,-4.552,-4.5336,-4.4971,-4.445,-4.395,-4.3309,-4.268,-4.2111,-4.1657,-4.1169,-4.0802,-4.0301,-3.9851,-3.9557,-3.9557,-3.9394,-3.9349,-3.9305,-3.9305,-3.9305,-3.9305,-3.9305,-3.9305,-3.9305,-3.9305,-3.9305,-3.9305,-3.9305,-3.9305,-3.9305,-3.9305,-3.9305,-3.9305,-3.9305,-3.9305,-3.9305,-3.9305,-3.9305,-3.9305,-3.9305,-3.9305,-3.9305,-3.9305,-3.9305,-3.9305,-3.9305,-3.9305,-3.9305,-3.9305,-3.9305,-5.2664,-5.2004,-5.1969,-5.1575,-5.1242,-5.2428,-5.2593,-5.1944,-5.1259,-5.0978,-5.0943,-5.0969,-5.078,-5.0404,-5.0057,-4.9767,-4.953,-4.9185,-4.9063,-4.9001,-4.9001,-4.9018,-4.9018,-4.9018,-4.9018,-4.9018,-4.9018,-4.9018,-4.9018,-4.9018,-4.9018,-4.897,-4.8892,-4.8339,-4.7754,-4.727,-4.6772,-4.6136,-4.588,-4.5807,-4.5807,-4.5807,-4.5807,-4.5807,-4.5807,-4.5807,-4.5807,-4.5807,-4.5807,-4.5807,-4.5807,-4.5807,-4.5807,-4.5807,-4.5807,-4.5807,-4.5807,-4.5807,-4.5807,-4.5807,-4.5807,-4.5807,-4.5807,-4.5807,-4.5771,-4.5735,-4.5573,-4.541,-4.5046,-4.461,-4.4097,-4.3482,-4.2911,-4.233,-4.1755,-4.1254,-4.0717,-4.0345,-4.0055,-3.9851,-3.9601,-3.9482,-3.9349,-3.9305,-3.9438,-3.9305,-3.9305,-3.9305,-3.9305,-3.9305,-3.9305,-3.9305,-3.9305,-3.9305,-3.9305,-3.9305,-3.9305,-3.9305,-3.9305,-3.9305,-3.9305,-3.9305,-3.9305,-3.9305,-3.9305,-3.9305,-3.9305,-3.9305,-3.9305,-3.9305,-3.9305,-3.9305,-3.9305,-3.9305,-3.9305,-5.1417,-5.1224,-5.1224,-5.1084,-5.0978,-5.1365,-5.14,-5.1171,-5.0961,-5.0891,-5.0873,-5.0655,-5.0499,-5.0359,-4.9854,-4.9637,-4.9398,-4.9185,-4.9063,-4.9018,-4.9018,-4.9018,-4.9018,-4.9018,-4.9018,-4.9018,-4.9018,-4.9018,-4.9018,-4.9018,-4.9018,-4.897,-4.8736,-4.8114,-4.7538,-4.7032,-4.6474,-4.6008,-4.5807,-4.5807,-4.5807,-4.5807,-4.5807,-4.5807,-4.5807,-4.5807,-4.5807,-4.5807,-4.5807,-4.5807,-4.5807,-4.5807,-4.5807,-4.5807,-4.5807,-4.5807,-4.5807,-4.5807,-4.5807,-4.5807,-4.5807,-4.5807,-4.5807,-4.5807,-4.5807,-4.5771,-4.5735,-4.5609,-4.5536,-4.5114,-4.4685,-4.4159,-4.3639,-4.3126,-4.2508,-4.1893,-4.1394,-4.1099,-4.0802,-4.0503,-4.0215,-3.9807,-3.9645,-3.9557,-3.9675,-3.9438,-3.9305,-3.9349,-3.9305,-3.9305,-3.9305,-3.9305,-3.9305,-3.9305,-3.9305,-3.9305,-3.9305,-3.9305,-3.9305,-3.9305,-3.9305,-3.9305,-3.9305,-3.9305,-3.9305,-3.9305,-3.9305,-3.9305,-3.9305,-3.9305,-3.9305,-3.9305,-3.9305,-3.9305,-3.9305,-5.0891,-5.0891,-5.0891,-5.0891,-5.0891,-5.0891,-5.0891,-5.0891,-5.0891,-5.0891,-5.0846,-5.0554,-5.0313,-5.0126,-4.9708,-4.9411,-4.926,-4.9124,-4.9018,-4.9018,-4.9018,-4.9018,-4.9018,-4.9018,-4.9018,-4.9018,-4.9018,-4.9018,-4.9018,-4.9018,-4.9018,-4.897,-4.8593,-4.8065,-4.7538,-4.71,-4.6545,-4.608,-4.5807,-4.5807,-4.5807,-4.5807,-4.5807,-4.5807,-4.5807,-4.5807,-4.5807,-4.5807,-4.5807,-4.5807,-4.5807,-4.5807,-4.5807,-4.5807,-4.5807,-4.5807,-4.5807,-4.5807,-4.5807,-4.5807,-4.5807,-4.5807,-4.5807,-4.5807,-4.5807,-4.5807,-4.5771,-4.5735,-4.5735,-4.5609,-4.5225,-4.4836,-4.4381,-4.3972,-4.3314,-4.2633,-4.2237,-4.1893,-4.1589,-4.1254,-4.0831,-4.0374,-4.0128,-4.0041,-3.9837,-3.9543,-3.9469,-3.9601,-3.9482,-3.9305,-3.9305,-3.9305,-3.9305,-3.9305,-3.9305,-3.9305,-3.9278,-3.9278,-3.9305,-3.9305,-3.9305,-3.9305,-3.9305,-3.9305,-3.9305,-3.9305,-3.9305,-3.9305,-3.9305,-3.9305,-3.9305,-3.9305,-3.9305,-3.9305,-3.9305,-5.0891,-5.0891,-5.0891,-5.0891,-5.0891,-5.0891,-5.0891,-5.0891,-5.0891,-5.0891,-5.0836,-5.0499,-5.0171,-4.9924,-4.956,-4.926,-4.9155,-4.9032,-4.9018,-4.9018,-4.9018,-4.9018,-4.9018,-4.9018,-4.9018,-4.9018,-4.9018,-4.9018,-4.9018,-4.9018,-4.9018,-4.9001,-4.8829,-4.8307,-4.7521,-4.7168,-4.6649,-4.5952,-4.5807,-4.5807,-4.5807,-4.5807,-4.5807,-4.5807,-4.5807,-4.5807,-4.5807,-4.5807,-4.5807,-4.5807,-4.5807,-4.5807,-4.5807,-4.5807,-4.5807,-4.5807,-4.5807,-4.5807,-4.5807,-4.5807,-4.5807,-4.5807,-4.5807,-4.5807,-4.5807,-4.5807,-4.5807,-4.5807,-4.5771,-4.5682,-4.5373,-4.5024,-4.4648,-4.4243,-4.3684,-4.3115,-4.2673,-4.236,-4.2032,-4.1728,-4.1436,-4.093,-4.0388,-4.0258,-4.0546,-3.9954,-3.9881,-4.0055,-3.9851,-3.9601,-3.9367,-3.9367,-3.9292,-3.9292,-3.9305,-3.9292,-3.9224,-3.9224,-3.9224,-3.9142,-3.9007,-3.9129,-3.9305,-3.9305,-3.9305,-3.9305,-3.9305,-3.9305,-3.9305,-3.9305,-3.9305,-3.9305,-3.9305,-3.9305,-3.9305,-5.0891,-5.0891,-5.0891,-5.0891,-5.0891,-5.0891,-5.0891,-5.0891,-5.0891,-5.0891,-5.0809,-5.0313,-4.9982,-4.9808,-4.935,-4.9094,-4.9032,-4.9018,-4.9018,-4.9018,-4.9018,-4.9018,-4.9018,-4.9018,-4.9018,-4.9018,-4.9018,-4.9018,-4.9018,-4.9018,-4.9001,-4.894,-4.8736,-4.8129,-4.7438,-4.7134,-4.6563,-4.5844,-4.5807,-4.5807,-4.5807,-4.5807,-4.5807,-4.5807,-4.5807,-4.5807,-4.5807,-4.5807,-4.5807,-4.5807,-4.5807,-4.5807,-4.5807,-4.5807,-4.5807,-4.5807,-4.5807,-4.5807,-4.5807,-4.5807,-4.5807,-4.5807,-4.5807,-4.5807,-4.5807,-4.5807,-4.5807,-4.5807,-4.5771,-4.5719,-4.5573,-4.5225,-4.4836,-4.4419,-4.4011,-4.3527,-4.305,-4.2754,-4.2456,-4.2237,-4.1949,-4.1394,-4.0816,-4.076,-4.0972,-4.1015,-4.0958,-4.0887,-4.0589,-4.0301,-3.9623,-3.9492,-3.9295,-3.9278,-3.9251,-3.9034,-3.883,-3.8898,-3.8925,-3.883,-3.8749,-3.9034,-3.9305,-3.9305,-3.9305,-3.9305,-3.9305,-3.9305,-3.9305,-3.9305,-3.9305,-3.9305,-3.9305,-3.9305,-3.9305,-5.0891,-5.0891,-5.0891,-5.0891,-5.0891,-5.0891,-5.0891,-5.0891,-5.0891,-5.0792,-5.0627,-5.0126,-4.9837,-4.9708,-4.9216,-4.9018,-4.9018,-4.9018,-4.9018,-4.9018,-4.9018,-4.9018,-4.9018,-4.9018,-4.9018,-4.9018,-4.9018,-4.9018,-4.9018,-4.9018,-4.9001,-4.897,-4.8593,-4.8162,-4.7505,-4.7032,-4.6528,-4.5844,-4.5807,-4.5807,-4.5807,-4.5807,-4.5807,-4.5807,-4.5807,-4.5807,-4.5807,-4.5807,-4.5807,-4.5807,-4.5807,-4.5807,-4.5807,-4.5807,-4.5807,-4.5807,-4.5807,-4.5807,-4.5807,-4.5807,-4.5807,-4.5807,-4.5807,-4.5807,-4.5807,-4.5807,-4.5807,-4.5807,-4.5807,-4.5735,-4.5536,-4.5241,-4.4889,-4.4511,-4.3918,-4.3369,-4.3036,-4.2754,-4.2714,-4.2795,-4.2374,-4.1742,-4.1436,-4.1893,-4.1852,-4.0887,-4.1,-4.1099,-4.0887,-4.0562,-3.9963,-3.9379,-3.9063,-3.8871,-3.8803,-3.8532,-3.819,-3.8355,-3.8559,-3.8817,-3.8925,-3.9142,-3.9305,-3.9305,-3.9305,-3.9305,-3.9305,-3.9305,-3.9305,-3.9305,-3.9305,-3.9305,-3.9305,-3.9305,-3.9305,-5.0891,-5.0891,-5.0891,-5.0891,-5.0891,-5.0891,-5.0891,-5.0891,-5.0891,-5.0682,-5.0313,-5.0028,-4.9767,-4.9488,-4.9155,-4.9063,-4.9018,-4.9018,-4.9018,-4.9018,-4.9018,-4.9018,-4.9018,-4.9018,-4.9018,-4.9018,-4.9018,-4.9018,-4.9018,-4.9018,-4.9018,-4.9018,-4.8798,-4.8467,-4.7704,-4.727,-4.6876,-4.608,-4.5807,-4.5807,-4.5807,-4.5807,-4.5807,-4.5807,-4.5807,-4.5807,-4.5807,-4.5807,-4.5807,-4.5807,-4.5807,-4.5807,-4.5807,-4.5807,-4.5807,-4.5807,-4.5807,-4.5807,-4.5807,-4.5807,-4.5807,-4.5807,-4.5807,-4.5807,-4.5807,-4.5807,-4.5807,-4.5807,-4.5807,-4.5735,-4.5552,-4.5352,-4.5002,-4.4473,-4.3879,-4.3329,-4.3036,-4.2795,-4.2955,-4.313,-4.2578,-4.1949,-4.2196,-4.2699,-4.2196,-4.1226,-4.0817,-4.0817,-4.0718,-4.0224,-3.9688,-3.8944,-3.8343,-3.824,-3.8363,-3.8014,-3.7689,-3.7786,-3.8043,-3.8613,-3.9088,-3.9224,-3.9305,-3.9305,-3.9305,-3.9305,-3.9305,-3.9305,-3.9305,-3.9305,-3.9305,-3.9305,-3.9305,-3.9305,-3.9305,-5.0891,-5.0891,-5.0891,-5.0891,-5.0891,-5.0891,-5.0891,-5.0891,-5.0891,-5.0572,-5.0114,-4.9971,-4.9767,-4.9488,-4.9155,-4.9018,-4.9018,-4.9018,-4.9018,-4.9018,-4.9018,-4.9018,-4.9018,-4.9018,-4.9018,-4.9018,-4.9018,-4.9018,-4.9018,-4.9018,-4.9018,-4.9018,-4.9018,-4.8498,-4.7605,-4.7236,-4.6894,-4.6136,-4.5807,-4.5807,-4.5807,-4.5807,-4.5807,-4.5807,-4.5807,-4.5807,-4.5807,-4.5807,-4.5807,-4.5807,-4.5807,-4.5807,-4.5807,-4.5807,-4.5807,-4.5807,-4.5807,-4.5807,-4.5807,-4.5807,-4.5807,-4.5807,-4.5807,-4.5807,-4.5807,-4.5807,-4.5807,-4.5807,-4.5807,-4.5807,-4.5662,-4.5609,-4.53,-4.4534,-4.384,-4.3488,-4.317,-4.2996,-4.2955,-4.2835,-4.2456,-4.2155,-4.2196,-4.24,-4.2237,-4.1561,-4.1478,-4.1377,-4.0767,-4.0096,-3.9508,-3.8727,-3.7951,-3.7951,-3.8172,-3.7612,-3.7296,-3.7365,-3.7636,-3.8396,-3.8952,-3.9237,-3.9305,-3.9305,-3.9305,-3.9305,-3.9305,-3.9305,-3.9305,-3.9305,-3.9305,-3.9305,-3.9305,-3.9305,-3.9305]},{"header":{"parameterUnit":"m.s-1","parameterCategory":1,"la1":31.0,"la2":29.5877,"lo1":-88.7671,"lo2":-86.6584,"dy":0.0162,"dx":0.0185,"nx":115,"ny":88,"refTime":"2023-06-08T18:00:00:Z","depth":0,"parameterNumber":3,"parameterNumberName":"V-component_of_WINDS"},"data":[0.0,0.0,0.0,0.0,0.0,0.0,0.0,0.0,0.0,0.0,0.0,0.0,0.0,0.0,0.0,0.0,0.0,0.0,0.0,0.0,0.0,0.0,0.0,0.0,0.0,0.0,0.0,0.0,0.0,0.0,0.0,0.0,0.0,0.0,0.0,0.0,0.0,0.0,0.0,0.0,0.0,0.0,0.0,0.0,0.0,0.0,0.0,0.0,0.0,0.0,0.0,0.0,0.0,0.0,0.0,0.0,0.0,0.0,0.0,0.0,0.0,0.0,0.0,0.0,0.0,0.0,0.0,0.0,0.0,0.0,0.0,0.0,0.0,0.0,0.0,0.0,0.0,0.0,0.0,0.0,0.0,0.0,0.0,0.0,0.0,0.0,0.0,0.0,0.0,0.0,0.0,0.0,0.0,0.0,0.0,0.0,0.0,0.0,0.0,0.0,0.0,0.0,0.0,0.0,0.0,0.0,0.0,0.0,0.0,0.0,0.0,0.0,0.0,0.0,0.0,0.0,0.0,0.0,0.0,0.0,0.0,0.0,0.0,0.0,0.0,0.0,0.0,0.0,0.0,0.0,0.0,0.0,0.0,0.0,0.0,0.0,0.0,0.0,0.0,0.0,0.0,0.0,0.0,0.0,0.0,0.0,0.0,0.0,0.0,0.0,0.0,0.0,0.0,0.0,0.0,0.0,0.0,0.0,0.0,0.0,0.0,0.0,0.0,0.0,0.0,0.0,0.0,0.0,0.0,0.0,0.0,0.0,0.0,0.0,0.0,0.0,0.0,0.0,0.0,0.0,0.0,0.0,0.0,0.0,0.0,0.0,0.0,0.0,0.0,0.0,0.0,0.0,0.0,0.0,0.0,0.0,0.0,0.0,0.0,0.0,0.0,0.0,0.0,0.0,0.0,0.0,0.0,0.0,0.0,0.0,0.0,0.0,0.0,0.0,0.0,0.0,0.0,0.0,0.0,0.0,0.0,0.0,0.0,0.0,0.0,0.0,0.0,0.0,0.0,0.0,0.0,0.0,0.0,0.0,0.0,0.0,0.0,0.0,0.0,0.0,0.0,0.0,0.0,0.0,0.0,0.0,0.0,0.0,0.0,0.0,0.0,0.0,0.0,0.0,0.0,0.0,0.0,0.0,0.0,0.0,0.0,0.0,0.0,0.0,0.0,0.0,0.0,0.0,0.0,0.0,0.0,0.0,0.0,0.0,0.0,0.0,0.0,0.0,0.0,0.0,0.0,0.0,0.0,0.0,0.0,0.0,0.0,0.0,0.0,0.0,0.0,0.0,0.0,0.0,0.0,0.0,0.0,0.0,0.0,0.0,0.0,0.0,0.0,0.0,0.0,0.0,0.0,0.0,0.0,0.0,0.0,0.0,0.0,0.0,0.0,0.0,0.0,0.0,0.0,0.0,0.0,0.0,0.0,0.0,0.0,0.0,0.0,0.0,0.0,0.0,0.0,0.0,0.0,0.0,0.0,0.0,0.0,0.0,0.0,0.0,0.0,0.0,0.0,0.0,0.0,0.0,0.0,0.0,0.0,0.0,0.0,0.0,0.0,0.0,0.0,0.0,0.0,0.0,0.0,0.0,0.0,0.0,0.0,0.0,0.0,0.0,0.0,0.0,0.0,0.0,0.0,0.0,0.0,0.0,0.0,0.0,0.0,0.0,0.0,0.0,0.0,0.0,0.0,0.0,0.0,0.0,0.0,0.0,0.0,0.0,0.0,0.0,0.0,0.0,0.0,0.0,0.0,0.0,0.0,0.0,0.0,0.0,0.0,0.0,0.0,0.0,0.0,0.0,0.0,0.0,0.0,0.0,0.0,0.0,0.0,0.0,0.0,0.0,0.0,0.0,0.0,0.0,0.0,0.0,0.0,0.0,0.0,0.0,0.0,0.0,0.0,0.0,0.0,0.0,0.0,0.0,0.0,0.0,0.0,0.0,0.0,0.0,0.0,0.0,0.0,0.0,0.0,0.0,0.0,0.0,0.0,0.0,0.0,0.0,0.0,0.0,0.0,0.0,0.0,0.0,0.0,0.0,0.0,0.0,0.0,0.0,0.0,0.0,0.0,0.0,0.0,0.0,0.0,0.0,0.0,0.0,0.0,0.0,0.0,0.0,0.0,0.0,0.0,0.0,0.0,0.0,0.0,0.0,0.0,0.0,0.0,0.0,0.0,0.0,0.0,0.0,0.0,0.0,0.0,0.0,0.0,0.0,0.0,0.0,0.0,0.0,0.0,0.0,0.0,0.0,0.0,0.0,0.0,0.0,0.0,0.0,0.0,0.0,0.0,0.0,0.0,0.0,0.0,0.0,0.0,0.0,0.0,0.0,0.0,0.0,0.0,0.0,0.0,0.0,0.0,0.0,0.0,0.0,0.0,0.0,0.0,0.0,0.0,0.0,0.0,0.0,0.0,0.0,0.0,0.0,0.0,0.0,0.0,0.0,0.0,0.0,0.0,0.0,0.0,0.0,0.0,0.0,0.0,0.0,0.0,0.0,0.0,0.0,0.0,0.0,0.0,0.0,0.0,0.0,0.0,0.0,0.0,0.0,0.0,0.0,0.0,0.0,0.0,0.0,0.0,0.0,0.0,0.0,0.0,0.0,0.0,0.0,0.0,0.0,0.0,0.0,0.0,0.0,0.0,0.0,0.0,0.0,0.0,0.0,0.0,0.0,0.0,0.0,0.0,0.0,0.0,0.0,0.0,0.0,0.0,0.0,0.0,0.0,0.0,0.0,0.0,0.0,0.0,0.0,0.0,0.0,0.0,0.0,0.0,0.0,0.0,0.0,0.0,0.0,0.0,0.0,0.0,0.0,0.0,0.0,0.0,0.0,0.0,0.0,0.0,0.0,0.0,0.0,0.0,0.0,0.0,0.0,0.0,0.0,0.0,0.0,0.0,0.0,0.0,0.0,0.0,0.0,0.0,0.0,0.0,0.0,0.0,0.0,0.0,0.0,0.0,0.0,0.0,0.0,0.0,0.0,0.0,0.0,0.0,0.0,0.0,0.0,0.0,0.0,0.0,0.0,0.0,0.0,0.0,0.0,0.0,0.0,0.0,0.0,0.0,0.0,0.0,0.0,0.0,0.0,0.0,0.0,0.0,0.0,0.0,0.0,0.0,0.0,0.0,0.0,0.0,0.0,0.0,0.0,0.0,0.0,0.0,0.0,0.0,0.0,0.0,0.0,0.0,0.0,0.0,0.0,0.0,0.0,0.0,0.0,0.0,0.0,0.0,0.0,0.0,0.0,0.0,0.0,0.0,0.0,0.0,0.0,0.0,0.0,0.0,0.0,0.0,0.0,0.0,0.0,0.0,0.0,0.0,0.0,0.0,0.0,0.0,0.0,0.0,0.0,0.0,0.0,0.0,0.0,0.0,0.0,0.0,0.0,0.0,0.0,0.0,0.0,0.0,0.0,0.0,0.0,0.0,0.0,0.0,0.0,0.0,0.0,0.0,0.0,0.0,0.0,0.0,0.0,0.0,0.0,0.0,0.0,0.0,0.0,0.0,0.0,0.0,0.0,0.0,0.0,0.0,0.0,0.0,0.0,0.0,0.0,0.0,0.0,0.0,0.0,0.0,0.0,0.0,0.0,0.0,0.0,0.0,0.0,0.0,0.0,0.0,0.0,0.0,0.0,0.0,0.0,0.0,0.0,0.0,0.0,0.0,0.0,0.0,0.0,0.0,0.0,0.0,0.0,0.0,0.0,0.0,0.0,0.0,0.0,0.0,0.0,0.0,0.0,0.0,0.0,0.0,0.0,0.0,0.0,0.0,0.0,0.0,0.0,0.0,0.0,0.0,0.0,0.0,0.0,0.0,0.0,0.0,0.0,0.0,0.0,0.0,0.0,0.0,0.0,0.0,0.0,0.0,0.0,0.0,0.0,0.0,0.0,0.0,0.0,0.0,0.0,0.0,0.0,0.0,0.0,0.0,0.0,0.0,0.0,0.0,0.0,0.0,0.0,0.0,0.0,0.0,0.0,0.0,0.0,0.0,0.0,0.0,0.0,0.0,0.0,0.0,0.0,0.0,0.0,0.0,0.0,0.0,0.0,0.0,0.0,0.0,0.0,0.0,0.0,0.0,0.0,0.0,0.0,0.0,0.0,0.0,0.0,0.0,0.0,0.0,0.0,0.0,0.0,0.0,0.0,0.0,0.0,0.0,0.0,0.0,0.0,0.0,0.0,0.0,0.0,0.0,0.0,0.0,0.0,0.0,0.0,0.0,0.0,0.0,0.0,0.0,0.0,0.0,0.0,0.0,0.0,-1.5404,0.0,0.0,0.0,0.0,0.0,0.0,0.0,0.0,0.0,0.0,0.0,0.0,0.0,0.0,0.0,0.0,0.0,0.0,0.0,0.0,0.0,0.0,0.0,0.0,0.0,0.0,0.0,0.0,0.0,0.0,0.0,0.0,0.0,0.0,0.0,0.0,0.0,0.0,0.0,0.0,0.0,0.0,0.0,0.0,0.0,0.0,0.0,0.0,0.0,0.0,0.0,0.0,0.0,0.0,0.0,0.0,0.0,0.0,0.0,0.0,0.0,0.0,0.0,0.0,0.0,0.0,0.0,0.0,0.0,0.0,0.0,0.0,0.0,0.0,0.0,0.0,0.0,0.0,0.0,0.0,0.0,0.0,0.0,0.0,0.0,0.0,0.0,0.0,0.0,0.0,0.0,0.0,0.0,0.0,0.0,0.0,0.0,0.0,0.0,0.0,0.0,0.0,0.0,0.0,0.0,0.0,0.0,0.0,0.0,0.0,-1.5356,-1.5499,-1.5594,-1.5718,-1.5825,0.0,0.0,0.0,0.0,0.0,0.0,0.0,0.0,0.0,0.0,0.0,0.0,0.0,0.0,0.0,0.0,0.0,0.0,0.0,0.0,0.0,0.0,0.0,0.0,0.0,0.0,0.0,0.0,0.0,0.0,0.0,0.0,0.0,0.0,0.0,0.0,0.0,0.0,0.0,0.0,0.0,0.0,0.0,0.0,0.0,0.0,0.0,0.0,0.0,0.0,0.0,0.0,0.0,0.0,0.0,0.0,0.0,0.0,0.0,0.0,0.0,0.0,0.0,0.0,0.0,0.0,0.0,0.0,0.0,0.0,0.0,0.0,0.0,0.0,0.0,0.0,0.0,0.0,0.0,0.0,0.0,0.0,0.0,0.0,0.0,0.0,0.0,0.0,0.0,0.0,0.0,0.0,0.0,0.0,0.0,0.0,0.0,0.0,0.0,0.0,0.0,0.0,0.0,0.0,0.0,0.0,0.0,0.0,0.0,0.0,0.0,0.0,-1.5784,-1.5954,-1.6152,0.0,0.0,0.0,0.0,0.0,0.0,0.0,0.0,0.0,0.0,0.0,0.0,0.0,0.0,0.0,0.0,0.0,0.0,0.0,0.0,0.0,0.0,0.0,0.0,0.0,0.0,0.0,0.0,0.0,0.0,0.0,0.0,0.0,0.0,0.0,0.0,0.0,0.0,0.0,0.0,0.0,0.0,0.0,0.0,0.0,0.0,0.0,0.0,0.0,0.0,0.0,0.0,0.0,0.0,0.0,0.0,0.0,0.0,0.0,0.0,0.0,0.0,0.0,0.0,0.0,0.0,0.0,0.0,0.0,0.0,0.0,0.0,0.0,0.0,0.0,0.0,0.0,0.0,0.0,0.0,0.0,0.0,0.0,0.0,0.0,0.0,0.0,0.0,0.0,0.0,0.0,0.0,0.0,0.0,0.0,0.0,0.0,0.0,0.0,0.0,0.0,0.0,0.0,0.0,0.0,0.0,0.0,0.0,0.0,0.0,-1.5784,-1.5778,-1.6028,0.0,-1.6022,0.0,0.0,0.0,0.0,0.0,0.0,0.0,0.0,0.0,0.0,0.0,0.0,0.0,0.0,0.0,0.0,0.0,0.0,0.0,0.0,0.0,0.0,0.0,0.0,0.0,0.0,0.0,0.0,0.0,0.0,0.0,0.0,0.0,0.0,0.0,0.0,0.0,0.0,0.0,0.0,0.0,0.0,0.0,0.0,0.0,0.0,0.0,0.0,0.0,0.0,0.0,0.0,0.0,0.0,0.0,0.0,0.0,0.0,0.0,0.0,0.0,0.0,0.0,0.0,0.0,0.0,0.0,0.0,0.0,0.0,0.0,0.0,0.0,0.0,0.0,0.0,0.0,0.0,0.0,0.0,0.0,0.0,0.0,0.0,0.0,0.0,0.0,0.0,0.0,0.0,0.0,0.0,0.0,0.0,0.0,0.0,0.0,0.0,0.0,0.0,0.0,0.0,0.0,0.0,0.0,0.0,0.0,0.0,0.0,0.0,-1.5879,-1.6028,-1.6454,-1.6532,0.0,0.0,0.0,0.0,0.0,0.0,0.0,0.0,0.0,0.0,0.0,0.0,0.0,0.0,0.0,0.0,0.0,0.0,0.0,0.0,0.0,0.0,0.0,0.0,0.0,0.0,0.0,0.0,0.0,0.0,0.0,0.0,0.0,0.0,0.0,0.0,0.0,0.0,0.0,0.0,0.0,0.0,0.0,0.0,0.0,0.0,0.0,0.0,0.0,0.0,0.0,0.0,0.0,0.0,0.0,0.0,0.0,0.0,0.0,0.0,0.0,0.0,0.0,0.0,0.0,0.0,0.0,0.0,0.0,0.0,0.0,0.0,0.0,0.0,0.0,0.0,0.0,0.0,0.0,0.0,0.0,0.0,0.0,0.0,0.0,0.0,0.0,0.0,0.0,0.0,0.0,0.0,0.0,0.0,0.0,0.0,0.0,0.0,0.0,0.0,0.0,0.0,0.0,0.0,0.0,0.0,0.0,0.0,0.0,0.0,-1.5974,-1.6163,-1.6421,-1.6876,-1.6962,-1.6605,0.0,0.0,0.0,0.0,0.0,0.0,0.0,0.0,0.0,0.0,0.0,0.0,0.0,0.0,0.0,0.0,0.0,0.0,0.0,0.0,0.0,0.0,0.0,0.0,0.0,0.0,0.0,0.0,0.0,0.0,0.0,0.0,0.0,0.0,0.0,0.0,0.0,0.0,0.0,0.0,0.0,0.0,0.0,0.0,0.0,0.0,0.0,0.0,0.0,0.0,0.0,0.0,0.0,0.0,0.0,0.0,0.0,0.0,0.0,0.0,0.0,0.0,0.0,0.0,0.0,0.0,0.0,0.0,0.0,0.0,0.0,0.0,0.0,0.0,0.0,0.0,0.0,0.0,0.0,0.0,0.0,0.0,0.0,0.0,0.0,0.0,0.0,0.0,0.0,0.0,0.0,0.0,0.0,0.0,0.0,0.0,0.0,0.0,0.0,0.0,0.0,0.0,0.0,0.0,0.0,0.0,0.0,0.0,-1.6184,-1.6461,-1.669,-1.6961,-1.7266,-1.7232,0.0,0.0,0.0,0.0,0.0,0.0,0.0,0.0,0.0,0.0,0.0,0.0,0.0,0.0,0.0,0.0,0.0,0.0,0.0,0.0,0.0,0.0,0.0,0.0,0.0,0.0,0.0,0.0,0.0,0.0,0.0,0.0,0.0,0.0,0.0,0.0,0.0,0.0,0.0,0.0,0.0,0.0,0.0,0.0,0.0,0.0,0.0,0.0,0.0,0.0,0.0,0.0,0.0,0.0,0.0,0.0,0.0,0.0,0.0,0.0,0.0,0.0,0.0,0.0,0.0,0.0,0.0,0.0,0.0,0.0,0.0,0.0,0.0,0.0,0.0,0.0,0.0,0.0,0.0,0.0,0.0,0.0,0.0,0.0,0.0,0.0,0.0,0.0,0.0,0.0,0.0,0.0,0.0,0.0,0.0,0.0,0.0,0.0,0.0,0.0,0.0,0.0,0.0,0.0,0.0,0.0,0.0,0.0,0.0,-1.6519,-1.7134,-1.7671,-1.81,-1.7826,-1.7985,0.0,0.0,0.0,0.0,0.0,0.0,0.0,0.0,0.0,0.0,0.0,0.0,0.0,0.0,0.0,0.0,0.0,0.0,0.0,0.0,0.0,0.0,0.0,0.0,0.0,0.0,0.0,0.0,0.0,0.0,0.0,0.0,0.0,0.0,0.0,0.0,0.0,0.0,0.0,0.0,0.0,0.0,0.0,0.0,0.0,0.0,0.0,0.0,0.0,0.0,0.0,0.0,0.0,0.0,0.0,0.0,0.0,0.0,0.0,0.0,0.0,0.0,0.0,0.0,0.0,0.0,0.0,0.0,0.0,0.0,0.0,0.0,0.0,0.0,0.0,0.0,0.0,0.0,0.0,0.0,0.0,0.0,0.0,0.0,0.0,0.0,0.0,0.0,0.0,0.0,0.0,0.0,0.0,0.0,0.0,0.0,0.0,0.0,0.0,0.0,0.0,0.0,0.0,0.0,0.0,0.0,0.0,0.0,0.0,-1.7351,0.0,-1.8607,-1.8996,-1.8874,-1.9086,0.0,0.0,0.0,0.0,0.0,0.0,0.0,0.0,0.0,0.0,0.0,0.0,0.0,0.0,0.0,0.0,0.0,0.0,0.0,0.0,0.0,0.0,0.0,0.0,0.0,0.0,0.0,0.0,0.0,0.0,0.0,0.0,0.0,0.0,0.0,0.0,0.0,0.0,0.0,0.0,0.0,0.0,0.0,0.0,0.0,0.0,0.0,0.0,0.0,0.0,0.0,0.0,0.0,0.0,0.0,0.0,0.0,0.0,0.0,0.0,0.0,0.0,0.0,0.0,0.0,0.0,0.0,0.0,0.0,0.0,0.0,0.0,0.0,0.0,0.0,0.0,0.0,0.0,0.0,0.0,0.0,0.0,0.0,0.0,0.0,0.0,0.0,0.0,0.0,0.0,0.0,0.0,0.0,0.0,0.0,0.0,0.0,0.0,0.0,0.0,0.0,0.0,0.0,0.0,0.0,0.0,0.0,0.0,-1.786,-1.8701,-1.9265,-1.9579,-1.9566,-2.0277,-2.0419,0.0,0.0,0.0,0.0,0.0,0.0,0.0,0.0,0.0,0.0,0.0,0.0,0.0,0.0,0.0,0.0,0.0,0.0,0.0,0.0,0.0,0.0,0.0,0.0,0.0,0.0,0.0,0.0,0.0,0.0,0.0,0.0,0.0,0.0,0.0,0.0,0.0,0.0,0.0,0.0,0.0,0.0,0.0,0.0,0.0,0.0,0.0,0.0,0.0,0.0,0.0,0.0,0.0,0.0,0.0,0.0,0.0,0.0,0.0,0.0,0.0,0.0,0.0,0.0,0.0,0.0,0.0,0.0,0.0,0.0,0.0,0.0,0.0,0.0,0.0,0.0,0.0,0.0,0.0,0.0,0.0,0.0,0.0,0.0,0.0,0.0,0.0,0.0,0.0,0.0,0.0,0.0,0.0,0.0,0.0,0.0,0.0,0.0,0.0,0.0,0.0,0.0,0.0,0.0,0.0,0.0,0.0,0.0,0.0,-1.9671,-2.0033,-2.0432,-2.0835,-2.0582,-2.0666,0.0,0.0,0.0,0.0,0.0,0.0,0.0,0.0,0.0,0.0,0.0,0.0,0.0,0.0,0.0,0.0,0.0,0.0,0.0,0.0,0.0,0.0,0.0,0.0,0.0,0.0,0.0,0.0,0.0,0.0,0.0,0.0,0.0,0.0,0.0,0.0,0.0,0.0,0.0,0.0,0.0,0.0,0.0,0.0,0.0,0.0,0.0,0.0,0.0,0.0,0.0,0.0,0.0,0.0,0.0,0.0,0.0,0.0,0.0,0.0,0.0,0.0,0.0,0.0,0.0,0.0,0.0,0.0,0.0,0.0,0.0,0.0,0.0,0.0,0.0,0.0,0.0,0.0,0.0,0.0,0.0,0.0,0.0,0.0,0.0,0.0,0.0,0.0,0.0,0.0,0.0,0.0,0.0,0.0,0.0,0.0,0.0,0.0,0.0,0.0,0.0,0.0,0.0,0.0,0.0,0.0,0.0,0.0,0.0,-2.1547,-2.1512,-2.1605,-2.1853,-2.1739,-2.1748,-2.1895,0.0,0.0,0.0,0.0,0.0,0.0,0.0,0.0,0.0,0.0,0.0,0.0,0.0,0.0,0.0,0.0,0.0,0.0,0.0,0.0,0.0,0.0,0.0,0.0,0.0,0.0,0.0,0.0,0.0,0.0,0.0,0.0,0.0,0.0,0.0,0.0,0.0,0.0,0.0,0.0,0.0,0.0,0.0,0.0,0.0,0.0,0.0,0.0,0.0,0.0,0.0,0.0,0.0,0.0,0.0,0.0,0.0,0.0,0.0,0.0,0.0,0.0,0.0,0.0,0.0,0.0,0.0,0.0,0.0,0.0,0.0,0.0,0.0,0.0,0.0,0.0,0.0,0.0,0.0,0.0,0.0,0.0,0.0,0.0,0.0,0.0,0.0,0.0,0.0,0.0,0.0,0.0,0.0,0.0,0.0,0.0,0.0,0.0,0.0,0.0,0.0,0.0,0.0,0.0,0.0,0.0,0.0,0.0,-2.4061,-2.3608,-2.3168,-2.2721,-2.3646,-2.3496,0.0,0.0,0.0,0.0,0.0,0.0,0.0,0.0,0.0,0.0,0.0,0.0,0.0,0.0,0.0,0.0,0.0,0.0,0.0,0.0,0.0,0.0,0.0,0.0,0.0,0.0,0.0,0.0,0.0,0.0,0.0,0.0,0.0,0.0,0.0,0.0,0.0,0.0,0.0,0.0,0.0,0.0,0.0,0.0,0.0,0.0,0.0,0.0,0.0,0.0,0.0,0.0,0.0,0.0,0.0,0.0,0.0,0.0,0.0,0.0,0.0,0.0,0.0,0.0,0.0,0.0,0.0,0.0,0.0,0.0,0.0,0.0,0.0,0.0,0.0,0.0,0.0,0.0,0.0,0.0,0.0,0.0,0.0,0.0,0.0,0.0,0.0,0.0,0.0,0.0,0.0,0.0,0.0,0.0,0.0,0.0,0.0,0.0,0.0,0.0,0.0,0.0,0.0,0.0,0.0,0.0,0.0,0.0,0.0,-2.4722,-2.5525,-2.5445,-2.456,-2.4299,-2.3828,0.0,0.0,0.0,0.0,0.0,0.0,0.0,0.0,0.0,0.0,0.0,0.0,0.0,0.0,0.0,0.0,0.0,0.0,0.0,0.0,0.0,0.0,0.0,0.0,0.0,0.0,0.0,0.0,0.0,0.0,0.0,0.0,0.0,0.0,0.0,0.0,0.0,0.0,0.0,0.0,0.0,0.0,0.0,0.0,0.0,0.0,0.0,0.0,0.0,0.0,0.0,0.0,0.0,0.0,0.0,0.0,0.0,0.0,0.0,0.0,0.0,0.0,0.0,0.0,0.0,0.0,0.0,0.0,0.0,0.0,0.0,0.0,0.0,0.0,0.0,0.0,0.0,0.0,0.0,0.0,0.0,0.0,0.0,0.0,0.0,0.0,0.0,0.0,0.0,0.0,0.0,0.0,0.0,0.0,0.0,0.0,0.0,0.0,0.0,0.0,0.0,0.0,0.0,0.0,0.0,0.0,0.0,0.0,-2.5269,-2.5509,-2.6812,-2.7142,-2.6517,-2.5503,-2.4573,0.0,0.0,0.0,0.0,0.0,0.0,0.0,0.0,0.0,0.0,0.0,0.0,0.0,0.0,0.0,0.0,0.0,0.0,0.0,0.0,0.0,0.0,0.0,0.0,0.0,0.0,0.0,0.0,0.0,0.0,0.0,0.0,0.0,0.0,0.0,0.0,0.0,0.0,0.0,0.0,0.0,0.0,0.0,0.0,0.0,0.0,0.0,0.0,0.0,0.0,0.0,0.0,0.0,0.0,0.0,0.0,0.0,0.0,0.0,0.0,0.0,0.0,0.0,0.0,0.0,0.0,0.0,0.0,0.0,0.0,0.0,0.0,0.0,0.0,0.0,0.0,0.0,0.0,0.0,0.0,0.0,0.0,0.0,0.0,0.0,0.0,0.0,0.0,0.0,0.0,0.0,0.0,0.0,0.0,0.0,0.0,0.0,0.0,0.0,0.0,0.0,0.0,0.0,0.0,0.0,0.0,0.0,0.0,-2.6252,-2.6342,-2.7598,-2.8291,-2.8262,-2.6833,-2.561,0.0,0.0,0.0,0.0,0.0,0.0,0.0,0.0,0.0,0.0,0.0,0.0,0.0,0.0,0.0,0.0,0.0,0.0,0.0,0.0,0.0,0.0,0.0,0.0,0.0,0.0,0.0,0.0,0.0,0.0,0.0,0.0,0.0,0.0,0.0,0.0,0.0,0.0,0.0,0.0,0.0,0.0,0.0,0.0,0.0,0.0,0.0,0.0,0.0,0.0,0.0,0.0,0.0,0.0,0.0,0.0,0.0,0.0,0.0,0.0,0.0,0.0,0.0,0.0,0.0,0.0,0.0,0.0,0.0,0.0,0.0,0.0,0.0,0.0,0.0,0.0,0.0,0.0,0.0,0.0,0.0,0.0,0.0,0.0,0.0,0.0,0.0,0.0,0.0,0.0,0.0,0.0,0.0,0.0,0.0,0.0,0.0,0.0,0.0,0.0,0.0,0.0,0.0,0.0,0.0,0.0,0.0,0.0,-2.6488,-2.7093,-2.7859,-2.8301,-2.8291,-2.7114,-2.6227,0.0,0.0,0.0,0.0,0.0,0.0,0.0,0.0,0.0,0.0,0.0,0.0,0.0,0.0,0.0,0.0,0.0,0.0,0.0,0.0,0.0,0.0,0.0,0.0,0.0,0.0,0.0,0.0,0.0,0.0,0.0,0.0,0.0,0.0,0.0,0.0,0.0,0.0,0.0,0.0,0.0,0.0,0.0,0.0,0.0,0.0,0.0,0.0,-3.3943,0.0,0.0,0.0,0.0,0.0,0.0,0.0,0.0,0.0,0.0,0.0,0.0,0.0,0.0,0.0,0.0,0.0,0.0,0.0,0.0,0.0,0.0,0.0,0.0,0.0,0.0,0.0,0.0,0.0,0.0,0.0,0.0,0.0,0.0,0.0,0.0,0.0,0.0,0.0,0.0,0.0,0.0,0.0,0.0,0.0,0.0,0.0,0.0,0.0,0.0,0.0,0.0,0.0,0.0,0.0,0.0,0.0,0.0,0.0,-2.6691,-2.728,-2.796,-2.8301,-2.8271,-2.7552,-2.6904,0.0,0.0,0.0,0.0,0.0,0.0,0.0,0.0,0.0,0.0,0.0,0.0,0.0,0.0,0.0,0.0,0.0,0.0,0.0,0.0,0.0,0.0,0.0,0.0,0.0,0.0,0.0,0.0,0.0,0.0,0.0,0.0,0.0,0.0,0.0,0.0,0.0,0.0,0.0,0.0,0.0,0.0,0.0,0.0,0.0,0.0,0.0,0.0,0.0,0.0,0.0,0.0,0.0,0.0,0.0,0.0,0.0,0.0,0.0,0.0,0.0,0.0,0.0,0.0,0.0,0.0,0.0,0.0,0.0,0.0,0.0,0.0,0.0,0.0,0.0,0.0,0.0,0.0,0.0,0.0,0.0,0.0,0.0,0.0,0.0,0.0,0.0,0.0,0.0,0.0,0.0,0.0,0.0,0.0,0.0,0.0,0.0,0.0,0.0,0.0,0.0,0.0,0.0,0.0,0.0,0.0,0.0,-2.6155,-2.6885,-2.7429,-2.7999,-2.8301,-2.8281,-2.7881,-2.7471,-2.7021,0.0,0.0,0.0,0.0,0.0,0.0,0.0,0.0,0.0,0.0,0.0,0.0,0.0,0.0,0.0,0.0,0.0,0.0,0.0,0.0,0.0,0.0,0.0,0.0,0.0,0.0,0.0,0.0,0.0,0.0,0.0,0.0,0.0,0.0,0.0,0.0,0.0,0.0,-3.2488,-3.3383,0.0,0.0,0.0,0.0,0.0,0.0,0.0,0.0,-3.6405,0.0,0.0,0.0,0.0,0.0,0.0,0.0,0.0,0.0,0.0,0.0,0.0,0.0,0.0,0.0,0.0,0.0,0.0,0.0,0.0,0.0,0.0,0.0,0.0,0.0,0.0,0.0,0.0,0.0,0.0,0.0,0.0,0.0,0.0,0.0,0.0,0.0,0.0,0.0,0.0,0.0,0.0,0.0,0.0,0.0,0.0,0.0,0.0,0.0,0.0,0.0,0.0,0.0,0.0,0.0,0.0,-2.6007,-2.6401,-2.7081,-2.8111,-2.8252,-2.8301,-2.8291,-2.7891,-2.7461,-2.7031,0.0,0.0,0.0,0.0,0.0,0.0,0.0,0.0,0.0,0.0,0.0,0.0,0.0,0.0,0.0,0.0,0.0,0.0,0.0,0.0,0.0,0.0,0.0,0.0,0.0,0.0,0.0,0.0,0.0,0.0,0.0,0.0,0.0,0.0,0.0,0.0,0.0,0.0,0.0,-3.4899,-3.5494,0.0,0.0,0.0,0.0,0.0,0.0,0.0,0.0,-3.6611,0.0,0.0,0.0,0.0,0.0,0.0,0.0,0.0,0.0,0.0,0.0,0.0,0.0,0.0,0.0,0.0,0.0,0.0,0.0,0.0,0.0,0.0,0.0,0.0,0.0,0.0,0.0,0.0,0.0,0.0,0.0,0.0,0.0,0.0,0.0,0.0,0.0,0.0,0.0,0.0,0.0,0.0,0.0,0.0,0.0,0.0,0.0,0.0,0.0,0.0,0.0,0.0,0.0,0.0,0.0,-2.6195,-2.6866,-2.7552,-2.8271,-2.8301,-2.8301,-2.8281,-2.8039,-2.7658,0.0,0.0,0.0,0.0,0.0,0.0,0.0,0.0,0.0,0.0,0.0,0.0,0.0,0.0,0.0,0.0,0.0,0.0,0.0,0.0,0.0,0.0,0.0,0.0,0.0,0.0,0.0,0.0,0.0,0.0,0.0,0.0,0.0,0.0,0.0,0.0,0.0,0.0,0.0,0.0,-3.5864,-3.6121,-3.6358,0.0,0.0,0.0,0.0,0.0,0.0,-3.6628,-3.6815,0.0,0.0,0.0,0.0,0.0,0.0,0.0,0.0,0.0,0.0,0.0,0.0,0.0,0.0,0.0,0.0,0.0,0.0,0.0,0.0,0.0,0.0,0.0,0.0,0.0,0.0,0.0,0.0,0.0,0.0,0.0,0.0,0.0,0.0,0.0,0.0,0.0,0.0,0.0,0.0,0.0,0.0,0.0,0.0,0.0,0.0,0.0,0.0,0.0,0.0,0.0,0.0,0.0,0.0,0.0,-2.645,-2.735,-2.8037,-2.8516,-2.8545,-2.8545,-2.8535,-2.8127,-2.7791,0.0,0.0,0.0,0.0,0.0,0.0,0.0,0.0,0.0,0.0,0.0,0.0,0.0,0.0,0.0,0.0,0.0,0.0,0.0,0.0,0.0,0.0,0.0,0.0,0.0,0.0,0.0,0.0,0.0,0.0,0.0,0.0,0.0,0.0,0.0,0.0,0.0,0.0,0.0,0.0,0.0,-3.6417,-3.6417,-3.6417,0.0,0.0,0.0,0.0,-3.6628,-3.6662,0.0,0.0,0.0,0.0,0.0,0.0,0.0,0.0,0.0,0.0,0.0,0.0,0.0,0.0,0.0,0.0,0.0,0.0,0.0,0.0,0.0,0.0,0.0,0.0,0.0,0.0,0.0,0.0,0.0,0.0,0.0,0.0,0.0,0.0,0.0,0.0,0.0,0.0,0.0,0.0,0.0,0.0,0.0,0.0,0.0,0.0,0.0,0.0,0.0,0.0,0.0,0.0,0.0,0.0,0.0,0.0,-2.7141,-2.7892,-2.8613,-2.9375,-2.9424,-2.9479,-2.946,-2.8344,-2.7803,0.0,0.0,0.0,0.0,0.0,0.0,0.0,0.0,0.0,0.0,0.0,0.0,0.0,0.0,0.0,0.0,0.0,0.0,0.0,0.0,0.0,0.0,0.0,0.0,0.0,0.0,0.0,0.0,0.0,0.0,0.0,0.0,0.0,0.0,0.0,0.0,0.0,0.0,0.0,0.0,0.0,-3.6417,-3.6417,-3.6417,-3.6417,0.0,0.0,-3.6417,-3.6452,-3.6593,0.0,0.0,0.0,0.0,0.0,0.0,0.0,0.0,0.0,0.0,0.0,0.0,0.0,0.0,0.0,0.0,0.0,0.0,0.0,0.0,0.0,0.0,0.0,0.0,0.0,0.0,0.0,0.0,0.0,0.0,0.0,0.0,0.0,0.0,0.0,0.0,0.0,0.0,0.0,0.0,0.0,0.0,0.0,0.0,0.0,0.0,0.0,0.0,0.0,0.0,0.0,0.0,0.0,0.0,0.0,-2.7195,-2.7637,-2.8563,-2.9189,-2.9607,-2.958,-2.958,-2.9626,-2.8888,-2.8535,0.0,0.0,0.0,0.0,0.0,0.0,0.0,0.0,0.0,0.0,0.0,0.0,0.0,0.0,0.0,0.0,0.0,0.0,0.0,0.0,0.0,0.0,0.0,0.0,0.0,0.0,0.0,0.0,0.0,0.0,0.0,0.0,0.0,0.0,0.0,0.0,0.0,0.0,0.0,0.0,0.0,0.0,-3.6417,-3.6417,0.0,0.0,0.0,-3.6499,-3.6781,0.0,0.0,0.0,0.0,0.0,0.0,0.0,0.0,0.0,0.0,0.0,0.0,0.0,0.0,0.0,0.0,0.0,0.0,0.0,0.0,0.0,0.0,0.0,0.0,0.0,0.0,0.0,0.0,0.0,0.0,0.0,0.0,0.0,0.0,0.0,0.0,0.0,0.0,0.0,0.0,0.0,0.0,0.0,0.0,0.0,0.0,0.0,0.0,0.0,0.0,0.0,0.0,0.0,0.0,0.0,0.0,0.0,-2.8296,-2.9508,-3.0066,-2.9949,-2.9893,-2.9902,-2.9939,-2.9446,0.0,0.0,0.0,0.0,0.0,0.0,0.0,0.0,0.0,0.0,0.0,0.0,0.0,0.0,0.0,0.0,0.0,0.0,0.0,0.0,0.0,0.0,0.0,0.0,0.0,0.0,0.0,-3.2154,0.0,0.0,0.0,0.0,0.0,0.0,0.0,0.0,0.0,0.0,0.0,0.0,0.0,0.0,-3.6619,-3.6606,-3.6666,-3.6663,0.0,0.0,-3.6758,-3.6913,-3.6781,-3.6866,0.0,0.0,0.0,0.0,0.0,0.0,0.0,0.0,0.0,0.0,0.0,0.0,0.0,0.0,0.0,0.0,0.0,0.0,0.0,0.0,0.0,0.0,0.0,0.0,0.0,0.0,0.0,0.0,0.0,0.0,0.0,0.0,0.0,0.0,0.0,0.0,0.0,0.0,0.0,0.0,0.0,0.0,0.0,0.0,0.0,0.0,0.0,0.0,0.0,0.0,0.0,0.0,0.0,0.0,0.0,-2.9352,-3.0752,-3.1228,-3.083,-3.0801,-3.0801,-3.0791,-2.9998,-2.9739,0.0,0.0,0.0,0.0,0.0,0.0,0.0,0.0,0.0,0.0,0.0,0.0,0.0,0.0,0.0,0.0,0.0,0.0,0.0,0.0,0.0,0.0,0.0,0.0,0.0,0.0,0.0,0.0,0.0,0.0,0.0,0.0,0.0,0.0,0.0,0.0,0.0,0.0,0.0,0.0,0.0,-3.7123,-3.7136,-3.7329,-3.7248,0.0,0.0,-3.7248,-3.654,-3.6452,-3.6783,-3.7804,0.0,0.0,0.0,0.0,0.0,0.0,0.0,0.0,0.0,0.0,0.0,0.0,0.0,0.0,0.0,0.0,0.0,0.0,0.0,0.0,0.0,0.0,0.0,0.0,0.0,0.0,0.0,0.0,0.0,0.0,0.0,0.0,0.0,0.0,0.0,0.0,0.0,0.0,0.0,0.0,0.0,0.0,0.0,0.0,0.0,0.0,0.0,0.0,0.0,0.0,0.0,0.0,0.0,-3.0401,-3.0646,-3.2072,-3.2736,-3.2561,-3.2008,-3.195,-3.2571,-3.1061,-3.0364,0.0,0.0,0.0,0.0,0.0,0.0,0.0,0.0,0.0,0.0,0.0,0.0,0.0,0.0,0.0,0.0,0.0,0.0,0.0,0.0,0.0,0.0,0.0,0.0,0.0,0.0,0.0,0.0,-3.4777,-3.5215,-3.5968,0.0,0.0,0.0,0.0,0.0,0.0,0.0,0.0,0.0,0.0,-3.7061,-3.6782,-3.6779,0.0,0.0,-3.6723,-3.6972,-3.7349,-3.7267,-3.7505,-3.8547,-3.8683,0.0,0.0,0.0,0.0,0.0,0.0,0.0,0.0,0.0,0.0,0.0,0.0,0.0,0.0,0.0,0.0,0.0,0.0,0.0,0.0,0.0,0.0,0.0,0.0,0.0,0.0,0.0,0.0,0.0,0.0,0.0,0.0,0.0,0.0,0.0,0.0,0.0,0.0,0.0,0.0,0.0,0.0,0.0,0.0,0.0,0.0,0.0,0.0,0.0,0.0,0.0,0.0,-3.1376,-3.1548,-3.3159,-3.3864,-3.3582,-3.2675,-3.2685,-3.3515,-3.1968,-3.1345,0.0,0.0,0.0,0.0,0.0,0.0,0.0,0.0,0.0,0.0,0.0,0.0,0.0,0.0,0.0,0.0,0.0,0.0,0.0,0.0,0.0,0.0,0.0,0.0,0.0,0.0,0.0,0.0,-3.5395,-3.5755,-3.6355,0.0,0.0,0.0,0.0,0.0,0.0,0.0,0.0,0.0,0.0,-3.7098,-3.6885,-3.6956,-3.7051,-3.7181,-3.7321,-3.7571,-3.8149,-3.8066,-3.8306,-3.9223,0.0,0.0,0.0,0.0,0.0,0.0,0.0,0.0,0.0,0.0,0.0,0.0,0.0,0.0,0.0,0.0,0.0,0.0,0.0,0.0,0.0,0.0,0.0,0.0,0.0,0.0,0.0,0.0,0.0,0.0,-2.1852,0.0,0.0,0.0,0.0,0.0,0.0,0.0,0.0,0.0,0.0,0.0,0.0,0.0,0.0,0.0,0.0,0.0,0.0,0.0,0.0,0.0,0.0,-3.2373,-3.1864,-3.3812,-3.4469,-3.3639,-3.2675,-3.2675,-3.3582,-3.2664,-3.2663,-3.365,0.0,0.0,0.0,0.0,0.0,0.0,0.0,0.0,0.0,0.0,0.0,0.0,0.0,0.0,0.0,0.0,0.0,0.0,0.0,0.0,0.0,0.0,0.0,0.0,0.0,0.0,-3.4801,-3.5194,-3.5734,0.0,0.0,0.0,0.0,0.0,0.0,0.0,0.0,0.0,0.0,-3.7889,-3.7387,-3.7877,-3.8174,-3.8333,-3.8345,-3.9075,-3.9451,-3.8912,-3.8835,-3.8966,0.0,0.0,0.0,0.0,0.0,0.0,0.0,0.0,0.0,0.0,0.0,0.0,0.0,0.0,0.0,0.0,0.0,0.0,0.0,0.0,0.0,0.0,0.0,0.0,0.0,0.0,0.0,-2.2306,-2.2465,0.0,0.0,0.0,0.0,0.0,0.0,0.0,0.0,0.0,0.0,0.0,-2.5365,-2.5938,0.0,0.0,0.0,0.0,0.0,0.0,0.0,0.0,0.0,0.0,0.0,0.0,-3.2846,-3.2771,-3.4765,-3.5708,-3.5367,-3.4469,-3.448,-3.5367,-3.3289,-3.2287,-3.2625,0.0,0.0,0.0,0.0,0.0,0.0,0.0,0.0,0.0,0.0,0.0,0.0,0.0,0.0,0.0,0.0,0.0,0.0,0.0,0.0,0.0,0.0,0.0,0.0,0.0,-3.5805,0.0,0.0,0.0,0.0,0.0,0.0,0.0,0.0,0.0,0.0,0.0,-3.8504,-3.8316,-3.8304,-3.834,-3.8299,-3.8372,-3.8605,0.0,0.0,0.0,0.0,0.0,0.0,0.0,0.0,0.0,0.0,0.0,0.0,0.0,0.0,-4.17,-4.0896,-4.109,-4.1511,-4.1956,0.0,0.0,0.0,0.0,0.0,0.0,0.0,0.0,0.0,0.0,0.0,0.0,0.0,0.0,-2.3247,0.0,-2.3306,0.0,0.0,0.0,0.0,0.0,0.0,0.0,0.0,-2.4942,-2.5621,-2.6434,-2.7184,-2.7719,0.0,-2.8502,-2.8579,0.0,0.0,0.0,0.0,0.0,0.0,0.0,0.0,-3.3007,-3.3157,-3.521,-3.6266,-3.6266,-3.5367,-3.5367,-3.6211,-3.4747,-3.3703,-3.3347,-3.4923,-3.5179,0.0,0.0,0.0,0.0,0.0,0.0,0.0,0.0,0.0,0.0,0.0,0.0,0.0,0.0,0.0,0.0,0.0,0.0,0.0,0.0,0.0,0.0,0.0,-3.6694,0.0,0.0,0.0,0.0,0.0,0.0,0.0,0.0,0.0,-3.8204,-3.864,-3.8982,-3.8837,-3.8989,-3.9165,-3.9303,0.0,0.0,0.0,0.0,0.0,0.0,0.0,-4.2908,-4.2971,-4.3246,-4.3419,-4.3293,-4.3471,-4.3523,-4.3291,0.0,0.0,-4.1939,-4.1937,-4.2331,-4.2929,-4.3194,-4.3516,-4.4279,-4.4507,-4.4564,0.0,0.0,0.0,0.0,0.0,0.0,0.0,0.0,-2.4651,-2.4276,0.0,-2.4548,0.0,0.0,0.0,0.0,0.0,-2.4848,0.0,0.0,-2.7038,-2.8077,-2.8379,-2.8651,-2.9133,-2.9709,-2.9145,-2.9385,-3.0404,-2.9925,0.0,0.0,0.0,0.0,0.0,0.0,-3.2835,-3.3233,-3.5222,-3.6266,-3.6266,-3.5422,-3.5356,-3.6211,-3.6808,-3.6634,-3.5893,-3.672,-3.6868,-3.5981,-3.5608,0.0,0.0,0.0,0.0,0.0,0.0,0.0,0.0,0.0,0.0,0.0,0.0,0.0,0.0,0.0,0.0,0.0,0.0,0.0,0.0,-3.6908,0.0,0.0,0.0,0.0,0.0,0.0,0.0,0.0,0.0,0.0,-3.9988,-3.9596,-3.9571,-4.0262,0.0,0.0,0.0,0.0,-4.2166,-4.3315,-4.3527,-4.3565,-4.3899,-4.3674,-4.3399,-4.3108,0.0,0.0,-4.3926,-4.377,-4.3648,-4.3648,-4.3837,-4.3645,-4.252,-4.2502,-4.2862,-4.3337,-4.3484,-4.3733,-4.4524,-4.4798,-4.4639,-2.1102,0.0,0.0,0.0,0.0,-2.3497,-2.442,-2.5678,-2.5678,-2.5561,-2.5369,-2.5369,0.0,0.0,0.0,0.0,0.0,0.0,-2.5153,-2.578,-2.628,-2.7064,-2.814,-2.8683,-2.9273,-2.9849,-3.0161,-3.045,-3.0786,-3.0623,-3.0535,-3.0593,0.0,0.0,0.0,0.0,-3.3396,-3.4255,-3.5608,-3.6266,-3.6266,-3.6048,-3.5708,-3.53,-3.6893,-3.712,-3.585,-3.787,-3.8319,-3.6932,-3.7109,0.0,0.0,0.0,0.0,0.0,0.0,0.0,0.0,0.0,0.0,0.0,0.0,0.0,0.0,0.0,0.0,0.0,0.0,0.0,-3.6417,-3.6908,-3.7186,0.0,0.0,0.0,0.0,0.0,0.0,0.0,0.0,0.0,-4.1621,-4.0486,-3.9708,0.0,0.0,-4.1419,-4.2062,-4.2404,-4.2948,-4.3819,0.0,0.0,0.0,-4.4727,-4.4655,-4.4168,-4.398,-4.3926,-4.3988,-4.4068,-4.4162,-4.4162,-4.4209,-4.4144,-4.3882,-4.3831,-4.4139,-4.4852,-4.5077,-4.5389,-4.6295,-4.6468,-4.6453,-2.1102,-2.1166,-2.2111,-2.2864,-2.3542,-2.4466,-2.5512,-2.6482,-2.6482,-2.6338,-2.6075,-2.6126,-2.5629,-2.4721,-2.4903,0.0,0.0,0.0,-2.5699,-2.6388,-2.6615,-2.75,-2.8929,-2.9599,-3.0265,-3.0781,-3.1208,-3.145,-3.1392,-3.0867,-3.1113,-3.1943,0.0,0.0,-3.2019,-3.305,-3.3918,-3.4737,-3.5742,-3.6266,-3.6266,-3.6266,-3.6145,-3.585,-3.7203,-3.7655,-3.7054,-3.8724,-3.9212,-3.8258,-3.8243,-3.7836,0.0,0.0,0.0,0.0,0.0,0.0,0.0,0.0,0.0,0.0,0.0,-3.5976,0.0,0.0,0.0,0.0,-3.701,-3.701,-3.7023,-3.7561,0.0,0.0,0.0,0.0,0.0,0.0,0.0,-4.0588,-4.1071,-4.1679,-4.2514,-4.1688,-4.1071,-4.1435,-4.2083,-4.2665,-4.3155,0.0,-4.3971,-4.4549,-4.4625,-4.4737,-4.5059,-4.5156,-4.5045,-4.4532,-4.4286,-4.419,-4.4162,-4.4317,-4.4411,-4.4425,-4.4425,-4.4425,-4.4425,-4.4425,-4.4676,-4.5611,-4.5792,-4.6165,-4.7106,-4.7309,-4.7309,-2.1102,-2.1235,-2.2606,-2.3527,-2.4193,-2.5509,-2.6449,-2.7081,-2.7081,-2.6756,-2.6211,-2.685,-2.638,-2.5143,-2.5143,0.0,-2.6525,-2.6296,-2.6482,-2.7125,-2.7728,-2.8769,-3.0207,-3.0878,-3.1526,-3.2055,-3.2113,-3.2113,-3.2035,-3.0851,-3.1313,-3.3265,-3.2232,-3.2058,-3.2879,-3.3822,-3.4456,-3.4782,-3.5765,-3.6266,-3.6266,-3.6266,-3.6526,-3.7078,-3.7667,-3.8238,-3.8788,-3.9374,-3.9697,-3.9685,-3.9003,-3.8551,-3.8476,0.0,0.0,0.0,0.0,0.0,0.0,0.0,0.0,0.0,0.0,0.0,0.0,0.0,0.0,0.0,-3.8002,0.0,-3.8002,-3.853,0.0,0.0,0.0,-4.0846,-4.0883,-4.1819,-4.2444,-4.2506,0.0,0.0,-4.2935,0.0,-4.3115,-4.3614,-4.3655,-4.3781,-4.4088,-4.4526,-4.499,-4.523,-4.5313,-4.5285,-4.5204,-4.5018,-4.4751,-4.4471,-4.4425,-4.4378,-4.4378,-4.4364,-4.4425,-4.4425,-4.4425,-4.4425,-4.4425,-4.4425,-4.4676,-4.5551,-4.5777,-4.6106,-4.699,-4.7266,-4.7309,-2.1102,-2.1235,-2.3091,-2.3953,-2.4201,-2.5264,-2.6258,-2.7081,-2.7081,-2.7021,-2.6884,-2.703,-2.691,-2.6627,-2.6619,-2.673,-2.6936,-2.6876,-2.6987,-2.7133,-2.7728,-2.8489,-2.9322,-2.9971,-3.0567,-3.117,-3.1228,-3.1218,-3.116,-3.0888,-3.1454,-3.2792,-3.2576,-3.292,-3.3867,-3.4183,-3.4688,-3.5518,-3.5795,-3.6059,-3.6266,-3.6266,-3.6526,-3.7078,-3.7667,-3.825,-3.8788,-3.9387,-3.9697,-3.9697,-3.9508,-3.9154,-3.8514,-3.7554,0.0,0.0,0.0,0.0,0.0,0.0,0.0,0.0,0.0,-3.6267,-3.6761,0.0,-3.755,0.0,-3.8002,-3.8002,-3.8002,-3.853,0.0,0.0,-3.9562,-4.0236,-4.082,-4.1607,-4.2199,-4.2457,-4.3026,-4.3423,-4.3423,-4.3423,-4.3614,-4.4115,-4.4063,-4.4103,-4.4366,-4.4699,-4.4934,-4.4983,-4.4835,-4.4609,-4.4637,-4.4592,-4.4499,-4.4439,-4.4425,-4.4425,-4.4425,-4.4425,-4.4425,-4.4425,-4.4425,-4.4425,-4.4425,-4.4425,-4.4597,-4.5124,-4.5566,-4.5972,-4.6639,-4.7048,-4.7309,-2.1102,-2.1229,-2.2779,-2.3713,-2.4193,-2.5639,-2.6571,-2.7081,-2.7081,-2.7081,-2.7081,-2.7081,-2.7081,-2.7081,-2.7081,-2.7081,-2.7081,-2.7081,-2.7081,-2.7133,-2.7728,-2.854,-2.9599,-3.0246,-3.085,-3.1508,-3.1498,-3.1276,-3.0889,-3.0898,-3.145,-3.2457,-3.2514,-3.2901,-3.3777,-3.4351,-3.4934,-3.5632,-3.5742,-3.5961,-3.6266,-3.6266,-3.6483,-3.6916,-3.7163,-3.7479,-3.7887,-3.8302,-3.8372,-3.8282,-3.8486,-3.835,-3.7622,-3.7057,-3.6491,0.0,0.0,0.0,0.0,0.0,0.0,0.0,0.0,0.0,0.0,0.0,-3.8165,-3.8705,-3.8755,-3.8755,-3.8755,-3.9044,-3.9296,-3.9245,-3.9854,-4.0542,-4.1322,-4.2039,-4.2722,-4.328,-4.3723,-4.396,-4.396,-4.396,-4.4054,-4.4364,-4.4299,-4.4283,-4.4427,-4.4584,-4.4679,-4.4665,-4.4527,-4.4425,-4.4425,-4.4425,-4.4425,-4.4425,-4.4425,-4.4425,-4.4425,-4.4425,-4.4425,-4.4425,-4.4425,-4.4425,-4.4425,-4.4425,-4.4504,-4.4755,-4.5338,-4.5941,-4.6491,-4.699,-4.7309,-2.1102,-2.1172,-2.2174,-2.3161,-2.4263,-2.6128,-2.6952,-2.7081,-2.7081,-2.7081,-2.7081,-2.7081,-2.7081,-2.7081,-2.7081,-2.7081,-2.7081,-2.7081,-2.7133,-2.7254,-2.7848,-2.8897,-3.0266,-3.0937,-3.1584,-3.217,-3.217,-3.1903,-3.1218,-3.1218,-3.1614,-3.2399,-3.2446,-3.2732,-3.3356,-3.4457,-3.5091,-3.5368,-3.5643,-3.595,-3.6223,-3.6223,-3.6375,-3.6677,-3.6578,-3.666,-3.6911,-3.6998,-3.6909,-3.6744,-3.7101,-3.7152,-3.6783,-3.6339,-3.611,0.0,-3.5983,0.0,0.0,0.0,0.0,0.0,0.0,0.0,0.0,-3.8642,-3.9182,-3.9647,-3.9697,-3.9697,-3.9697,-3.9697,-3.9749,-3.9839,-4.0491,-4.1222,-4.2039,-4.2771,-4.3519,-4.4317,-4.4425,-4.4425,-4.4364,-4.4425,-4.4425,-4.4425,-4.4392,-4.4373,-4.4392,-4.4406,-4.442,-4.4425,-4.4425,-4.4425,-4.4425,-4.4425,-4.4425,-4.4425,-4.4425,-4.4425,-4.4425,-4.4425,-4.4425,-4.4425,-4.4425,-4.4425,-4.4425,-4.4425,-4.4425,-4.4537,-4.5247,-4.5927,-4.6403,-4.6902,-4.7266,-2.1102,-2.1172,-2.2174,-2.3161,-2.4193,-2.5386,-2.6327,-2.7081,-2.7081,-2.7081,-2.7081,-2.7081,-2.7081,-2.7081,-2.7081,-2.7081,-2.7081,-2.7081,-2.7366,-2.7848,-2.8507,-2.9203,-2.9971,-3.0684,-3.1383,-3.217,-3.217,-3.2514,-3.3084,-3.3084,-3.33,-3.3685,-3.3685,-3.3976,-3.4635,0.0,0.0,0.0,-3.5577,-3.5852,-3.5895,-3.5906,-3.6168,-3.67,-3.6876,0.0,-3.7724,-3.7786,-3.779,-3.7714,-3.7432,0.0,0.0,0.0,0.0,0.0,0.0,0.0,0.0,0.0,0.0,0.0,-3.7704,-3.8028,-3.8655,-3.922,-3.9597,-3.9697,-3.9697,-3.9697,-3.9697,-3.9697,-3.9942,-4.0593,-4.0795,-4.1471,-4.2784,-4.3122,-4.3519,-4.4317,-4.4425,-4.4425,-4.4425,-4.4425,-4.4425,-4.4425,-4.4425,-4.4425,-4.4425,-4.4425,-4.4425,-4.4425,-4.4425,-4.4425,-4.4425,-4.4425,-4.4425,-4.4425,-4.4425,-4.4425,-4.4425,-4.4425,-4.4425,-4.4425,-4.4425,-4.4425,-4.4411,-4.4425,-4.4537,-4.4894,-4.5429,-4.5837,-4.5972,-4.6668,-4.7309,-2.1102,0.0,-2.2174,-2.3161,0.0,-2.5202,-2.6189,-2.7081,-2.7081,-2.7081,-2.7081,-2.7081,-2.7081,-2.7081,-2.7081,-2.7081,-2.7081,-2.7081,-2.7427,-2.802,-2.8677,-2.9568,-3.0606,-3.1257,-3.2008,-3.2903,-3.2903,-3.313,-3.3582,-3.3582,-3.3695,-3.3797,-3.3797,-3.3976,-3.4278,-3.4736,-3.5124,-3.5356,-3.5235,-3.5554,-3.6375,-3.644,-3.6646,-3.7096,0.0,0.0,0.0,0.0,0.0,0.0,0.0,0.0,0.0,0.0,0.0,-3.7662,-3.7958,-3.8046,-3.7926,-3.8486,-3.8762,-3.8653,-3.878,-3.8843,-3.8932,-3.9371,-3.9697,-3.9697,-3.9697,-3.9697,-3.9697,-3.9697,-3.9839,-4.0287,-4.0694,-4.1372,-4.2431,-4.2978,-4.3519,-4.4223,-4.4425,-4.4425,-4.4425,-4.4425,-4.4425,-4.4425,-4.4425,-4.4425,-4.4425,-4.4425,-4.4425,-4.4425,-4.4425,-4.4425,-4.4425,-4.4425,-4.4425,-4.4425,-4.4425,-4.4425,-4.4425,-4.4425,-4.4425,-4.4425,-4.4425,-4.4457,-4.4662,-4.4769,-4.4894,-4.5338,-4.5851,-4.6165,-4.621,-4.68,-4.7309,-2.1102,-2.1172,-2.2167,-2.3216,-2.4201,-2.5133,-2.6128,-2.7081,0.0,0.0,0.0,-2.7081,-2.7081,-2.7081,-2.7081,-2.7081,-2.7081,-2.7081,-2.7496,-2.8199,-2.8746,-2.9795,-3.1237,-3.171,-3.2457,-3.33,-3.3356,-3.3413,-3.3582,-3.3751,-3.3808,-3.3864,-3.3976,-3.4099,-3.4134,-3.4636,-3.5201,-3.5852,-3.5212,-3.5587,-3.6958,-3.7131,-3.7269,-3.7512,-3.7395,-3.722,-3.7011,-3.707,-3.6994,-3.6777,-3.71,-3.7201,-3.6918,-3.7251,-3.7403,-3.7412,-3.8007,-3.8471,-3.8714,-3.9113,-3.9478,-3.9697,-3.9697,-3.9509,-3.9044,-3.9433,-3.9697,-3.9697,-3.9697,-3.9697,-3.9697,-3.9697,-3.9839,-4.0083,-4.0694,-4.1458,-4.2333,-4.2964,-4.3709,-4.4256,-4.4425,-4.4425,-4.4425,-4.4425,-4.4425,-4.4425,-4.4425,-4.4425,-4.4425,-4.4425,-4.4425,-4.4425,-4.4425,-4.4425,-4.4425,-4.4425,-4.4425,-4.4425,-4.4425,-4.4425,-4.4425,-4.4425,-4.4425,-4.4425,-4.4425,-4.4537,-4.4894,-4.4908,-4.517,-4.5702,-4.6121,-4.6491,-4.6712,-4.7048,-4.7309,-2.1102,-2.1172,-2.2174,-2.3161,-2.4193,-2.5194,-2.6189,-2.7081,-2.7081,-2.7081,-2.7081,-2.7081,-2.7081,-2.7081,-2.7081,-2.7081,-2.7081,-2.7081,-2.7737,0.0,-2.8984,-2.9695,-3.0937,-3.1054,-3.1556,-3.2342,-3.2399,-3.2789,-3.3582,-3.4357,-3.4692,-3.4803,-3.5543,-3.5884,-3.5872,-3.5245,-3.5367,-3.6223,-3.632,-3.6526,-3.6766,-3.7215,-3.7459,-3.7512,-3.7784,-3.7878,-3.7813,-3.7834,-3.781,-3.7798,-3.7429,-3.76,-3.8402,-3.8165,-3.8384,-3.9203,-3.9431,-3.9481,-3.952,-3.9608,-3.9633,-3.9697,-3.9697,-3.9659,-3.9597,-3.9659,-3.9697,-3.9697,-3.9697,-3.9697,-3.9697,-3.9697,-4.0173,-4.1395,-4.173,-4.2431,-4.377,-4.4054,-4.4223,-4.4364,-4.4425,-4.4425,-4.4425,-4.4425,-4.4425,-4.4425,-4.4425,-4.4425,-4.4425,-4.4425,-4.4425,-4.4425,-4.4425,-4.4425,-4.4425,-4.4425,-4.4425,-4.4425,-4.4425,-4.4425,-4.4425,-4.4425,-4.4425,-4.4425,-4.4425,-4.4457,-4.4551,-4.449,-4.494,-4.5656,-4.5972,-4.6254,-4.6931,-4.7222,-4.7309,-2.1102,-2.1292,-2.2786,-2.3643,-2.4193,-2.5762,-2.6631,-2.7081,-2.7081,-2.7081,-2.7081,-2.7081,-2.7081,-2.7081,-2.7081,-2.7081,-2.7081,-2.7081,-2.7788,-2.8925,-2.8984,-2.9912,-3.1498,-3.1624,-3.2065,-3.2903,-3.296,-3.3197,-3.3639,-3.4022,-3.419,-3.4246,-3.508,-3.5532,-3.5532,-3.5642,-3.5872,-3.6266,-3.6254,-3.658,-3.74,-3.7643,-3.808,-3.8659,-3.8566,-3.8566,-3.8893,-3.8945,-3.8933,-3.8945,-3.8711,-3.8803,-3.9245,-3.9086,-3.9216,-3.9672,-3.9697,-3.9697,-3.9697,-3.9697,-3.9697,-3.9697,-3.9697,-3.9697,-3.9697,-3.9697,-3.9697,-3.9697,-3.9697,-3.9697,-3.9697,-3.9697,-4.0134,-4.1272,-4.1743,-4.2479,-4.3519,-4.4162,-4.4425,-4.4425,-4.4425,-4.4425,-4.4425,-4.4425,-4.4425,-4.4425,-4.4425,-4.4425,-4.4425,-4.4425,-4.4425,-4.4425,-4.4425,-4.4425,-4.4425,-4.4425,-4.4425,-4.4425,-4.4425,-4.4425,-4.4425,-4.4425,-4.4425,-4.4425,-4.4425,-4.4504,-4.4676,-4.4769,-4.5216,-4.5941,-4.621,-4.6535,-4.7121,-4.7309,-4.7309,-2.1102,-2.1292,-2.327,-2.4324,-2.4887,-2.6441,-2.7081,-2.7081,-2.7081,-2.7081,-2.7081,-2.7081,-2.7081,-2.7081,-2.7081,-2.7081,-2.7081,-2.7081,-2.7788,-2.8916,-2.8984,-3.0039,-3.1777,-3.1893,-3.2285,-3.2913,-3.3016,-3.3016,-3.3027,-3.3187,-3.3413,-3.3695,-3.4469,-3.4925,-3.4902,-3.5817,-3.6266,-3.6266,-3.6297,-3.685,-3.7933,-3.825,-3.8828,-3.9581,-3.927,-3.9206,-3.9697,-3.9697,-3.9697,-3.9697,-3.9697,-3.9697,-3.9697,-3.9697,-3.9697,-3.9697,-3.9697,-3.9697,-3.9697,-3.9697,-3.9697,-3.9697,-3.9697,-3.9697,-3.9697,-3.9697,-3.9697,-3.9697,-3.9697,-3.9749,-3.9942,-3.9993,-4.0338,-4.1272,-4.1904,-4.2674,-4.3362,-4.4007,-4.4425,-4.4425,-4.4425,-4.4425,-4.4425,-4.4425,-4.4425,-4.4425,-4.4425,-4.4425,-4.4425,-4.4425,-4.4425,-4.4425,-4.4425,-4.4425,-4.4425,-4.4425,-4.4425,-4.4425,-4.4425,-4.4425,-4.4425,-4.4425,-4.4425,-4.4425,-4.4425,-4.4504,-4.4862,-4.5046,-4.5398,-4.6121,-4.6403,-4.6741,-4.7164,-4.7309,-4.7309,-2.1102,-2.1418,-2.3263,-2.5194,-2.67,-2.7012,-2.7081,-2.7081,-2.7081,-2.7081,-2.7081,-2.7081,-2.7081,-2.7081,-2.7081,-2.7081,-2.7081,-2.7081,-2.7788,-2.8865,-2.8984,-2.9754,-3.0937,-3.1054,-3.1054,-3.1228,-3.1228,-3.1344,-3.1334,-3.2008,-3.2732,-3.3639,-3.4469,-3.4858,-3.4969,-3.5817,-3.6266,-3.632,-3.7292,-3.7868,-3.8027,-3.8998,-3.9594,-3.9697,-3.9645,-3.9633,-3.9645,-3.9697,-3.9697,-3.9697,-3.9697,-3.9697,-3.9697,-3.9697,-3.9697,-3.9697,-3.9697,-3.9697,-3.9697,-3.9697,-3.9697,-3.9697,-3.9697,-3.9697,-3.9697,-3.9697,-3.9697,-3.9697,-3.9697,-3.9993,-4.0681,-4.0732,-4.1272,-4.259,-4.2929,-4.3423,-4.4068,-4.4364,-4.4425,-4.4425,-4.4425,-4.4425,-4.4425,-4.4425,-4.4425,-4.4425,-4.4425,-4.4425,-4.4425,-4.4425,-4.4425,-4.4425,-4.4425,-4.4425,-4.4425,-4.4425,-4.4425,-4.4425,-4.4425,-4.4425,-4.4425,-4.4425,-4.4425,-4.4425,-4.4425,-4.4457,-4.4537,-4.4769,-4.5261,-4.5837,-4.6299,-4.6771,-4.7179,-4.7309,-4.7309,-2.1102,-2.1299,-2.327,-2.5256,-2.6952,-2.7081,-2.7081,-2.7081,-2.7081,-2.7081,-2.7081,-2.7081,-2.7081,-2.7081,-2.7081,-2.7081,-2.7081,-2.7081,-2.7547,-2.8388,-2.8806,-2.9459,-3.0284,-3.0713,-3.0898,-3.0898,-3.0898,-3.0898,-3.0947,-3.1276,-3.1624,-3.2065,-3.2846,-3.3572,-3.4134,-3.5035,-3.5477,-3.5532,-3.6796,-3.7215,-3.6893,-3.7974,-3.8828,-3.9102,-3.8841,-3.8841,-3.9166,-3.949,-3.9697,-3.9697,-3.9697,-3.9697,-3.9697,-3.9697,-3.9697,-3.9697,-3.9697,-3.9697,-3.9697,-3.9697,-3.9697,-3.9697,-3.9697,-3.9697,-3.9697,-3.9697,-3.9697,-3.9697,-3.9697,-4.0044,-4.0782,-4.0883,-4.1508,-4.2895,-4.3232,-4.3519,-4.4317,-4.4425,-4.4425,-4.4425,-4.4425,-4.4425,-4.4425,-4.4425,-4.4425,-4.4425,-4.4425,-4.4425,-4.4425,-4.4425,-4.4425,-4.4425,-4.4425,-4.4425,-4.4425,-4.4425,-4.4425,-4.4425,-4.4425,-4.4425,-4.4425,-4.4425,-4.4425,-4.4425,-4.4425,-4.4425,-4.4411,-4.4551,-4.4908,-4.5566,-4.6476,-4.7077,-4.7266,-4.7309,-4.7309,-2.1176,-2.1425,-2.327,-2.5256,-2.7073,-2.7081,-2.7081,-2.7081,-2.7081,-2.7081,-2.7081,-2.7081,-2.7081,-2.7081,-2.7081,-2.7081,-2.7081,-2.7081,-2.7435,-2.802,-2.8687,-2.9331,-2.9931,-3.0587,-3.0898,-3.0898,-3.0898,-3.0898,-3.0898,-3.0898,-3.0898,-3.1064,-3.1777,-3.2504,-3.3233,-3.4078,-3.4692,-3.5013,-3.6122,-3.6514,-3.6363,-3.7227,-3.8039,-3.8514,-3.8198,-3.825,-3.8788,-3.9206,-3.953,-3.9697,-3.9697,-3.9697,-3.9697,-3.9697,-3.9697,-3.9697,-3.9697,-3.9697,-3.9697,-3.9697,-3.9697,-3.9697,-3.9697,-3.9697,-3.9697,-3.9697,-3.9697,-3.9749,-3.989,-4.0389,-4.1071,-4.1222,-4.1904,-4.328,-4.3505,-4.3818,-4.4317,-4.4425,-4.4425,-4.4425,-4.4425,-4.4425,-4.4425,-4.4425,-4.4425,-4.4425,-4.4425,-4.4425,-4.4425,-4.4425,-4.4425,-4.4425,-4.4425,-4.4425,-4.4425,-4.4425,-4.4425,-4.4425,-4.4425,-4.4425,-4.4425,-4.4425,-4.4425,-4.4425,-4.4425,-4.4411,-4.4457,-4.4504,-4.4769,-4.5671,-4.6476,-4.699,-4.6756,-4.7033,-4.7179,-2.137,-2.1432,-2.3263,-2.5256,-2.7073,-2.7081,-2.7081,-2.7081,-2.7081,-2.7081,-2.7081,-2.7081,-2.7081,-2.7081,-2.7081,-2.7081,-2.7081,-2.7081,-2.7427,-2.802,-2.8687,-2.9331,-2.9931,-3.0596,-3.0898,-3.0898,-3.0898,-3.0898,-3.0898,-3.0898,-3.0898,-3.0947,-3.172,-3.217,-3.2457,-3.3243,-3.4022,-3.4681,-3.5466,-3.6188,-3.6808,-3.7024,-3.74,-3.7933,-3.7986,-3.8198,-3.8684,-3.8841,-3.9102,-3.9697,-3.9697,-3.9697,-3.9697,-3.9697,-3.9697,-3.9697,-3.9697,-3.9697,-3.9697,-3.9697,-3.9697,-3.9697,-3.9697,-3.9697,-3.9697,-3.9697,-3.9749,-3.9749,-4.0389,-4.1071,-4.1842,-4.199,-4.2577,-4.4021,-4.4317,-4.4364,-4.4364,-4.4425,-4.4425,-4.4425,-4.4425,-4.4425,-4.4425,-4.4425,-4.4425,-4.4425,-4.4425,-4.4425,-4.4425,-4.4425,-4.4425,-4.4425,-4.4425,-4.4425,-4.4425,-4.4425,-4.4425,-4.4425,-4.4425,-4.4425,-4.4425,-4.4425,-4.4425,-4.4425,-4.4425,-4.4411,-4.4504,-4.4723,-4.5124,-4.5702,-4.6165,-4.6447,-4.6284,-4.6844,-4.7033,-2.2193,-2.3084,-2.3767,-2.5256,-2.7012,-2.7081,-2.7081,-2.7081,-2.7081,-2.7081,-2.7081,-2.7081,-2.7081,-2.7081,-2.7081,-2.7081,-2.7081,-2.7081,-2.7435,-2.802,-2.8687,-2.934,-2.9922,-3.0596,-3.0898,-3.0898,-3.0898,-3.0898,-3.0898,-3.0898,-3.0898,-3.0947,-3.117,-3.1614,-3.217,-3.2504,-3.2903,-3.3289,-3.4458,-3.5135,-3.5091,-3.5982,-3.67,-3.6904,-3.7239,-3.772,-3.825,-3.8631,-3.9062,-3.9697,-3.9697,-3.9697,-3.9697,-3.9697,-3.9697,-3.9697,-3.9697,-3.9697,-3.9697,-3.9697,-3.9697,-3.9697,-3.9697,-3.9659,-3.9697,-3.9697,-3.989,-4.0364,-4.0681,-4.1421,-4.2431,-4.2771,-4.3204,-4.4115,-4.4425,-4.4425,-4.4425,-4.4425,-4.4425,-4.4425,-4.4425,-4.4425,-4.4425,-4.4425,-4.4425,-4.4425,-4.4425,-4.4425,-4.4425,-4.4425,-4.4425,-4.4425,-4.4425,-4.4425,-4.4425,-4.4425,-4.4425,-4.4425,-4.4425,-4.4425,-4.4425,-4.4425,-4.4425,-4.4425,-4.4425,-4.4425,-4.4457,-4.4676,-4.5124,-4.5307,-4.5761,-4.5986,-4.5837,-4.6432,-4.6683,-2.2568,-2.3976,-2.4139,-2.5256,-2.7021,-2.7081,-2.7081,-2.7081,-2.7081,-2.7081,-2.7081,-2.7081,-2.7081,-2.7081,-2.7081,-2.7081,-2.7081,-2.7081,-2.7315,-2.7779,-2.8627,-2.9213,-2.9686,-3.047,-3.0898,-3.0898,-3.0898,-3.0898,-3.0898,-3.0898,-3.0898,-3.0898,-3.0898,-3.117,-3.1662,-3.1777,-3.1998,-3.2732,-3.3909,-3.4413,-3.4591,-3.5653,-3.6266,-3.632,-3.6646,-3.7239,-3.7974,-3.8356,-3.8893,-3.9581,-3.9697,-3.9609,-3.9446,-3.9245,-3.9157,-3.9145,-3.9145,-3.9145,-3.9157,-3.9145,-3.9145,-3.9145,-3.9145,-3.9145,-3.9145,-3.9145,-3.9538,-4.0127,-4.0624,-4.1338,-4.2555,-4.3121,-4.3596,-4.4261,-4.4425,-4.4425,-4.4425,-4.4425,-4.4425,-4.4425,-4.4425,-4.4425,-4.4425,-4.4425,-4.4425,-4.4425,-4.4425,-4.4425,-4.4425,-4.4425,-4.4425,-4.4425,-4.4425,-4.4425,-4.4425,-4.4425,-4.4425,-4.4425,-4.4425,-4.4425,-4.4425,-4.4425,-4.4425,-4.4425,-4.4425,-4.4425,-4.4504,-4.4676,-4.4815,-4.494,-4.5216,-4.5489,-4.5716,-4.6076,-4.6314,-2.2575,-2.4031,-2.4139,-2.5256,-2.6952,-2.7081,-2.7081,-2.7081,-2.7081,-2.7081,-2.7081,-2.7081,-2.7081,-2.7081,-2.7081,-2.7081,-2.7142,-2.7142,-2.7254,-2.7496,-2.8507,-2.9044,-2.934,-3.0411,-3.0898,-3.0898,-3.0898,-3.0898,-3.0898,-3.0898,-3.0898,-3.0898,-3.0898,-3.0947,-3.0947,-3.1122,-3.1787,-3.3073,-3.3582,-3.4469,-3.5982,-3.6154,-3.6162,-3.6162,-3.6205,-3.6722,-3.7825,-3.7914,-3.8364,-3.9314,-3.9533,-3.9408,-3.8868,-3.8429,-3.8078,-3.8153,-3.809,-3.8065,-3.8078,-3.8128,-3.8191,-3.8191,-3.809,-3.8191,-3.8228,-3.8228,-3.861,-3.9404,-4.0113,-4.0965,-4.2232,-4.2963,-4.3644,-4.4284,-4.4425,-4.4425,-4.4425,-4.4425,-4.4425,-4.4425,-4.4425,-4.4425,-4.4425,-4.4425,-4.4425,-4.4425,-4.4425,-4.4425,-4.4425,-4.4425,-4.4425,-4.4425,-4.4425,-4.4425,-4.4425,-4.4425,-4.4425,-4.4425,-4.4425,-4.4425,-4.4425,-4.4425,-4.4425,-4.4425,-4.4425,-4.4425,-4.4425,-4.4597,-4.463,-4.4755,-4.494,-4.5216,-4.5535,-4.5896,-4.6165,-2.2758,-2.4031,-2.4139,-2.5264,-2.7012,-2.7081,-2.7081,-2.7081,-2.7081,-2.7081,-2.7081,-2.7081,-2.7081,-2.7081,-2.7081,-2.7081,-2.7133,-2.7547,-2.7969,-2.8379,-2.8806,-2.945,-3.0235,-3.0713,-3.0898,-3.0898,-3.0898,-3.0898,-3.0898,-3.0898,-3.0898,-3.0898,-3.0898,-3.0898,-3.0869,-3.0947,-3.1508,-3.2571,-3.33,-3.406,-3.4864,-3.5426,-3.56,-3.529,-3.5256,-3.5613,-3.6282,-3.6718,-3.7084,-3.7555,-3.7811,-3.8078,-3.8166,-3.8115,-3.8002,-3.8002,-3.8002,-3.8002,-3.8002,-3.7977,-3.7952,-3.799,-3.7977,-3.8002,-3.8052,-3.8394,-3.9013,-3.9794,-4.0623,-4.1502,-4.2282,-4.2716,-4.3287,-4.4284,-4.4425,-4.4397,-4.4425,-4.4425,-4.4425,-4.4425,-4.4425,-4.4425,-4.4425,-4.4425,-4.4425,-4.4425,-4.4425,-4.4425,-4.4425,-4.4425,-4.4425,-4.4425,-4.4425,-4.4425,-4.4425,-4.4425,-4.4425,-4.4425,-4.4425,-4.4425,-4.4425,-4.4425,-4.4425,-4.4425,-4.4425,-4.4425,-4.4425,-4.4411,-4.449,-4.4723,-4.4986,-4.5216,-4.5398,-4.5716,-4.6031,-2.2843,-2.4031,-2.4139,-2.5264,-2.7012,-2.7081,-2.7081,-2.7081,-2.7081,-2.7081,-2.7081,-2.7081,-2.7081,-2.7081,-2.7081,-2.7081,-2.7133,-2.7728,-2.8379,-2.8984,-2.9272,-2.9804,-3.0528,-3.083,-3.0898,-3.0898,-3.0898,-3.0898,-3.0898,-3.0898,-3.0898,-3.0898,-3.0898,-3.0791,-3.0654,-3.0683,-3.1132,-3.2142,-3.2751,-3.3518,-3.4341,-3.4979,-3.5118,-3.4854,-3.4808,-3.4849,-3.5037,-3.5357,-3.5824,-3.6374,-3.676,-3.7147,-3.7627,-3.7513,-3.74,-3.7387,-3.7387,-3.7374,-3.7387,-3.7324,-3.7387,-3.74,-3.74,-3.7374,-3.7533,-3.8098,-3.8846,-3.9581,-4.0245,-4.1121,-4.1971,-4.2219,-4.2711,-4.361,-4.3919,-4.4158,-4.4326,-4.4425,-4.4425,-4.4425,-4.4425,-4.4425,-4.4425,-4.4425,-4.4425,-4.4425,-4.4425,-4.4425,-4.4425,-4.4425,-4.4425,-4.4425,-4.4425,-4.4425,-4.4425,-4.4425,-4.4425,-4.4425,-4.4425,-4.4425,-4.4425,-4.4425,-4.4425,-4.4425,-4.4425,-4.4425,-4.4425,-4.4411,-4.4443,-4.4769,-4.5032,-4.5124,-4.5338,-4.5747,-4.6121,-2.2893,-2.4038,-2.4201,-2.5317,-2.7012,-2.7081,-2.7081,-2.7081,-2.7081,-2.7081,-2.7081,-2.7081,-2.7081,-2.7081,-2.7081,-2.7081,-2.7194,-2.7848,-2.8439,-2.9035,-2.9568,-3.0108,-3.0225,-3.0704,-3.0898,-3.0898,-3.0898,-3.0898,-3.0898,-3.0898,-3.0898,-3.0898,-3.082,-3.0644,-3.0322,-3.0195,-3.077,-3.1868,-3.2199,-3.3061,-3.4437,-3.471,-3.4693,-3.4636,-3.459,-3.4446,-3.4141,-3.4118,-3.4824,-3.6146,-3.6258,-3.648,-3.6952,-3.6694,-3.6531,-3.6556,-3.6443,-3.6518,-3.6468,-3.6593,-3.6568,-3.6593,-3.6593,-3.6417,-3.6663,-3.7407,-3.8123,-3.8677,-3.9458,-4.033,-4.1315,-4.1559,-4.191,-4.2472,-4.309,-4.3638,-4.4242,-4.4312,-4.4298,-4.4383,-4.4425,-4.4425,-4.4425,-4.4425,-4.4425,-4.4425,-4.4425,-4.4425,-4.4425,-4.4425,-4.4425,-4.4425,-4.4425,-4.4425,-4.4425,-4.4425,-4.4425,-4.4425,-4.4425,-4.4425,-4.4425,-4.4425,-4.4425,-4.4425,-4.4425,-4.4425,-4.4411,-4.4411,-4.4583,-4.4908,-4.5078,-4.5078,-4.5384,-4.5837,-4.6076,-2.3274,-2.4147,-2.4887,-2.5945,-2.7012,-2.7081,-2.7081,-2.7081,-2.7081,-2.7081,-2.7081,-2.7081,-2.7081,-2.7081,-2.7081,-2.7081,-2.7315,-2.8208,-2.8797,-2.9163,-3.0167,-3.0596,-3.0655,-3.0772,-3.0898,-3.0898,-3.0898,-3.0898,-3.0898,-3.0898,-3.0879,-3.0879,-3.0557,-3.0332,-3.0176,-2.9873,-3.0312,-3.123,-3.1941,-3.249,-3.3291,-3.3954,-3.4027,-3.3706,-3.3717,-3.3648,-3.3476,-3.3476,-3.4,-3.511,-3.5222,-3.566,-3.6453,-3.6445,-3.637,-3.637,-3.637,-3.6417,-3.6405,-3.6417,-3.6417,-3.6417,-3.6417,-3.6417,-3.6452,-3.752,-3.8206,-3.8734,-3.9604,-4.0529,-4.0869,-4.0969,-4.1264,-4.1812,-4.2402,-4.302,-4.3568,-4.3736,-4.3891,-4.4298,-4.4383,-4.4383,-4.4411,-4.4425,-4.4425,-4.4425,-4.4425,-4.4425,-4.4425,-4.4425,-4.4425,-4.4425,-4.4425,-4.4425,-4.4425,-4.4425,-4.4425,-4.4425,-4.4425,-4.4425,-4.4425,-4.4425,-4.4425,-4.4425,-4.4425,-4.4425,-4.4425,-4.4411,-4.4723,-4.5,-4.5,-4.5032,-4.558,-4.6076,-4.6016,-2.3447,-2.4193,-2.5194,-2.6197,-2.7081,-2.7081,-2.7081,-2.7081,-2.7081,-2.7081,-2.7081,-2.7081,-2.7081,-2.7081,-2.7081,-2.7081,-2.7254,-2.8448,-2.8984,-2.9222,-3.0294,-3.083,-3.0898,-3.0898,-3.0898,-3.0898,-3.0898,-3.0898,-3.0898,-3.0898,-3.0791,-3.0576,-3.0332,-3.0029,-2.9609,-2.9499,-2.9629,-3.034,-3.1157,-3.1855,-3.2458,-3.3277,-3.354,-3.3327,-3.3281,-3.3281,-3.3281,-3.3292,-3.3668,-3.4359,-3.4689,-3.5126,-3.5644,-3.5991,-3.6038,-3.6086,-3.6086,-3.6133,-3.6358,-3.6417,-3.6417,-3.6417,-3.6417,-3.6417,-3.6628,-3.7658,-3.8509,-3.8644,-3.9881,-4.0573,-4.0702,-4.0702,-4.087,-4.1193,-4.1573,-4.2149,-4.2992,-4.3118,-4.3413,-4.3807,-4.4031,-4.4158,-4.434,-4.4397,-4.4411,-4.4425,-4.4425,-4.4425,-4.4425,-4.4425,-4.4425,-4.4425,-4.4425,-4.4425,-4.4425,-4.4425,-4.4425,-4.4425,-4.4425,-4.4425,-4.4425,-4.4425,-4.4425,-4.4425,-4.4425,-4.4425,-4.4425,-4.4457,-4.4676,-4.4862,-4.4862,-4.5092,-4.558,-4.5851,-4.5851,-2.3473,-2.4201,-2.5325,-2.6258,-2.7012,-2.7081,-2.7081,-2.7081,-2.7081,-2.7081,-2.7081,-2.7081,-2.7081,-2.7081,-2.7081,-2.7133,-2.7315,-2.8507,-2.9035,-2.9577,-3.0362,-3.0898,-3.0898,-3.0898,-3.0898,-3.0898,-3.0898,-3.0898,-3.0898,-3.0898,-3.0635,-3.0322,-3.0166,-2.9697,-2.918,-2.8916,-2.9011,-2.9495,-3.0475,-3.1204,-3.1911,-3.2797,-3.3338,-3.3315,-3.3281,-3.3281,-3.3281,-3.3331,-3.353,-3.3904,-3.4445,-3.4726,-3.4872,-3.532,-3.5572,-3.5656,-3.5716,-3.5895,-3.6275,-3.6417,-3.6417,-3.6417,-3.6417,-3.6417,-3.6675,-3.7658,-3.8509,-3.8509,-3.9823,-4.0573,-4.0702,-4.0702,-4.073,-4.0828,-4.08,-4.1292,-4.2064,-4.2444,-4.2711,-4.3287,-4.3399,-4.368,-4.4017,-4.4284,-4.4298,-4.4116,-4.4228,-4.4425,-4.4425,-4.4425,-4.4425,-4.4425,-4.4425,-4.4425,-4.4425,-4.4425,-4.4425,-4.4425,-4.4425,-4.4425,-4.4425,-4.4425,-4.4425,-4.4425,-4.4425,-4.4425,-4.4425,-4.4504,-4.463,-4.4676,-4.4676,-4.4986,-4.5338,-4.5398,-4.5398,-2.3952,-2.4255,-2.6014,-2.6891,-2.7081,-2.7081,-2.7081,-2.7081,-2.7081,-2.7081,-2.7081,-2.7081,-2.7081,-2.7081,-2.7142,-2.7306,-2.7788,-2.8627,-2.9459,-3.0528,-3.0713,-3.0889,-3.0898,-3.0898,-3.0898,-3.0898,-3.0898,-3.0898,-3.0898,-3.082,-3.0644,-3.0205,-2.9805,-2.9443,-2.8955,-2.8594,-2.8462,-2.8814,-3.0005,-3.0836,-3.1351,-3.2555,-3.3281,-3.3281,-3.3281,-3.3281,-3.3281,-3.3281,-3.3331,-3.353,-3.3904,-3.4335,-3.4628,-3.4872,-3.5126,-3.5476,-3.5572,-3.58,-3.6275,-3.6417,-3.6417,-3.6417,-3.6417,-3.6417,-3.6499,-3.7658,-3.8373,-3.8734,-3.9793,-4.0573,-4.0702,-4.0702,-4.0702,-4.0702,-4.0716,-4.0814,-4.1123,-4.1545,-4.2064,-4.257,-4.2781,-4.2851,-4.3006,-4.3512,-4.3638,-4.375,-4.3989,-4.4326,-4.4369,-4.4326,-4.4369,-4.4355,-4.4425,-4.4425,-4.4425,-4.4425,-4.4425,-4.4425,-4.4425,-4.4425,-4.4425,-4.4425,-4.4425,-4.4425,-4.4425,-4.4425,-4.4425,-4.4425,-4.4504,-4.4504,-4.4504,-4.4676,-4.4862,-4.4908,-4.5,-2.4139,-2.4324,-2.6258,-2.7081,-2.7081,-2.7081,-2.7081,-2.7081,-2.7081,-2.7081,-2.7081,-2.7081,-2.7081,-2.7081,-2.7142,-2.7315,-2.7728,-2.8567,-2.9695,-3.0655,-3.0889,-3.0889,-3.0898,-3.0898,-3.0898,-3.0889,-3.0898,-3.0898,-3.0859,-3.0644,-3.0312,-2.9902,-2.9482,-2.9043,-2.8682,-2.8408,-2.832,-2.8664,-2.99,-3.0785,-3.1043,-3.2392,-3.3281,-3.3281,-3.3281,-3.3281,-3.3281,-3.3281,-3.3281,-3.3331,-3.3519,-3.3755,-3.4101,-3.4286,-3.4677,-3.5126,-3.5223,-3.5656,-3.6181,-3.6417,-3.6417,-3.6417,-3.6417,-3.6417,-3.6593,-3.7441,-3.8115,-3.8644,-3.9472,-4.0286,-4.0659,-4.0702,-4.0702,-4.0702,-4.0702,-4.0702,-4.0744,-4.0997,-4.1418,-4.1938,-4.2121,-4.2331,-4.2584,-4.2851,-4.2992,-4.3104,-4.316,-4.3483,-4.3891,-4.3905,-4.4172,-4.4256,-4.4369,-4.4425,-4.4425,-4.4425,-4.4425,-4.4425,-4.4425,-4.4425,-4.4425,-4.4425,-4.4425,-4.4425,-4.4425,-4.4425,-4.4425,-4.4425,-4.4425,-4.4411,-4.4457,-4.4411,-4.4457,-4.4644,-4.469,-2.4139,-2.4255,-2.6258,-2.7081,-2.7081,-2.7081,-2.7081,-2.7081,-2.7081,-2.7081,-2.7081,-2.7081,-2.7081,-2.7081,-2.7081,-2.7133,-2.7788,-2.8797,-3.0117,-3.0772,-3.0898,-3.0898,-3.0898,-3.0898,-3.082,-3.0801,-3.0732,-3.0742,-3.0625,-3.0332,-2.9893,-2.9482,-2.9141,-2.8779,-2.8408,-2.8301,-2.8398,-2.8814,-3.0057,-3.094,-3.1249,-3.2505,-3.3231,-3.3281,-3.3281,-3.3281,-3.3281,-3.3281,-3.3281,-3.3281,-3.3281,-3.3281,-3.3381,-3.3656,-3.4188,-3.4738,-3.4872,-3.5404,-3.6181,-3.6417,-3.6417,-3.6417,-3.6417,-3.6417,-3.6593,-3.7083,-3.7717,-3.8387,-3.9104,-3.9968,-4.0573,-4.0702,-4.0702,-4.0702,-4.0702,-4.0702,-4.0702,-4.0716,-4.1025,-4.132,-4.1488,-4.1643,-4.1952,-4.2247,-4.2345,-4.2458,-4.2528,-4.2697,-4.3118,-4.3399,-4.361,-4.368,-4.368,-4.3947,-4.4003,-4.434,-4.4355,-4.4298,-4.4326,-4.4312,-4.434,-4.4425,-4.4425,-4.4425,-4.4425,-4.4425,-4.4425,-4.4425,-4.4425,-4.4425,-4.4425,-4.4425,-4.4425,-4.4425,-4.4425,-2.4139,-2.4263,-2.6258,-2.7081,-2.7081,-2.7081,-2.7081,-2.7081,-2.7081,-2.7081,-2.7081,-2.7081,-2.7081,-2.7081,-2.7081,-2.7677,-2.8627,-2.9636,-3.047,-3.0889,-3.0889,-3.0879,-3.081,-3.0791,-3.0654,-3.0391,-3.0283,-3.0264,-3.0215,-2.9883,-2.9492,-2.9111,-2.8935,-2.8662,-2.8398,-2.8344,-2.8601,-2.9069,-3.0214,-3.0991,-3.1659,-3.2656,-3.3281,-3.3281,-3.3281,-3.3281,-3.3281,-3.3281,-3.3281,-3.3281,-3.3281,-3.3281,-3.3331,-3.3431,-3.3915,-3.4482,-3.4726,-3.5163,-3.6026,-3.6323,-3.637,-3.6417,-3.631,-3.6323,-3.6499,-3.6943,-3.7302,-3.7991,-3.8881,-3.9881,-4.0616,-4.0702,-4.0702,-4.0702,-4.0702,-4.0702,-4.0702,-4.0716,-4.073,-4.0955,-4.0955,-4.0969,-4.1334,-4.1615,-4.1727,-4.1868,-4.2008,-4.2205,-4.257,-4.2739,-4.2823,-4.2837,-4.2809,-4.3174,-4.3512,-4.3975,-4.4228,-4.4116,-4.4088,-4.4074,-4.4144,-4.4355,-4.4411,-4.4242,-4.4312,-4.4425,-4.4425,-4.4425,-4.4425,-4.4425,-4.4425,-4.4425,-4.4425,-4.4425,-4.4425,-2.4139,-2.4324,-2.6258,-2.7081,-2.7081,-2.7081,-2.7081,-2.7081,-2.7081,-2.7081,-2.7081,-2.7081,-2.7081,-2.7081,-2.7081,-2.7797,-2.8984,-2.9518,-3.0294,-3.0713,-3.0889,-3.0732,-3.0566,-3.0537,-3.0264,-2.9912,-2.9678,-2.9697,-2.9805,-2.9434,-2.9131,-2.8935,-2.873,-2.8476,-2.834,-2.8291,-2.8495,-2.9122,-3.0109,-3.0991,-3.1505,-3.2606,-3.3231,-3.3281,-3.3281,-3.3281,-3.3281,-3.3281,-3.3281,-3.3281,-3.3281,-3.3281,-3.3281,-3.3381,-3.3618,-3.4249,-3.4384,-3.4726,-3.5404,-3.5596,-3.5548,-3.5548,-3.5596,-3.5548,-3.5644,-3.5918,-3.6649,-3.7691,-3.8792,-3.9924,-4.0616,-4.0702,-4.0702,-4.0702,-4.0702,-4.0702,-4.0702,-4.0702,-4.0702,-4.0702,-4.0772,-4.0814,-4.08,-4.1011,-4.1095,-4.1264,-4.146,-4.1727,-4.2036,-4.2093,-4.2135,-4.2345,-4.2388,-4.2626,-4.2992,-4.3371,-4.375,-4.3736,-4.3694,-4.3694,-4.3624,-4.368,-4.3807,-4.3821,-4.4003,-4.4172,-4.4425,-4.4425,-4.4425,-4.4425,-4.4425,-4.4425,-4.4425,-4.4425,-4.4425,-2.4193,-2.4571,-2.638,-2.7081,-2.7081,-2.7081,-2.7081,-2.7081,-2.7081,-2.7081,-2.7081,-2.7081,-2.7081,-2.7142,-2.7375,-2.7908,-2.8984,-2.9163,-2.9884,-3.0529,-3.0703,-3.0498,-3.0176,-3.0019,-2.9853,-2.9443,-2.9199,-2.9092,-2.9297,-2.9004,-2.8828,-2.8691,-2.8418,-2.8301,-2.8301,-2.8301,-2.8354,-2.8973,-2.9963,-3.0836,-3.1567,-3.2555,-3.3281,-3.3281,-3.3281,-3.3281,-3.3281,-3.3281,-3.3281,-3.3281,-3.3281,-3.3281,-3.3281,-3.3281,-3.3481,-3.3805,-3.3941,-3.4286,-3.4677,-3.4872,-3.4969,-3.4969,-3.4872,-3.4823,-3.5017,-3.5475,-3.6106,-3.7573,-3.8854,-3.9881,-4.0559,-4.0702,-4.0702,-4.0702,-4.0702,-4.0702,-4.0702,-4.0702,-4.0702,-4.0702,-4.0702,-4.0716,-4.073,-4.0744,-4.0898,-4.0912,-4.1109,-4.1137,-4.1404,-4.1432,-4.1545,-4.191,-4.2107,-4.2219,-4.2444,-4.264,-4.295,-4.3048,-4.3048,-4.3034,-4.2907,-4.2795,-4.3006,-4.3273,-4.3469,-4.3666,-4.4031,-4.4397,-4.4425,-4.4425,-4.4425,-4.4411,-4.4411,-4.4411,-4.4425,-2.4625,-2.5509,-2.6631,-2.7081,-2.7081,-2.7081,-2.7081,-2.7081,-2.7081,-2.7081,-2.7081,-2.7081,-2.7081,-2.7194,-2.7668,-2.8328,-2.8897,-2.9443,-2.9851,-3.0275,-3.0273,-3.0059,-2.9753,-2.9648,-2.9394,-2.9053,-2.8916,-2.8935,-2.8916,-2.8594,-2.8408,-2.8379,-2.8379,-2.8301,-2.8301,-2.8301,-2.8708,-2.9375,-3.0318,-3.1505,-3.2656,-3.3181,-3.3281,-3.3281,-3.3281,-3.3281,-3.3281,-3.3281,-3.3281,-3.3281,-3.3281,-3.3281,-3.3281,-3.3281,-3.3331,-3.3519,-3.3755,-3.4237,-3.458,-3.4628,-3.4628,-3.4592,-3.464,-3.4775,-3.486,-3.5607,-3.6483,-3.7665,-3.8854,-3.9867,-4.0473,-4.0702,-4.0702,-4.0702,-4.0702,-4.0702,-4.0702,-4.0702,-4.0702,-4.0702,-4.0702,-4.0702,-4.0716,-4.0716,-4.0716,-4.0716,-4.0716,-4.0786,-4.0842,-4.0955,-4.0997,-4.1362,-4.1587,-4.1699,-4.1769,-4.198,-4.2121,-4.2303,-4.2303,-4.2303,-4.2191,-4.2107,-4.243,-4.2683,-4.2879,-4.3231,-4.3708,-4.4045,-4.4298,-4.4214,-4.3947,-4.4116,-4.4397,-4.4369,-4.4172,-2.5194,-2.57,-2.6692,-2.7081,-2.7081,-2.7081,-2.7081,-2.7081,-2.7081,-2.7081,-2.7081,-2.7081,-2.7081,-2.7246,-2.7728,-2.8194,-2.8691,-2.9231,-2.969,-2.9809,-2.9805,-2.9609,-2.9287,-2.918,-2.8975,-2.8691,-2.8564,-2.8535,-2.8486,-2.8428,-2.8301,-2.8301,-2.8301,-2.8301,-2.8301,-2.8301,-2.8761,-2.9638,-3.0774,-3.2088,-3.2969,-3.3281,-3.3281,-3.3281,-3.3281,-3.3281,-3.3281,-3.3281,-3.3281,-3.3281,-3.3281,-3.3281,-3.3281,-3.3281,-3.3281,-3.3319,-3.3469,-3.3706,-3.3866,-3.3965,-3.4014,-3.3965,-3.3965,-3.3915,-3.4188,-3.5042,-3.6248,-3.7271,-3.8347,-3.9458,-4.043,-4.0702,-4.0702,-4.0702,-4.0702,-4.0702,-4.0702,-4.0702,-4.0702,-4.0702,-4.0702,-4.0702,-4.0702,-4.0702,-4.0702,-4.0702,-4.0702,-4.0744,-4.0758,-4.0786,-4.08,-4.0828,-4.0983,-4.1095,-4.1123,-4.1235,-4.1278,-4.1404,-4.139,-4.139,-4.1404,-4.1488,-4.1783,-4.198,-4.2093,-4.2584,-4.3259,-4.3455,-4.3455,-4.3413,-4.3371,-4.3526,-4.3652,-4.3441,-4.3273,-2.6014,-2.6075,-2.6761,-2.7081,-2.7081,-2.7081,-2.7081,-2.7081,-2.7081,-2.7081,-2.7081,-2.7073,-2.703,-2.7056,-2.7407,-2.7748,-2.8223,-2.8685,-2.9117,-2.9317,-2.9355,-2.916,-2.8877,-2.873,-2.8613,-2.8301,-2.8359,-2.835,-2.833,-2.8301,-2.8301,-2.8301,-2.8301,-2.8301,-2.8301,-2.8398,-2.8761,-2.9995,-3.1238,-3.2342,-3.3119,-3.3281,-3.3281,-3.3281,-3.3281,-3.3281,-3.3281,-3.3281,-3.3281,-3.3281,-3.3281,-3.3281,-3.3281,-3.3281,-3.3281,-3.3281,-3.3381,-3.3381,-3.3431,-3.3431,-3.3281,-3.3281,-3.3281,-3.3431,-3.3568,-3.4421,-3.563,-3.7014,-3.8572,-3.9648,-4.0386,-4.0702,-4.0702,-4.0702,-4.0702,-4.0702,-4.0702,-4.0702,-4.0702,-4.0702,-4.0702,-4.0702,-4.0702,-4.0702,-4.0702,-4.0702,-4.0702,-4.0702,-4.0702,-4.0702,-4.0702,-4.0702,-4.0758,-4.0842,-4.0828,-4.08,-4.073,-4.0702,-4.0702,-4.0758,-4.0926,-4.0969,-4.1109,-4.1264,-4.1418,-4.1615,-4.2078,-4.2331,-4.2598,-4.2823,-4.295,-4.2781,-4.2725,-4.2542,-4.2556,-2.7012,-2.7012,-2.7073,-2.7081,-2.7081,-2.7081,-2.7081,-2.7081,-2.7081,-2.7064,-2.7021,-2.7039,-2.6833,-2.6661,-2.6786,-2.7199,-2.7811,-2.7858,-2.8389,-2.8816,-2.8926,-2.874,-2.8525,-2.8408,-2.8369,-2.831,-2.8301,-2.8301,-2.8301,-2.8301,-2.8301,-2.8301,-2.8301,-2.8301,-2.8398,-2.8601,-2.9333,-3.0463,-3.1659,-3.2493,-3.3069,-3.3281,-3.3281,-3.3281,-3.3281,-3.3281,-3.3281,-3.3281,-3.3281,-3.3281,-3.3281,-3.3281,-3.3281,-3.3281,-3.3281,-3.3281,-3.3281,-3.3281,-3.3281,-3.3281,-3.3281,-3.3281,-3.3281,-3.3281,-3.3381,-3.5498,-3.6688,-3.7014,-3.8527,-3.9911,-4.0473,-4.0702,-4.0702,-4.0702,-4.0702,-4.0702,-4.0702,-4.0702,-4.0702,-4.0702,-4.0702,-4.0702,-4.0702,-4.0702,-4.0702,-4.0702,-4.0702,-4.0702,-4.0702,-4.0702,-4.0702,-4.0702,-4.0702,-4.0744,-4.073,-4.0702,-4.0702,-4.0702,-4.0702,-4.0702,-4.0758,-4.0744,-4.0786,-4.0828,-4.1025,-4.094,-4.0983,-4.1545,-4.205,-4.243,-4.25,-4.2163,-4.2093,-4.2064,-4.2163,-2.7081,-2.7081,-2.7081,-2.7081,-2.7081,-2.7081,-2.7081,-2.7081,-2.7073,-2.6927,-2.6713,-2.6687,-2.6499,-2.6292,-2.6598,-2.6924,-2.7378,-2.7847,-2.8184,-2.8381,-2.8496,-2.8428,-2.8301,-2.8301,-2.8301,-2.8301,-2.8301,-2.8301,-2.8301,-2.8301,-2.8301,-2.8301,-2.8301,-2.8301,-2.8451,-2.9175,-3.0162,-3.0888,-3.2026,-3.3019,-3.3131,-3.3281,-3.3281,-3.3281,-3.3281,-3.3281,-3.3281,-3.3281,-3.3281,-3.3281,-3.3281,-3.3281,-3.3281,-3.3281,-3.3281,-3.3281,-3.3281,-3.3281,-3.3281,-3.3281,-3.3281,-3.3281,-3.3281,-3.3281,-3.3331,-3.4872,-3.5808,-3.6739,-3.8166,-3.9458,-3.9968,-4.0386,-4.0702,-4.0702,-4.0702,-4.0702,-4.0702,-4.0702,-4.0702,-4.0702,-4.0702,-4.0702,-4.0702,-4.0702,-4.0702,-4.0702,-4.0702,-4.0702,-4.0702,-4.0702,-4.0702,-4.0702,-4.0702,-4.0702,-4.0702,-4.0702,-4.0702,-4.0702,-4.0702,-4.0702,-4.0702,-4.0716,-4.073,-4.0716,-4.0702,-4.0772,-4.0912,-4.1151,-4.1432,-4.1671,-4.1587,-4.1334,-4.1362,-4.1545,-4.1643,-2.7004,-2.6902,-2.6902,-2.697,-2.7064,-2.7081,-2.7004,-2.691,-2.6884,-2.6687,-2.6328,-2.6311,-2.6114,-2.603,-2.6395,-2.6751,-2.7077,-2.7574,-2.7959,-2.8203,-2.833,-2.8301,-2.8301,-2.8301,-2.8301,-2.8301,-2.8301,-2.8301,-2.8301,-2.8301,-2.8301,-2.8301,-2.8301,-2.8301,-2.8654,-2.9848,-3.0888,-3.1454,-3.2392,-3.3281,-3.3281,-3.3281,-3.3281,-3.3281,-3.3281,-3.3281,-3.3281,-3.3281,-3.3281,-3.3281,-3.3281,-3.3281,-3.3281,-3.3281,-3.3281,-3.3281,-3.3281,-3.3281,-3.3281,-3.3281,-3.3281,-3.3281,-3.3281,-3.3281,-3.3519,-3.4225,-3.5343,-3.6011,-3.7389,-3.8541,-3.9237,-3.9837,-4.0199,-4.0199,-4.0616,-4.0702,-4.0702,-4.0702,-4.0702,-4.0702,-4.0702,-4.0702,-4.0702,-4.0702,-4.0702,-4.0702,-4.0702,-4.0702,-4.0702,-4.0702,-4.0702,-4.0702,-4.0702,-4.0702,-4.0702,-4.0702,-4.0702,-4.0702,-4.0702,-4.0702,-4.0702,-4.0702,-4.0702,-4.0702,-4.0702,-4.0702,-4.08,-4.0969,-4.0898,-4.0814,-4.0828,-4.0926,-4.0926,-4.1095,-4.0983,-2.6824,-2.6508,-2.6499,-2.6705,-2.6987,-2.7056,-2.6833,-2.6525,-2.6499,-2.6294,-2.5919,-2.5943,-2.5737,-2.5617,-2.6009,-2.643,-2.6793,-2.7246,-2.7783,-2.8203,-2.8301,-2.8301,-2.8301,-2.8301,-2.8301,-2.8301,-2.8301,-2.8301,-2.8301,-2.8301,-2.8301,-2.8301,-2.8301,-2.8398,-2.8451,-2.9963,-3.1146,-3.1975,-3.2807,-3.3181,-3.3281,-3.3281,-3.3281,-3.3281,-3.3281,-3.3281,-3.3281,-3.3281,-3.3281,-3.3281,-3.3281,-3.3281,-3.3281,-3.3281,-3.3281,-3.3281,-3.3281,-3.3281,-3.3281,-3.3281,-3.3281,-3.3281,-3.3281,-3.3281,-3.3519,-3.4311,-3.5066,-3.5487,-3.6832,-3.7802,-3.8541,-3.9104,-3.937,-3.9779,-4.0156,-4.0487,-4.0473,-4.0702,-4.0702,-4.0702,-4.0702,-4.0702,-4.0702,-4.0702,-4.0702,-4.0702,-4.0702,-4.0702,-4.0702,-4.0702,-4.0702,-4.0702,-4.0702,-4.0702,-4.0702,-4.0702,-4.0702,-4.0702,-4.0702,-4.0702,-4.0702,-4.0702,-4.0702,-4.0702,-4.0702,-4.0702,-4.0702,-4.073,-4.0702,-4.0702,-4.0702,-4.0758,-4.0716,-4.0702,-4.0702,-2.6242,-2.6122,-2.6122,-2.6199,-2.6319,-2.6319,-2.6234,-2.614,-2.6097,-2.5908,-2.5609,-2.5566,-2.5352,-2.5263,-2.5678,-2.6207,-2.6646,-2.7152,-2.7755,-2.8237,-2.8301,-2.8301,-2.8301,-2.8301,-2.8301,-2.8301,-2.8301,-2.8301,-2.8301,-2.8301,-2.8301,-2.8301,-2.8344,-2.8601,-2.9227,-3.0266,-3.1197,-3.2015,-3.2757,-3.3281,-3.3281,-3.3281,-3.3281,-3.3281,-3.3281,-3.3281,-3.3281,-3.3281,-3.3281,-3.3281,-3.3281,-3.3281,-3.3281,-3.3281,-3.3281,-3.3281,-3.3281,-3.3281,-3.3281,-3.3281,-3.3281,-3.3281,-3.3281,-3.3281,-3.3431,-3.3941,-3.4409,-3.4824,-3.5868,-3.6705,-3.7263,-3.7997,-3.8405,-3.8957,-3.937,-3.9793,-3.9982,-4.0473,-4.0702,-4.0702,-4.0702,-4.0702,-4.0702,-4.0702,-4.0702,-4.0702,-4.0702,-4.0702,-4.0702,-4.0702,-4.0702,-4.0702,-4.0702,-4.0702,-4.0702,-4.0702,-4.0702,-4.0702,-4.0702,-4.0702,-4.0702,-4.0702,-4.0702,-4.0702,-4.0702,-4.0702,-4.0702,-4.0702,-4.0702,-4.0702,-4.0702,-4.0702,-4.0702,-4.0702,-4.0702,-2.5799,-2.5746,-2.5746,-2.566,-2.5551,-2.5765,-2.5874,-2.5737,-2.5551,-2.5403,-2.5215,-2.5181,-2.5237,-2.5308,-2.5743,-2.6336,-2.6871,-2.7476,-2.7799,-2.8291,-2.8301,-2.8301,-2.8301,-2.8301,-2.8301,-2.8301,-2.8301,-2.8301,-2.8301,-2.8301,-2.8301,-2.8301,-2.8344,-2.8963,-2.9743,-3.063,-3.1414,-3.2291,-3.3119,-3.3281,-3.3281,-3.3281,-3.3281,-3.3281,-3.3281,-3.3281,-3.3281,-3.3281,-3.3281,-3.3281,-3.3281,-3.3281,-3.3281,-3.3281,-3.3281,-3.3281,-3.3281,-3.3281,-3.3281,-3.3281,-3.3281,-3.3281,-3.3281,-3.3281,-3.3331,-3.3607,-3.3854,-3.4274,-3.4884,-3.5511,-3.626,-3.6938,-3.7586,-3.8088,-3.8644,-3.906,-3.9604,-4.0112,-4.043,-4.043,-4.0616,-4.0659,-4.0702,-4.0702,-4.0702,-4.0702,-4.0702,-4.0702,-4.0702,-4.0702,-4.0702,-4.0702,-4.0702,-4.0702,-4.0702,-4.0702,-4.0702,-4.0702,-4.0702,-4.0702,-4.0702,-4.0702,-4.0702,-4.0702,-4.0702,-4.0702,-4.0702,-4.0702,-4.0702,-4.0702,-4.0702,-4.0702,-4.0702,-4.0702,-4.0702,-2.5686,-2.5434,-2.5417,-2.5155,-2.4992,-2.55,-2.5652,-2.5335,-2.5001,-2.4864,-2.4847,-2.4928,-2.518,-2.5752,-2.6336,-2.6881,-2.7314,-2.797,-2.8184,-2.8291,-2.8291,-2.8301,-2.8301,-2.8301,-2.8301,-2.8301,-2.8301,-2.8301,-2.8301,-2.8301,-2.8301,-2.8344,-2.8441,-2.9333,-3.0276,-3.0991,-3.1772,-3.2757,-3.3181,-3.3281,-3.3281,-3.3281,-3.3281,-3.3281,-3.3281,-3.3281,-3.3281,-3.3281,-3.3281,-3.3281,-3.3281,-3.3281,-3.3281,-3.3281,-3.3281,-3.3281,-3.3281,-3.3281,-3.3281,-3.3281,-3.3281,-3.3281,-3.3281,-3.3281,-3.3331,-3.3381,-3.3568,-3.3755,-3.4176,-3.4775,-3.5391,-3.6083,-3.673,-3.7368,-3.8011,-3.8554,-3.9149,-3.956,-3.9881,-4.0112,-4.0386,-4.053,-4.0659,-4.0702,-4.0573,-4.0702,-4.0702,-4.0702,-4.0702,-4.0702,-4.0702,-4.0702,-4.0702,-4.0702,-4.0702,-4.0702,-4.0702,-4.0702,-4.0702,-4.0702,-4.0702,-4.0702,-4.0702,-4.0702,-4.0702,-4.0702,-4.0702,-4.0702,-4.0702,-4.0702,-4.0702,-4.0702,-4.0702,-4.0702,-4.0702,-2.5078,-2.4984,-2.4984,-2.4915,-2.4864,-2.5052,-2.5069,-2.4958,-2.4855,-2.4821,-2.4812,-2.5255,-2.5523,-2.5798,-2.6718,-2.7161,-2.7593,-2.797,-2.8184,-2.8301,-2.8301,-2.8301,-2.8301,-2.8301,-2.8301,-2.8301,-2.8301,-2.8301,-2.8301,-2.8301,-2.8301,-2.8344,-2.8708,-2.9701,-3.0578,-3.1351,-3.224,-3.2969,-3.3281,-3.3281,-3.3281,-3.3281,-3.3281,-3.3281,-3.3281,-3.3281,-3.3281,-3.3281,-3.3281,-3.3281,-3.3281,-3.3281,-3.3281,-3.3281,-3.3281,-3.3281,-3.3281,-3.3281,-3.3281,-3.3281,-3.3281,-3.3281,-3.3281,-3.3281,-3.3281,-3.3331,-3.3381,-3.3519,-3.3618,-3.415,-3.4677,-3.5283,-3.5893,-3.6508,-3.7196,-3.7887,-3.8432,-3.8747,-3.906,-3.937,-3.9692,-4.0156,-4.0343,-4.043,-4.0286,-4.0573,-4.0702,-4.0659,-4.0702,-4.0702,-4.0702,-4.0702,-4.0702,-4.0702,-4.0702,-4.0702,-4.0702,-4.0702,-4.0702,-4.0702,-4.0702,-4.0702,-4.0702,-4.0702,-4.0702,-4.0702,-4.0702,-4.0702,-4.0702,-4.0702,-4.0702,-4.0702,-4.0702,-4.0702,-4.0702,-2.4821,-2.4821,-2.4821,-2.4821,-2.4821,-2.4821,-2.4821,-2.4821,-2.4821,-2.4821,-2.4868,-2.5412,-2.5844,-2.6163,-2.6989,-2.753,-2.7799,-2.8077,-2.8301,-2.8301,-2.8301,-2.8301,-2.8301,-2.8301,-2.8301,-2.8301,-2.8301,-2.8301,-2.8301,-2.8301,-2.8301,-2.8344,-2.891,-2.9743,-3.0578,-3.1249,-3.2139,-3.2869,-3.3281,-3.3281,-3.3281,-3.3281,-3.3281,-3.3281,-3.3281,-3.3281,-3.3281,-3.3281,-3.3281,-3.3281,-3.3281,-3.3281,-3.3281,-3.3281,-3.3281,-3.3281,-3.3281,-3.3281,-3.3281,-3.3281,-3.3281,-3.3281,-3.3281,-3.3281,-3.3281,-3.3281,-3.3331,-3.3381,-3.3381,-3.3519,-3.4003,-3.4482,-3.5066,-3.5608,-3.6345,-3.7142,-3.7533,-3.7887,-3.8192,-3.8554,-3.9002,-3.9502,-3.9779,-3.9867,-4.0099,-4.0416,-4.0516,-4.0386,-4.053,-4.0702,-4.0702,-4.0702,-4.0702,-4.0702,-4.0702,-4.0702,-4.0674,-4.0674,-4.0702,-4.0702,-4.0702,-4.0702,-4.0702,-4.0702,-4.0702,-4.0702,-4.0702,-4.0702,-4.0702,-4.0702,-4.0702,-4.0702,-4.0702,-4.0702,-4.0702,-2.4821,-2.4821,-2.4821,-2.4821,-2.4821,-2.4821,-2.4821,-2.4821,-2.4821,-2.4821,-2.4932,-2.5523,-2.6118,-2.6545,-2.726,-2.7799,-2.8023,-2.8237,-2.8301,-2.8301,-2.8301,-2.8301,-2.8301,-2.8301,-2.8301,-2.8301,-2.8301,-2.8301,-2.8301,-2.8301,-2.8301,-2.8291,-2.8548,-2.9386,-3.064,-3.1146,-3.1986,-3.3081,-3.3281,-3.3281,-3.3281,-3.3281,-3.3281,-3.3281,-3.3281,-3.3281,-3.3281,-3.3281,-3.3281,-3.3281,-3.3281,-3.3281,-3.3281,-3.3281,-3.3281,-3.3281,-3.3281,-3.3281,-3.3281,-3.3281,-3.3281,-3.3281,-3.3281,-3.3281,-3.3281,-3.3281,-3.3281,-3.3281,-3.3331,-3.3419,-3.3805,-3.4237,-3.4726,-3.5271,-3.593,-3.6581,-3.7095,-3.7394,-3.7763,-3.8069,-3.8387,-3.8926,-3.9516,-3.9648,-3.9326,-3.9954,-4.0055,-3.9881,-4.0112,-4.0386,-4.0588,-4.0588,-4.0688,-4.0688,-4.0702,-4.0688,-4.0617,-4.0617,-4.0617,-4.0533,-4.0393,-4.0519,-4.0702,-4.0702,-4.0702,-4.0702,-4.0702,-4.0702,-4.0702,-4.0702,-4.0702,-4.0702,-4.0702,-4.0702,-4.0702,-2.4821,-2.4821,-2.4821,-2.4821,-2.4821,-2.4821,-2.4821,-2.4821,-2.4821,-2.4821,-2.4987,-2.5844,-2.6436,-2.6763,-2.7638,-2.813,-2.8237,-2.8301,-2.8301,-2.8301,-2.8301,-2.8301,-2.8301,-2.8301,-2.8301,-2.8301,-2.8301,-2.8301,-2.8301,-2.8301,-2.8291,-2.8398,-2.8708,-2.9638,-3.0733,-3.1197,-3.2077,-3.3231,-3.3281,-3.3281,-3.3281,-3.3281,-3.3281,-3.3281,-3.3281,-3.3281,-3.3281,-3.3281,-3.3281,-3.3281,-3.3281,-3.3281,-3.3281,-3.3281,-3.3281,-3.3281,-3.3281,-3.3281,-3.3281,-3.3281,-3.3281,-3.3281,-3.3281,-3.3281,-3.3281,-3.3281,-3.3281,-3.3281,-3.3331,-3.3369,-3.3568,-3.4003,-3.4482,-3.5017,-3.556,-3.6121,-3.6687,-3.7002,-3.7315,-3.7533,-3.7854,-3.8432,-3.9073,-3.9104,-3.8881,-3.8836,-3.8868,-3.897,-3.9282,-3.9604,-4.0145,-4.0275,-4.0603,-4.0674,-4.0645,-4.0421,-4.021,-4.028,-4.0308,-4.021,-4.0126,-4.0421,-4.0702,-4.0702,-4.0702,-4.0702,-4.0702,-4.0702,-4.0702,-4.0702,-4.0702,-4.0702,-4.0702,-4.0702,-4.0702,-2.4821,-2.4821,-2.4821,-2.4821,-2.4821,-2.4821,-2.4821,-2.4821,-2.4821,-2.4979,-2.5311,-2.6163,-2.6708,-2.6989,-2.7916,-2.8301,-2.8301,-2.8301,-2.8301,-2.8301,-2.8301,-2.8301,-2.8301,-2.8301,-2.8301,-2.8301,-2.8301,-2.8301,-2.8301,-2.8301,-2.8291,-2.8344,-2.891,-2.9586,-3.063,-3.1351,-3.2128,-3.3231,-3.3281,-3.3281,-3.3281,-3.3281,-3.3281,-3.3281,-3.3281,-3.3281,-3.3281,-3.3281,-3.3281,-3.3281,-3.3281,-3.3281,-3.3281,-3.3281,-3.3281,-3.3281,-3.3281,-3.3281,-3.3281,-3.3281,-3.3281,-3.3281,-3.3281,-3.3281,-3.3281,-3.3281,-3.3281,-3.3281,-3.3281,-3.3381,-3.3618,-3.4014,-3.4445,-3.4932,-3.5644,-3.631,-3.6675,-3.7002,-3.7049,-3.6956,-3.7407,-3.8082,-3.8387,-3.7887,-3.7933,-3.897,-3.8823,-3.8662,-3.8885,-3.9,-3.953,-3.981,-4.0011,-4.0252,-4.0182,-3.9901,-3.9633,-3.9718,-3.9929,-4.0196,-4.0308,-4.0533,-4.0702,-4.0702,-4.0702,-4.0702,-4.0702,-4.0702,-4.0702,-4.0702,-4.0702,-4.0702,-4.0702,-4.0702,-4.0702,-2.4821,-2.4821,-2.4821,-2.4821,-2.4821,-2.4821,-2.4821,-2.4821,-2.4821,-2.52,-2.5844,-2.6391,-2.6881,-2.7431,-2.8023,-2.8184,-2.8301,-2.8301,-2.8301,-2.8301,-2.8301,-2.8301,-2.8301,-2.8301,-2.8301,-2.8301,-2.8301,-2.8301,-2.8301,-2.8301,-2.8301,-2.8301,-2.8601,-2.9122,-3.0318,-3.0991,-3.1618,-3.2869,-3.3281,-3.3281,-3.3281,-3.3281,-3.3281,-3.3281,-3.3281,-3.3281,-3.3281,-3.3281,-3.3281,-3.3281,-3.3281,-3.3281,-3.3281,-3.3281,-3.3281,-3.3281,-3.3281,-3.3281,-3.3281,-3.3281,-3.3281,-3.3281,-3.3281,-3.3281,-3.3281,-3.3281,-3.3281,-3.3281,-3.3281,-3.3381,-3.363,-3.3866,-3.4298,-3.4981,-3.5692,-3.6358,-3.6675,-3.6956,-3.6769,-3.6593,-3.7176,-3.7854,-3.7579,-3.7036,-3.7579,-3.8612,-3.8988,-3.8903,-3.8809,-3.8844,-3.9086,-3.9114,-3.9103,-3.934,-3.9466,-3.9451,-3.9113,-3.9128,-3.9395,-3.9985,-4.0477,-4.0617,-4.0702,-4.0702,-4.0702,-4.0702,-4.0702,-4.0702,-4.0702,-4.0702,-4.0702,-4.0702,-4.0702,-4.0702,-4.0702,-2.4821,-2.4821,-2.4821,-2.4821,-2.4821,-2.4821,-2.4821,-2.4821,-2.4821,-2.5421,-2.6227,-2.65,-2.6881,-2.7431,-2.8023,-2.8301,-2.8301,-2.8301,-2.8301,-2.8301,-2.8301,-2.8301,-2.8301,-2.8301,-2.8301,-2.8301,-2.8301,-2.8301,-2.8301,-2.8301,-2.8301,-2.8301,-2.8301,-2.9069,-3.0474,-3.1043,-3.1556,-3.2757,-3.3281,-3.3281,-3.3281,-3.3281,-3.3281,-3.3281,-3.3281,-3.3281,-3.3281,-3.3281,-3.3281,-3.3281,-3.3281,-3.3281,-3.3281,-3.3281,-3.3281,-3.3281,-3.3281,-3.3281,-3.3281,-3.3281,-3.3281,-3.3281,-3.3281,-3.3281,-3.3281,-3.3281,-3.3281,-3.3281,-3.3281,-3.3281,-3.3481,-3.3519,-3.3904,-3.4872,-3.574,-3.6168,-3.6546,-3.6722,-3.6769,-3.6909,-3.7315,-3.7625,-3.7579,-3.7348,-3.7533,-3.8251,-3.8342,-3.8249,-3.8016,-3.83,-3.8571,-3.8307,-3.8117,-3.82,-3.8256,-3.8779,-3.8705,-3.8693,-3.8974,-3.976,-4.0336,-4.0631,-4.0702,-4.0702,-4.0702,-4.0702,-4.0702,-4.0702,-4.0702,-4.0702,-4.0702,-4.0702,-4.0702,-4.0702,-4.0702]}]]